[[{"header":{"parameterUnit":"m.s-1","parameterCategory":1,"la1":31.0,"la2":29.5877,"lo1":-88.7671,"lo2":-86.6584,"dy":0.0162,"dx":0.0185,"nx":115,"ny":88,"refTime":"2024-05-14T12:00:00:Z","depth":0,"parameterNumber":2,"parameterNumberName":"U-component_of_WINDS"},"data":[0.0,0.0,0.0,0.0,0.0,0.0,0.0,0.0,0.0,0.0,0.0,0.0,0.0,0.0,0.0,0.0,0.0,0.0,0.0,0.0,0.0,0.0,0.0,0.0,0.0,0.0,0.0,0.0,0.0,0.0,0.0,0.0,0.0,0.0,0.0,0.0,0.0,0.0,0.0,0.0,0.0,0.0,0.0,0.0,0.0,0.0,0.0,0.0,0.0,0.0,0.0,0.0,0.0,0.0,0.0,0.0,0.0,0.0,0.0,0.0,0.0,0.0,0.0,0.0,0.0,0.0,0.0,0.0,0.0,0.0,0.0,0.0,0.0,0.0,0.0,0.0,0.0,0.0,0.0,0.0,0.0,0.0,0.0,0.0,0.0,0.0,0.0,0.0,0.0,0.0,0.0,0.0,0.0,0.0,0.0,0.0,0.0,0.0,0.0,0.0,0.0,0.0,0.0,0.0,0.0,0.0,0.0,0.0,0.0,0.0,0.0,0.0,0.0,0.0,0.0,0.0,0.0,0.0,0.0,0.0,0.0,0.0,0.0,0.0,0.0,0.0,0.0,0.0,0.0,0.0,0.0,0.0,0.0,0.0,0.0,0.0,0.0,0.0,0.0,0.0,0.0,0.0,0.0,0.0,0.0,0.0,0.0,0.0,0.0,0.0,0.0,0.0,0.0,0.0,0.0,0.0,0.0,0.0,0.0,0.0,0.0,0.0,0.0,0.0,0.0,0.0,0.0,0.0,0.0,0.0,0.0,0.0,0.0,0.0,0.0,0.0,0.0,0.0,0.0,0.0,0.0,0.0,0.0,0.0,0.0,0.0,0.0,0.0,0.0,0.0,0.0,0.0,0.0,0.0,0.0,0.0,0.0,0.0,0.0,0.0,0.0,0.0,0.0,0.0,0.0,0.0,0.0,0.0,0.0,0.0,0.0,0.0,0.0,0.0,0.0,0.0,0.0,0.0,0.0,0.0,0.0,0.0,0.0,0.0,0.0,0.0,0.0,0.0,0.0,0.0,0.0,0.0,0.0,0.0,0.0,0.0,0.0,0.0,0.0,0.0,0.0,0.0,0.0,0.0,0.0,0.0,0.0,0.0,0.0,0.0,0.0,0.0,0.0,0.0,0.0,0.0,0.0,0.0,0.0,0.0,0.0,0.0,0.0,0.0,0.0,0.0,0.0,0.0,0.0,0.0,0.0,0.0,0.0,0.0,0.0,0.0,0.0,0.0,0.0,0.0,0.0,0.0,0.0,0.0,0.0,0.0,0.0,0.0,0.0,0.0,0.0,0.0,0.0,0.0,0.0,0.0,0.0,0.0,0.0,0.0,0.0,0.0,0.0,0.0,0.0,0.0,0.0,0.0,0.0,0.0,0.0,0.0,0.0,0.0,0.0,0.0,0.0,0.0,0.0,0.0,0.0,0.0,0.0,0.0,0.0,0.0,0.0,0.0,0.0,0.0,0.0,0.0,0.0,0.0,0.0,0.0,0.0,0.0,0.0,0.0,0.0,0.0,0.0,0.0,0.0,0.0,0.0,0.0,0.0,0.0,0.0,0.0,0.0,0.0,0.0,0.0,0.0,0.0,0.0,0.0,0.0,0.0,0.0,0.0,0.0,0.0,0.0,0.0,0.0,0.0,0.0,0.0,0.0,0.0,0.0,0.0,0.0,0.0,0.0,0.0,0.0,0.0,0.0,0.0,0.0,0.0,0.0,0.0,0.0,0.0,0.0,0.0,0.0,0.0,0.0,0.0,0.0,0.0,0.0,0.0,0.0,0.0,0.0,0.0,0.0,0.0,0.0,0.0,0.0,0.0,0.0,0.0,0.0,0.0,0.0,0.0,0.0,0.0,0.0,0.0,0.0,0.0,0.0,0.0,0.0,0.0,0.0,0.0,0.0,0.0,0.0,0.0,0.0,0.0,0.0,0.0,0.0,0.0,0.0,0.0,0.0,0.0,0.0,0.0,0.0,0.0,0.0,0.0,0.0,0.0,0.0,0.0,0.0,0.0,0.0,0.0,0.0,0.0,0.0,0.0,0.0,0.0,0.0,0.0,0.0,0.0,0.0,0.0,0.0,0.0,0.0,0.0,0.0,0.0,0.0,0.0,0.0,0.0,0.0,0.0,0.0,0.0,0.0,0.0,0.0,0.0,0.0,0.0,0.0,0.0,0.0,0.0,0.0,0.0,0.0,0.0,0.0,0.0,0.0,0.0,0.0,0.0,0.0,0.0,0.0,0.0,0.0,0.0,0.0,0.0,0.0,0.0,0.0,0.0,0.0,0.0,0.0,0.0,0.0,0.0,0.0,0.0,0.0,0.0,0.0,0.0,0.0,0.0,0.0,0.0,0.0,0.0,0.0,0.0,0.0,0.0,0.0,0.0,0.0,0.0,0.0,0.0,0.0,0.0,0.0,0.0,0.0,0.0,0.0,0.0,0.0,0.0,0.0,0.0,0.0,0.0,0.0,0.0,0.0,0.0,0.0,0.0,0.0,0.0,0.0,0.0,0.0,0.0,0.0,0.0,0.0,0.0,0.0,0.0,0.0,0.0,0.0,0.0,0.0,0.0,0.0,0.0,0.0,0.0,0.0,0.0,0.0,0.0,0.0,0.0,0.0,0.0,0.0,0.0,0.0,0.0,0.0,0.0,0.0,0.0,0.0,0.0,0.0,0.0,0.0,0.0,0.0,0.0,0.0,0.0,0.0,0.0,0.0,0.0,0.0,0.0,0.0,0.0,0.0,0.0,0.0,0.0,0.0,0.0,0.0,0.0,0.0,0.0,0.0,0.0,0.0,0.0,0.0,0.0,0.0,0.0,0.0,0.0,0.0,0.0,0.0,0.0,0.0,0.0,0.0,0.0,0.0,0.0,0.0,0.0,0.0,0.0,0.0,0.0,0.0,0.0,0.0,0.0,0.0,0.0,0.0,0.0,0.0,0.0,0.0,0.0,0.0,0.0,0.0,0.0,0.0,0.0,0.0,0.0,0.0,0.0,0.0,0.0,0.0,0.0,0.0,0.0,0.0,0.0,0.0,0.0,0.0,0.0,0.0,0.0,0.0,0.0,0.0,0.0,0.0,0.0,0.0,0.0,0.0,0.0,0.0,0.0,0.0,0.0,0.0,0.0,0.0,0.0,0.0,0.0,0.0,0.0,0.0,0.0,0.0,0.0,0.0,0.0,0.0,0.0,0.0,0.0,0.0,0.0,0.0,0.0,0.0,0.0,0.0,0.0,0.0,0.0,0.0,0.0,0.0,0.0,0.0,0.0,0.0,0.0,0.0,0.0,0.0,0.0,0.0,0.0,0.0,0.0,0.0,0.0,0.0,0.0,0.0,0.0,0.0,0.0,0.0,0.0,0.0,0.0,0.0,0.0,0.0,0.0,0.0,0.0,0.0,0.0,0.0,0.0,0.0,0.0,0.0,0.0,0.0,0.0,0.0,0.0,0.0,0.0,0.0,0.0,0.0,0.0,0.0,0.0,0.0,0.0,0.0,0.0,0.0,0.0,0.0,0.0,0.0,0.0,0.0,0.0,0.0,0.0,0.0,0.0,0.0,0.0,0.0,0.0,0.0,0.0,0.0,0.0,0.0,0.0,0.0,0.0,0.0,0.0,0.0,0.0,0.0,0.0,0.0,0.0,0.0,0.0,0.0,0.0,0.0,0.0,0.0,0.0,0.0,0.0,0.0,0.0,0.0,0.0,0.0,0.0,0.0,0.0,0.0,0.0,0.0,0.0,0.0,0.0,0.0,0.0,0.0,0.0,0.0,0.0,0.0,0.0,0.0,0.0,0.0,0.0,0.0,0.0,0.0,0.0,0.0,0.0,0.0,0.0,0.0,0.0,0.0,0.0,0.0,0.0,0.0,0.0,0.0,0.0,0.0,0.0,0.0,0.0,0.0,0.0,0.0,0.0,0.0,0.0,0.0,0.0,0.0,0.0,0.0,0.0,0.0,0.0,0.0,0.0,0.0,0.0,0.0,0.0,0.0,0.0,0.0,0.0,0.0,0.0,0.0,0.0,0.0,0.0,0.0,0.0,0.0,0.0,0.0,0.0,0.0,0.0,0.0,0.0,0.0,0.0,0.0,0.0,0.0,0.0,0.0,0.0,0.0,0.0,0.0,0.0,0.0,0.0,0.0,0.0,0.0,0.0,0.0,0.0,0.0,0.0,0.0,0.0,0.0,0.0,0.0,0.0,0.0,0.0,0.0,0.0,0.0,0.0,0.0,0.0,0.0,0.0,0.0,0.0,0.0,0.0,0.0,0.0,0.0,0.0,2.577,0.0,0.0,0.0,0.0,0.0,0.0,0.0,0.0,0.0,0.0,0.0,0.0,0.0,0.0,0.0,0.0,0.0,0.0,0.0,0.0,0.0,0.0,0.0,0.0,0.0,0.0,0.0,0.0,0.0,0.0,0.0,0.0,0.0,0.0,0.0,0.0,0.0,0.0,0.0,0.0,0.0,0.0,0.0,0.0,0.0,0.0,0.0,0.0,0.0,0.0,0.0,0.0,0.0,0.0,0.0,0.0,0.0,0.0,0.0,0.0,0.0,0.0,0.0,0.0,0.0,0.0,0.0,0.0,0.0,0.0,0.0,0.0,0.0,0.0,0.0,0.0,0.0,0.0,0.0,0.0,0.0,0.0,0.0,0.0,0.0,0.0,0.0,0.0,0.0,0.0,0.0,0.0,0.0,0.0,0.0,0.0,0.0,0.0,0.0,0.0,0.0,0.0,0.0,0.0,0.0,0.0,0.0,0.0,0.0,0.0,2.5465,2.5725,2.5849,2.5849,2.5896,0.0,0.0,0.0,0.0,0.0,0.0,0.0,0.0,0.0,0.0,0.0,0.0,0.0,0.0,0.0,0.0,0.0,0.0,0.0,0.0,0.0,0.0,0.0,0.0,0.0,0.0,0.0,0.0,0.0,0.0,0.0,0.0,0.0,0.0,0.0,0.0,0.0,0.0,0.0,0.0,0.0,0.0,0.0,0.0,0.0,0.0,0.0,0.0,0.0,0.0,0.0,0.0,0.0,0.0,0.0,0.0,0.0,0.0,0.0,0.0,0.0,0.0,0.0,0.0,0.0,0.0,0.0,0.0,0.0,0.0,0.0,0.0,0.0,0.0,0.0,0.0,0.0,0.0,0.0,0.0,0.0,0.0,0.0,0.0,0.0,0.0,0.0,0.0,0.0,0.0,0.0,0.0,0.0,0.0,0.0,0.0,0.0,0.0,0.0,0.0,0.0,0.0,0.0,0.0,0.0,0.0,0.0,0.0,0.0,0.0,0.0,0.0,2.5501,2.5432,2.5486,0.0,0.0,0.0,0.0,0.0,0.0,0.0,0.0,0.0,0.0,0.0,0.0,0.0,0.0,0.0,0.0,0.0,0.0,0.0,0.0,0.0,0.0,0.0,0.0,0.0,0.0,0.0,0.0,0.0,0.0,0.0,0.0,0.0,0.0,0.0,0.0,0.0,0.0,0.0,0.0,0.0,0.0,0.0,0.0,0.0,0.0,0.0,0.0,0.0,0.0,0.0,0.0,0.0,0.0,0.0,0.0,0.0,0.0,0.0,0.0,0.0,0.0,0.0,0.0,0.0,0.0,0.0,0.0,0.0,0.0,0.0,0.0,0.0,0.0,0.0,0.0,0.0,0.0,0.0,0.0,0.0,0.0,0.0,0.0,0.0,0.0,0.0,0.0,0.0,0.0,0.0,0.0,0.0,0.0,0.0,0.0,0.0,0.0,0.0,0.0,0.0,0.0,0.0,0.0,0.0,0.0,0.0,0.0,0.0,0.0,2.4903,2.4758,2.5441,0.0,2.3623,0.0,0.0,0.0,0.0,0.0,0.0,0.0,0.0,0.0,0.0,0.0,0.0,0.0,0.0,0.0,0.0,0.0,0.0,0.0,0.0,0.0,0.0,0.0,0.0,0.0,0.0,0.0,0.0,0.0,0.0,0.0,0.0,0.0,0.0,0.0,0.0,0.0,0.0,0.0,0.0,0.0,0.0,0.0,0.0,0.0,0.0,0.0,0.0,0.0,0.0,0.0,0.0,0.0,0.0,0.0,0.0,0.0,0.0,0.0,0.0,0.0,0.0,0.0,0.0,0.0,0.0,0.0,0.0,0.0,0.0,0.0,0.0,0.0,0.0,0.0,0.0,0.0,0.0,0.0,0.0,0.0,0.0,0.0,0.0,0.0,0.0,0.0,0.0,0.0,0.0,0.0,0.0,0.0,0.0,0.0,0.0,0.0,0.0,0.0,0.0,0.0,0.0,0.0,0.0,0.0,0.0,0.0,0.0,0.0,0.0,2.4261,2.4956,2.5294,2.4676,0.0,0.0,0.0,0.0,0.0,0.0,0.0,0.0,0.0,0.0,0.0,0.0,0.0,0.0,0.0,0.0,0.0,0.0,0.0,0.0,0.0,0.0,0.0,0.0,0.0,0.0,0.0,0.0,0.0,0.0,0.0,0.0,0.0,0.0,0.0,0.0,0.0,0.0,0.0,0.0,0.0,0.0,0.0,0.0,0.0,0.0,0.0,0.0,0.0,0.0,0.0,0.0,0.0,0.0,0.0,0.0,0.0,0.0,0.0,0.0,0.0,0.0,0.0,0.0,0.0,0.0,0.0,0.0,0.0,0.0,0.0,0.0,0.0,0.0,0.0,0.0,0.0,0.0,0.0,0.0,0.0,0.0,0.0,0.0,0.0,0.0,0.0,0.0,0.0,0.0,0.0,0.0,0.0,0.0,0.0,0.0,0.0,0.0,0.0,0.0,0.0,0.0,0.0,0.0,0.0,0.0,0.0,0.0,0.0,0.0,2.3032,2.3887,2.5254,2.4954,2.4063,2.2452,0.0,0.0,0.0,0.0,0.0,0.0,0.0,0.0,0.0,0.0,0.0,0.0,0.0,0.0,0.0,0.0,0.0,0.0,0.0,0.0,0.0,0.0,0.0,0.0,0.0,0.0,0.0,0.0,0.0,0.0,0.0,0.0,0.0,0.0,0.0,0.0,0.0,0.0,0.0,0.0,0.0,0.0,0.0,0.0,0.0,0.0,0.0,0.0,0.0,0.0,0.0,0.0,0.0,0.0,0.0,0.0,0.0,0.0,0.0,0.0,0.0,0.0,0.0,0.0,0.0,0.0,0.0,0.0,0.0,0.0,0.0,0.0,0.0,0.0,0.0,0.0,0.0,0.0,0.0,0.0,0.0,0.0,0.0,0.0,0.0,0.0,0.0,0.0,0.0,0.0,0.0,0.0,0.0,0.0,0.0,0.0,0.0,0.0,0.0,0.0,0.0,0.0,0.0,0.0,0.0,0.0,0.0,0.0,2.2225,2.2823,2.394,2.5571,2.4466,2.3248,0.0,0.0,0.0,0.0,0.0,0.0,0.0,0.0,0.0,0.0,0.0,0.0,0.0,0.0,0.0,0.0,0.0,0.0,0.0,0.0,0.0,0.0,0.0,0.0,0.0,0.0,0.0,0.0,0.0,0.0,0.0,0.0,0.0,0.0,0.0,0.0,0.0,0.0,0.0,0.0,0.0,0.0,0.0,0.0,0.0,0.0,0.0,0.0,0.0,0.0,0.0,0.0,0.0,0.0,0.0,0.0,0.0,0.0,0.0,0.0,0.0,0.0,0.0,0.0,0.0,0.0,0.0,0.0,0.0,0.0,0.0,0.0,0.0,0.0,0.0,0.0,0.0,0.0,0.0,0.0,0.0,0.0,0.0,0.0,0.0,0.0,0.0,0.0,0.0,0.0,0.0,0.0,0.0,0.0,0.0,0.0,0.0,0.0,0.0,0.0,0.0,0.0,0.0,0.0,0.0,0.0,0.0,0.0,0.0,2.2016,2.3086,2.3831,2.4027,2.3978,2.3201,0.0,0.0,0.0,0.0,0.0,0.0,0.0,0.0,0.0,0.0,0.0,0.0,0.0,0.0,0.0,0.0,0.0,0.0,0.0,0.0,0.0,0.0,0.0,0.0,0.0,0.0,0.0,0.0,0.0,0.0,0.0,0.0,0.0,0.0,0.0,0.0,0.0,0.0,0.0,0.0,0.0,0.0,0.0,0.0,0.0,0.0,0.0,0.0,0.0,0.0,0.0,0.0,0.0,0.0,0.0,0.0,0.0,0.0,0.0,0.0,0.0,0.0,0.0,0.0,0.0,0.0,0.0,0.0,0.0,0.0,0.0,0.0,0.0,0.0,0.0,0.0,0.0,0.0,0.0,0.0,0.0,0.0,0.0,0.0,0.0,0.0,0.0,0.0,0.0,0.0,0.0,0.0,0.0,0.0,0.0,0.0,0.0,0.0,0.0,0.0,0.0,0.0,0.0,0.0,0.0,0.0,0.0,0.0,0.0,2.2291,0.0,2.3496,2.3124,2.334,2.2785,0.0,0.0,0.0,0.0,0.0,0.0,0.0,0.0,0.0,0.0,0.0,0.0,0.0,0.0,0.0,0.0,0.0,0.0,0.0,0.0,0.0,0.0,0.0,0.0,0.0,0.0,0.0,0.0,0.0,0.0,0.0,0.0,0.0,0.0,0.0,0.0,0.0,0.0,0.0,0.0,0.0,0.0,0.0,0.0,0.0,0.0,0.0,0.0,0.0,0.0,0.0,0.0,0.0,0.0,0.0,0.0,0.0,0.0,0.0,0.0,0.0,0.0,0.0,0.0,0.0,0.0,0.0,0.0,0.0,0.0,0.0,0.0,0.0,0.0,0.0,0.0,0.0,0.0,0.0,0.0,0.0,0.0,0.0,0.0,0.0,0.0,0.0,0.0,0.0,0.0,0.0,0.0,0.0,0.0,0.0,0.0,0.0,0.0,0.0,0.0,0.0,0.0,0.0,0.0,0.0,0.0,0.0,0.0,2.1939,2.2999,2.3144,2.3144,2.3038,2.2669,2.2032,0.0,0.0,0.0,0.0,0.0,0.0,0.0,0.0,0.0,0.0,0.0,0.0,0.0,0.0,0.0,0.0,0.0,0.0,0.0,0.0,0.0,0.0,0.0,0.0,0.0,0.0,0.0,0.0,0.0,0.0,0.0,0.0,0.0,0.0,0.0,0.0,0.0,0.0,0.0,0.0,0.0,0.0,0.0,0.0,0.0,0.0,0.0,0.0,0.0,0.0,0.0,0.0,0.0,0.0,0.0,0.0,0.0,0.0,0.0,0.0,0.0,0.0,0.0,0.0,0.0,0.0,0.0,0.0,0.0,0.0,0.0,0.0,0.0,0.0,0.0,0.0,0.0,0.0,0.0,0.0,0.0,0.0,0.0,0.0,0.0,0.0,0.0,0.0,0.0,0.0,0.0,0.0,0.0,0.0,0.0,0.0,0.0,0.0,0.0,0.0,0.0,0.0,0.0,0.0,0.0,0.0,0.0,0.0,0.0,2.3512,2.3287,2.3287,2.3531,2.3082,2.2448,0.0,0.0,0.0,0.0,0.0,0.0,0.0,0.0,0.0,0.0,0.0,0.0,0.0,0.0,0.0,0.0,0.0,0.0,0.0,0.0,0.0,0.0,0.0,0.0,0.0,0.0,0.0,0.0,0.0,0.0,0.0,0.0,0.0,0.0,0.0,0.0,0.0,0.0,0.0,0.0,0.0,0.0,0.0,0.0,0.0,0.0,0.0,0.0,0.0,0.0,0.0,0.0,0.0,0.0,0.0,0.0,0.0,0.0,0.0,0.0,0.0,0.0,0.0,0.0,0.0,0.0,0.0,0.0,0.0,0.0,0.0,0.0,0.0,0.0,0.0,0.0,0.0,0.0,0.0,0.0,0.0,0.0,0.0,0.0,0.0,0.0,0.0,0.0,0.0,0.0,0.0,0.0,0.0,0.0,0.0,0.0,0.0,0.0,0.0,0.0,0.0,0.0,0.0,0.0,0.0,0.0,0.0,0.0,0.0,2.4035,2.3794,2.3717,2.4023,2.3281,2.2511,2.1709,0.0,0.0,0.0,0.0,0.0,0.0,0.0,0.0,0.0,0.0,0.0,0.0,0.0,0.0,0.0,0.0,0.0,0.0,0.0,0.0,0.0,0.0,0.0,0.0,0.0,0.0,0.0,0.0,0.0,0.0,0.0,0.0,0.0,0.0,0.0,0.0,0.0,0.0,0.0,0.0,0.0,0.0,0.0,0.0,0.0,0.0,0.0,0.0,0.0,0.0,0.0,0.0,0.0,0.0,0.0,0.0,0.0,0.0,0.0,0.0,0.0,0.0,0.0,0.0,0.0,0.0,0.0,0.0,0.0,0.0,0.0,0.0,0.0,0.0,0.0,0.0,0.0,0.0,0.0,0.0,0.0,0.0,0.0,0.0,0.0,0.0,0.0,0.0,0.0,0.0,0.0,0.0,0.0,0.0,0.0,0.0,0.0,0.0,0.0,0.0,0.0,0.0,0.0,0.0,0.0,0.0,0.0,0.0,2.4584,2.4469,2.4373,2.4419,2.3107,2.2288,0.0,0.0,0.0,0.0,0.0,0.0,0.0,0.0,0.0,0.0,0.0,0.0,0.0,0.0,0.0,0.0,0.0,0.0,0.0,0.0,0.0,0.0,0.0,0.0,0.0,0.0,0.0,0.0,0.0,0.0,0.0,0.0,0.0,0.0,0.0,0.0,0.0,0.0,0.0,0.0,0.0,0.0,0.0,0.0,0.0,0.0,0.0,0.0,0.0,0.0,0.0,0.0,0.0,0.0,0.0,0.0,0.0,0.0,0.0,0.0,0.0,0.0,0.0,0.0,0.0,0.0,0.0,0.0,0.0,0.0,0.0,0.0,0.0,0.0,0.0,0.0,0.0,0.0,0.0,0.0,0.0,0.0,0.0,0.0,0.0,0.0,0.0,0.0,0.0,0.0,0.0,0.0,0.0,0.0,0.0,0.0,0.0,0.0,0.0,0.0,0.0,0.0,0.0,0.0,0.0,0.0,0.0,0.0,0.0,2.4259,2.4653,2.4783,2.4425,2.3518,2.2373,0.0,0.0,0.0,0.0,0.0,0.0,0.0,0.0,0.0,0.0,0.0,0.0,0.0,0.0,0.0,0.0,0.0,0.0,0.0,0.0,0.0,0.0,0.0,0.0,0.0,0.0,0.0,0.0,0.0,0.0,0.0,0.0,0.0,0.0,0.0,0.0,0.0,0.0,0.0,0.0,0.0,0.0,0.0,0.0,0.0,0.0,0.0,0.0,0.0,0.0,0.0,0.0,0.0,0.0,0.0,0.0,0.0,0.0,0.0,0.0,0.0,0.0,0.0,0.0,0.0,0.0,0.0,0.0,0.0,0.0,0.0,0.0,0.0,0.0,0.0,0.0,0.0,0.0,0.0,0.0,0.0,0.0,0.0,0.0,0.0,0.0,0.0,0.0,0.0,0.0,0.0,0.0,0.0,0.0,0.0,0.0,0.0,0.0,0.0,0.0,0.0,0.0,0.0,0.0,0.0,0.0,0.0,0.0,2.3496,2.4253,2.459,2.4468,2.3834,2.2728,2.1622,0.0,0.0,0.0,0.0,0.0,0.0,0.0,0.0,0.0,0.0,0.0,0.0,0.0,0.0,0.0,0.0,0.0,0.0,0.0,0.0,0.0,0.0,0.0,0.0,0.0,0.0,0.0,0.0,0.0,0.0,0.0,0.0,0.0,0.0,0.0,0.0,0.0,0.0,0.0,0.0,0.0,0.0,0.0,0.0,0.0,0.0,0.0,0.0,0.0,0.0,0.0,0.0,0.0,0.0,0.0,0.0,0.0,0.0,0.0,0.0,0.0,0.0,0.0,0.0,0.0,0.0,0.0,0.0,0.0,0.0,0.0,0.0,0.0,0.0,0.0,0.0,0.0,0.0,0.0,0.0,0.0,0.0,0.0,0.0,0.0,0.0,0.0,0.0,0.0,0.0,0.0,0.0,0.0,0.0,0.0,0.0,0.0,0.0,0.0,0.0,0.0,0.0,0.0,0.0,0.0,0.0,0.0,0.0,2.3634,2.4258,2.4235,2.3702,2.2732,2.1496,2.0459,0.0,0.0,0.0,0.0,0.0,0.0,0.0,0.0,0.0,0.0,0.0,0.0,0.0,0.0,0.0,0.0,0.0,0.0,0.0,0.0,0.0,0.0,0.0,0.0,0.0,0.0,0.0,0.0,0.0,0.0,0.0,0.0,0.0,0.0,0.0,0.0,0.0,0.0,0.0,0.0,0.0,0.0,0.0,0.0,0.0,0.0,0.0,0.0,0.0,0.0,0.0,0.0,0.0,0.0,0.0,0.0,0.0,0.0,0.0,0.0,0.0,0.0,0.0,0.0,0.0,0.0,0.0,0.0,0.0,0.0,0.0,0.0,0.0,0.0,0.0,0.0,0.0,0.0,0.0,0.0,0.0,0.0,0.0,0.0,0.0,0.0,0.0,0.0,0.0,0.0,0.0,0.0,0.0,0.0,0.0,0.0,0.0,0.0,0.0,0.0,0.0,0.0,0.0,0.0,0.0,0.0,0.0,0.0,2.3224,2.3542,2.3234,2.2595,2.1861,2.1442,2.0263,0.0,0.0,0.0,0.0,0.0,0.0,0.0,0.0,0.0,0.0,0.0,0.0,0.0,0.0,0.0,0.0,0.0,0.0,0.0,0.0,0.0,0.0,0.0,0.0,0.0,0.0,0.0,0.0,0.0,0.0,0.0,0.0,0.0,0.0,0.0,0.0,0.0,0.0,0.0,0.0,0.0,0.0,0.0,0.0,0.0,0.0,0.0,0.0,1.9587,0.0,0.0,0.0,0.0,0.0,0.0,0.0,0.0,0.0,0.0,0.0,0.0,0.0,0.0,0.0,0.0,0.0,0.0,0.0,0.0,0.0,0.0,0.0,0.0,0.0,0.0,0.0,0.0,0.0,0.0,0.0,0.0,0.0,0.0,0.0,0.0,0.0,0.0,0.0,0.0,0.0,0.0,0.0,0.0,0.0,0.0,0.0,0.0,0.0,0.0,0.0,0.0,0.0,0.0,0.0,0.0,0.0,0.0,0.0,2.3373,2.3158,2.2924,2.2187,2.0883,2.081,1.9674,0.0,0.0,0.0,0.0,0.0,0.0,0.0,0.0,0.0,0.0,0.0,0.0,0.0,0.0,0.0,0.0,0.0,0.0,0.0,0.0,0.0,0.0,0.0,0.0,0.0,0.0,0.0,0.0,0.0,0.0,0.0,0.0,0.0,0.0,0.0,0.0,0.0,0.0,0.0,0.0,0.0,0.0,0.0,0.0,0.0,0.0,0.0,0.0,0.0,0.0,0.0,0.0,0.0,0.0,0.0,0.0,0.0,0.0,0.0,0.0,0.0,0.0,0.0,0.0,0.0,0.0,0.0,0.0,0.0,0.0,0.0,0.0,0.0,0.0,0.0,0.0,0.0,0.0,0.0,0.0,0.0,0.0,0.0,0.0,0.0,0.0,0.0,0.0,0.0,0.0,0.0,0.0,0.0,0.0,0.0,0.0,0.0,0.0,0.0,0.0,0.0,0.0,0.0,0.0,0.0,0.0,0.0,2.321,2.3578,2.2793,2.2828,2.1976,2.0036,1.9774,1.877,1.6828,0.0,0.0,0.0,0.0,0.0,0.0,0.0,0.0,0.0,0.0,0.0,0.0,0.0,0.0,0.0,0.0,0.0,0.0,0.0,0.0,0.0,0.0,0.0,0.0,0.0,0.0,0.0,0.0,0.0,0.0,0.0,0.0,0.0,0.0,0.0,0.0,0.0,0.0,1.8159,1.8923,0.0,0.0,0.0,0.0,0.0,0.0,0.0,0.0,1.7121,0.0,0.0,0.0,0.0,0.0,0.0,0.0,0.0,0.0,0.0,0.0,0.0,0.0,0.0,0.0,0.0,0.0,0.0,0.0,0.0,0.0,0.0,0.0,0.0,0.0,0.0,0.0,0.0,0.0,0.0,0.0,0.0,0.0,0.0,0.0,0.0,0.0,0.0,0.0,0.0,0.0,0.0,0.0,0.0,0.0,0.0,0.0,0.0,0.0,0.0,0.0,0.0,0.0,0.0,0.0,0.0,2.1894,2.294,2.3161,2.2447,2.2369,2.1341,1.933,1.8867,1.7698,1.5776,0.0,0.0,0.0,0.0,0.0,0.0,0.0,0.0,0.0,0.0,0.0,0.0,0.0,0.0,0.0,0.0,0.0,0.0,0.0,0.0,0.0,0.0,0.0,0.0,0.0,0.0,0.0,0.0,0.0,0.0,0.0,0.0,0.0,0.0,0.0,0.0,0.0,0.0,0.0,1.8758,1.9081,0.0,0.0,0.0,0.0,0.0,0.0,0.0,0.0,1.5587,0.0,0.0,0.0,0.0,0.0,0.0,0.0,0.0,0.0,0.0,0.0,0.0,0.0,0.0,0.0,0.0,0.0,0.0,0.0,0.0,0.0,0.0,0.0,0.0,0.0,0.0,0.0,0.0,0.0,0.0,0.0,0.0,0.0,0.0,0.0,0.0,0.0,0.0,0.0,0.0,0.0,0.0,0.0,0.0,0.0,0.0,0.0,0.0,0.0,0.0,0.0,0.0,0.0,0.0,0.0,2.1894,2.2669,2.2744,2.2043,2.229,2.1343,1.8916,1.9415,1.8346,0.0,0.0,0.0,0.0,0.0,0.0,0.0,0.0,0.0,0.0,0.0,0.0,0.0,0.0,0.0,0.0,0.0,0.0,0.0,0.0,0.0,0.0,0.0,0.0,0.0,0.0,0.0,0.0,0.0,0.0,0.0,0.0,0.0,0.0,0.0,0.0,0.0,0.0,0.0,0.0,1.8136,1.8422,1.7989,0.0,0.0,0.0,0.0,0.0,0.0,1.4372,1.4176,0.0,0.0,0.0,0.0,0.0,0.0,0.0,0.0,0.0,0.0,0.0,0.0,0.0,0.0,0.0,0.0,0.0,0.0,0.0,0.0,0.0,0.0,0.0,0.0,0.0,0.0,0.0,0.0,0.0,0.0,0.0,0.0,0.0,0.0,0.0,0.0,0.0,0.0,0.0,0.0,0.0,0.0,0.0,0.0,0.0,0.0,0.0,0.0,0.0,0.0,0.0,0.0,0.0,0.0,0.0,2.1894,2.2457,2.2441,2.1679,2.2242,2.1182,1.8483,1.9303,1.8365,0.0,0.0,0.0,0.0,0.0,0.0,0.0,0.0,0.0,0.0,0.0,0.0,0.0,0.0,0.0,0.0,0.0,0.0,0.0,0.0,0.0,0.0,0.0,0.0,0.0,0.0,0.0,0.0,0.0,0.0,0.0,0.0,0.0,0.0,0.0,0.0,0.0,0.0,0.0,0.0,0.0,1.7914,1.7636,1.7073,0.0,0.0,0.0,0.0,1.346,1.3287,0.0,0.0,0.0,0.0,0.0,0.0,0.0,0.0,0.0,0.0,0.0,0.0,0.0,0.0,0.0,0.0,0.0,0.0,0.0,0.0,0.0,0.0,0.0,0.0,0.0,0.0,0.0,0.0,0.0,0.0,0.0,0.0,0.0,0.0,0.0,0.0,0.0,0.0,0.0,0.0,0.0,0.0,0.0,0.0,0.0,0.0,0.0,0.0,0.0,0.0,0.0,0.0,0.0,0.0,0.0,0.0,2.1875,2.2457,2.2353,2.1463,2.1644,2.0566,1.7837,1.6878,1.5722,0.0,0.0,0.0,0.0,0.0,0.0,0.0,0.0,0.0,0.0,0.0,0.0,0.0,0.0,0.0,0.0,0.0,0.0,0.0,0.0,0.0,0.0,0.0,0.0,0.0,0.0,0.0,0.0,0.0,0.0,0.0,0.0,0.0,0.0,0.0,0.0,0.0,0.0,0.0,0.0,0.0,1.7981,1.8,1.769,1.6964,0.0,0.0,1.4025,1.291,1.2543,0.0,0.0,0.0,0.0,0.0,0.0,0.0,0.0,0.0,0.0,0.0,0.0,0.0,0.0,0.0,0.0,0.0,0.0,0.0,0.0,0.0,0.0,0.0,0.0,0.0,0.0,0.0,0.0,0.0,0.0,0.0,0.0,0.0,0.0,0.0,0.0,0.0,0.0,0.0,0.0,0.0,0.0,0.0,0.0,0.0,0.0,0.0,0.0,0.0,0.0,0.0,0.0,0.0,0.0,0.0,2.0353,2.1588,2.1381,2.1167,2.0979,2.0954,1.9744,1.7311,1.6338,1.517,0.0,0.0,0.0,0.0,0.0,0.0,0.0,0.0,0.0,0.0,0.0,0.0,0.0,0.0,0.0,0.0,0.0,0.0,0.0,0.0,0.0,0.0,0.0,0.0,0.0,0.0,0.0,0.0,0.0,0.0,0.0,0.0,0.0,0.0,0.0,0.0,0.0,0.0,0.0,0.0,0.0,0.0,1.7754,1.7477,0.0,0.0,0.0,1.3927,1.2914,0.0,0.0,0.0,0.0,0.0,0.0,0.0,0.0,0.0,0.0,0.0,0.0,0.0,0.0,0.0,0.0,0.0,0.0,0.0,0.0,0.0,0.0,0.0,0.0,0.0,0.0,0.0,0.0,0.0,0.0,0.0,0.0,0.0,0.0,0.0,0.0,0.0,0.0,0.0,0.0,0.0,0.0,0.0,0.0,0.0,0.0,0.0,0.0,0.0,0.0,0.0,0.0,0.0,0.0,0.0,0.0,0.0,2.1172,2.0443,2.0131,2.015,2.013,1.8925,1.6546,1.581,0.0,0.0,0.0,0.0,0.0,0.0,0.0,0.0,0.0,0.0,0.0,0.0,0.0,0.0,0.0,0.0,0.0,0.0,0.0,0.0,0.0,0.0,0.0,0.0,0.0,0.0,0.0,1.4082,0.0,0.0,0.0,0.0,0.0,0.0,0.0,0.0,0.0,0.0,0.0,0.0,0.0,0.0,1.7156,1.7551,1.7426,1.7126,0.0,0.0,1.3957,1.3012,1.2043,1.1031,0.0,0.0,0.0,0.0,0.0,0.0,0.0,0.0,0.0,0.0,0.0,0.0,0.0,0.0,0.0,0.0,0.0,0.0,0.0,0.0,0.0,0.0,0.0,0.0,0.0,0.0,0.0,0.0,0.0,0.0,0.0,0.0,0.0,0.0,0.0,0.0,0.0,0.0,0.0,0.0,0.0,0.0,0.0,0.0,0.0,0.0,0.0,0.0,0.0,0.0,0.0,0.0,0.0,0.0,1.9511,2.0484,2.0268,1.9669,1.8964,1.9297,1.8161,1.5235,1.4667,1.3615,0.0,0.0,0.0,0.0,0.0,0.0,0.0,0.0,0.0,0.0,0.0,0.0,0.0,0.0,0.0,0.0,0.0,0.0,0.0,0.0,0.0,0.0,0.0,0.0,0.0,0.0,0.0,0.0,0.0,0.0,0.0,0.0,0.0,0.0,0.0,0.0,0.0,0.0,0.0,0.0,0.0,1.7227,1.7824,1.7757,1.7345,0.0,1.5448,1.4435,1.2805,1.1629,1.0524,0.9625,0.0,0.0,0.0,0.0,0.0,0.0,0.0,0.0,0.0,0.0,0.0,0.0,0.0,0.0,0.0,0.0,0.0,0.0,0.0,0.0,0.0,0.0,0.0,0.0,0.0,0.0,0.0,0.0,0.0,0.0,0.0,0.0,0.0,0.0,0.0,0.0,0.0,0.0,0.0,0.0,0.0,0.0,0.0,0.0,0.0,0.0,0.0,0.0,0.0,0.0,0.0,0.0,0.0,1.7812,1.8667,1.8024,1.7491,1.7159,1.7486,1.6348,1.338,1.2692,1.1598,0.0,0.0,0.0,0.0,0.0,0.0,0.0,0.0,0.0,0.0,0.0,0.0,0.0,0.0,0.0,0.0,0.0,0.0,0.0,0.0,0.0,0.0,0.0,0.0,0.0,0.0,0.0,0.0,1.4242,1.4282,1.4108,0.0,0.0,0.0,0.0,0.0,0.0,0.0,0.0,0.0,0.0,1.5898,1.5926,1.582,0.0,0.0,1.3979,1.2925,1.1516,1.0486,0.9506,0.8297,0.7248,0.0,0.0,0.0,0.0,0.0,0.0,0.0,0.0,0.0,0.0,0.0,0.0,0.0,0.0,0.0,0.0,0.0,0.0,0.0,0.0,0.0,0.0,0.0,0.0,0.0,0.0,0.0,0.0,0.0,0.0,0.0,0.0,0.0,0.0,0.0,0.0,0.0,0.0,0.0,0.0,0.0,0.0,0.0,0.0,0.0,0.0,0.0,0.0,0.0,0.0,0.0,0.0,1.6031,1.6637,1.576,1.5177,1.4994,1.5582,1.4413,1.1327,0.9362,0.8203,0.0,0.0,0.0,0.0,0.0,0.0,0.0,0.0,0.0,0.0,0.0,0.0,0.0,0.0,0.0,0.0,0.0,0.0,0.0,0.0,0.0,0.0,0.0,0.0,0.0,0.0,0.0,0.0,1.4084,1.4124,1.3939,0.0,0.0,0.0,0.0,0.0,0.0,0.0,0.0,0.0,0.0,1.431,1.3984,1.3757,1.3491,1.3406,1.2548,1.1698,1.1084,0.9404,0.7807,0.6654,0.0,0.0,0.0,0.0,0.0,0.0,0.0,0.0,0.0,0.0,0.0,0.0,0.0,0.0,0.0,0.0,0.0,0.0,0.0,0.0,0.0,0.0,0.0,0.0,0.0,0.0,0.0,2.1084,0.0,0.0,2.1832,0.0,0.0,0.0,0.0,0.0,0.0,0.0,0.0,0.0,0.0,0.0,0.0,0.0,0.0,0.0,0.0,0.0,0.0,0.0,0.0,0.0,0.0,1.4267,1.4843,1.3783,1.3055,1.2394,1.3648,1.2562,0.8977,0.4291,0.3164,0.5951,0.0,0.0,0.0,0.0,0.0,0.0,0.0,0.0,0.0,0.0,0.0,0.0,0.0,0.0,0.0,0.0,0.0,0.0,0.0,0.0,0.0,0.0,0.0,0.0,0.0,0.0,1.3442,1.3404,1.3404,0.0,0.0,0.0,0.0,0.0,0.0,0.0,0.0,0.0,1.3487,1.3197,1.2785,1.2142,1.1495,1.1121,1.183,1.1053,1.0806,1.1367,0.8265,0.535,0.0,0.0,0.0,0.0,0.0,0.0,0.0,0.0,0.0,0.0,0.0,0.0,0.0,0.0,0.0,0.0,0.0,0.0,0.0,0.0,0.0,0.0,0.0,0.0,0.0,0.0,0.0,2.0356,1.9177,0.0,0.0,0.0,0.0,0.0,0.0,0.0,0.0,0.0,0.0,0.0,1.4878,1.5796,0.0,0.0,0.0,0.0,0.0,0.0,0.0,0.0,0.0,0.0,0.0,0.0,1.1315,1.1079,1.0565,0.9984,0.9453,1.0547,0.9756,0.6714,0.1961,0.0286,0.2098,0.0,0.0,0.0,0.0,0.0,0.0,0.0,0.0,0.0,0.0,0.0,0.0,0.0,0.0,0.0,0.0,0.0,0.0,0.0,0.0,0.0,0.0,0.0,0.0,0.0,1.3069,0.0,0.0,0.0,0.0,0.0,0.0,0.0,0.0,0.0,0.0,0.0,1.2422,1.1764,1.1931,1.1207,0.8723,0.7079,0.5998,0.0,0.0,0.0,0.0,0.0,0.0,0.0,0.0,0.0,0.0,0.0,0.0,0.0,0.0,-1.001,-0.9453,-0.9822,-1.0183,-0.9703,0.0,0.0,0.0,0.0,0.0,0.0,0.0,0.0,0.0,0.0,0.0,0.0,0.0,0.0,1.7969,0.0,1.5304,0.0,0.0,0.0,0.0,0.0,0.0,0.0,0.0,1.3254,1.2426,1.1566,1.2639,1.2448,0.0,1.0314,1.0196,0.0,0.0,0.0,0.0,0.0,0.0,0.0,0.0,0.8512,0.7843,0.7442,0.6961,0.6289,0.754,0.6842,0.4014,0.0592,-0.0864,-0.037,0.0181,0.0264,0.0,0.0,0.0,0.0,0.0,0.0,0.0,0.0,0.0,0.0,0.0,0.0,0.0,0.0,0.0,0.0,0.0,0.0,0.0,0.0,0.0,0.0,0.0,1.1951,0.0,0.0,0.0,0.0,0.0,0.0,0.0,0.0,0.0,1.2242,1.1652,1.0667,0.9398,0.8994,0.7828,0.4833,0.0,0.0,0.0,0.0,0.0,0.0,0.0,-0.5108,-0.6288,-0.6426,-0.7084,-0.9201,-1.1649,-1.3519,-1.4103,0.0,0.0,-1.4319,-1.459,-1.5032,-1.4518,-1.4851,-1.5054,-1.4251,-1.5002,-1.6064,0.0,0.0,0.0,0.0,0.0,0.0,0.0,0.0,1.5611,1.5314,0.0,1.2417,0.0,0.0,0.0,0.0,1.3922,1.3926,0.0,0.0,0.8196,0.8811,0.8592,0.965,0.9399,0.8004,0.731,0.6893,0.6744,0.7444,0.0,0.0,0.0,0.0,0.0,0.0,0.5913,0.5101,0.4634,0.3837,0.2804,0.4425,0.3827,0.0804,-0.0099,-0.0784,-0.1368,-0.13,-0.1528,-0.2057,-0.1723,0.0,0.0,0.0,0.0,0.0,0.0,0.0,0.0,0.0,0.0,0.0,0.0,0.0,0.0,0.0,0.0,0.0,0.0,0.0,0.0,1.0173,0.0,0.0,0.0,0.0,0.0,0.0,0.0,0.0,0.0,0.0,0.9929,0.9376,0.8171,0.6497,0.0,0.0,0.0,0.0,-0.3062,-0.5021,-0.6694,-0.8605,-1.1233,-1.1845,-1.219,-1.2717,0.0,0.0,-1.4506,-1.6285,-1.7422,-1.8069,-1.8812,-1.8524,-1.587,-1.6028,-1.656,-1.685,-1.7272,-1.7588,-1.8147,-1.8757,-1.9683,0.8758,0.0,0.0,0.0,0.0,1.1562,1.1819,1.2175,1.3311,1.3105,1.1736,0.9123,0.0,0.0,0.0,0.0,0.0,0.0,0.7698,0.4197,0.5138,0.5597,0.5836,0.7358,0.7569,0.638,0.5964,0.5444,0.4765,0.4246,0.5284,0.771,0.0,0.0,0.0,0.0,0.268,0.1936,0.1479,0.0999,0.0301,0.0402,-0.0503,-0.2421,-0.2005,-0.2185,-0.2941,-0.2892,-0.3091,-0.3409,-0.3099,0.0,0.0,0.0,0.0,0.0,0.0,0.0,0.0,0.0,0.0,0.0,0.0,0.0,0.0,0.0,0.0,0.0,0.0,0.0,0.8973,0.8611,0.8343,0.0,0.0,0.0,0.0,0.0,0.0,0.0,0.0,0.0,0.4092,0.4875,0.4797,0.0,0.0,-0.1581,-0.3786,-0.704,-0.9328,-0.9419,-1.0418,0.0,-1.3491,-1.3697,-1.4107,-1.5002,-1.5441,-1.615,-1.7119,-1.8372,-1.922,-1.9434,-2.0191,-2.0617,-2.0062,-1.9543,-1.9411,-1.9723,-1.9977,-2.0356,-2.0663,-2.1526,-2.2257,0.4845,0.697,0.7905,0.8421,0.8733,0.9245,0.9556,0.9863,1.1141,1.0893,0.933,0.6476,0.6388,0.8542,0.9452,0.0,0.0,0.0,0.4606,0.1878,0.2243,0.2615,0.3206,0.414,0.4131,0.33,0.3191,0.303,0.2727,0.1896,0.286,0.5368,0.0,0.0,-0.0476,0.0194,0.0098,-0.0783,-0.1194,-0.1709,-0.2414,-0.2816,-0.3425,-0.4138,-0.3531,-0.341,-0.3867,-0.3936,-0.405,-0.437,-0.3934,-0.3466,0.0,0.0,0.0,0.0,0.0,0.0,0.0,0.0,0.0,0.0,0.0,0.5805,0.6189,0.0,0.0,0.0,0.7416,0.7383,0.7368,0.7161,0.0,0.0,0.0,0.0,0.0,0.0,0.0,0.3313,0.244,0.1254,-0.0462,-0.0585,-0.0711,-0.1563,-0.3679,-0.5961,-0.8071,0.0,-1.3119,-1.3058,-1.3858,-1.4856,-1.5773,-1.6159,-1.6538,-1.7303,-1.8195,-1.8994,-1.923,-2.0027,-2.0656,-2.0784,-2.1214,-2.1647,-2.1951,-2.1434,-2.1181,-2.1577,-2.1881,-2.216,-2.2328,-2.3033,-2.3667,0.2201,0.2914,0.519,0.6167,0.6363,0.7211,0.7539,0.7762,0.9151,0.8841,0.7032,0.4321,0.4384,0.6542,0.7284,0.0,0.2948,0.2899,0.1728,-0.031,-0.0422,-0.0215,0.0437,0.0333,-0.011,-0.0532,-0.0426,-0.0,0.0607,0.0101,0.0909,0.2727,0.0584,-0.1147,-0.2491,-0.1946,-0.2059,-0.3041,-0.3489,-0.4124,-0.4834,-0.514,-0.514,-0.4742,-0.4541,-0.4336,-0.4336,-0.4267,-0.4512,-0.4979,-0.4438,-0.3941,-0.3582,0.0,0.0,0.0,0.0,0.0,0.0,0.0,0.0,0.0,0.0,0.0,0.0,0.0,0.0,0.0,0.604,0.0,0.5427,0.557,0.0,0.0,0.0,0.1842,0.1589,0.108,0.0442,-0.0342,0.0,0.0,-0.4032,-0.6213,-0.7242,-0.6272,-0.8024,-1.0195,-1.2105,-1.3751,-1.5152,-1.6032,-1.7133,-1.7976,-1.8049,-1.8608,-1.9267,-1.9522,-2.0221,-2.068,-2.0889,-2.1225,-2.163,-2.1804,-2.1911,-2.1924,-2.1937,-2.1937,-2.2124,-2.2645,-2.3006,-2.3233,-2.3233,-2.3512,-2.3901,0.2136,0.2674,0.2388,0.2999,0.4229,0.4658,0.5239,0.606,0.6883,0.6469,0.5164,0.338,0.2727,0.2922,0.3891,0.3081,0.0716,-0.0104,-0.0736,-0.1374,-0.2797,-0.2719,-0.1311,-0.1554,-0.176,-0.1811,-0.266,-0.2404,-0.1111,-0.1211,-0.1008,-0.0604,-0.2595,-0.3884,-0.4189,-0.4395,-0.4499,-0.4694,-0.5118,-0.5536,-0.5741,-0.5741,-0.534,-0.4541,-0.4135,-0.3934,-0.383,-0.3914,-0.4051,-0.4127,-0.3989,-0.3602,-0.2987,-0.2648,0.0,0.0,0.0,0.0,0.0,0.0,0.0,0.0,0.0,0.4222,0.4502,0.0,0.531,0.0,0.4746,0.4041,0.3786,0.2864,0.0,0.0,-0.0,-0.0863,-0.1101,-0.2463,-0.3322,-0.3546,-0.5298,-0.6738,-0.7227,-0.8799,-1.0465,-1.1806,-1.2632,-1.3733,-1.5132,-1.6431,-1.7554,-1.8339,-1.8782,-1.932,-1.9764,-2.0371,-2.0589,-2.0729,-2.0856,-2.1009,-2.1075,-2.1089,-2.1243,-2.1309,-2.1323,-2.1403,-2.1617,-2.1657,-2.179,-2.2124,-2.2432,-2.2699,-2.2926,-2.3241,-2.3516,0.0846,0.0595,-0.0,0.0344,0.134,0.2326,0.2994,0.3458,0.4901,0.4607,0.2969,0.2562,0.2129,0.1636,0.1755,0.1146,-0.0,-0.1167,-0.1925,-0.2584,-0.4466,-0.472,-0.3755,-0.3901,-0.3847,-0.3825,-0.4252,-0.3862,-0.2723,-0.2418,-0.2517,-0.3017,-0.4433,-0.5345,-0.5851,-0.5746,-0.5741,-0.5932,-0.6442,-0.6642,-0.6542,-0.6548,-0.5942,-0.4638,-0.41,-0.3785,-0.3685,-0.3657,-0.37,-0.3908,-0.3685,-0.3338,-0.2959,-0.2693,-0.2208,0.0,0.0,0.0,0.0,0.0,0.0,0.0,0.0,0.0,0.0,0.0,0.3313,0.3343,0.2345,0.1507,0.1355,0.0316,-0.064,-0.1302,-0.298,-0.4052,-0.4032,-0.5122,-0.6042,-0.635,-0.7583,-0.8711,-0.9462,-1.0561,-1.2141,-1.4216,-1.513,-1.6076,-1.7359,-1.8506,-1.9234,-1.9739,-2.0118,-2.0335,-2.0729,-2.0982,-2.1109,-2.1109,-2.1109,-2.1109,-2.1109,-2.1109,-2.1109,-2.1109,-2.1109,-2.1149,-2.1323,-2.1363,-2.1456,-2.1724,-2.1911,-2.2124,-2.2418,-2.2606,-2.2741,-0.098,-0.217,-0.2136,-0.1868,-0.1608,-0.0113,0.0559,0.0783,0.2855,0.2582,0.0527,0.1539,0.174,0.135,0.0418,-0.0,-0.0,-0.1285,-0.2486,-0.3726,-0.5494,-0.6313,-0.627,-0.5935,-0.5937,-0.5946,-0.5413,-0.4794,-0.4228,-0.3726,-0.4028,-0.5035,-0.5536,-0.6242,-0.7253,-0.6559,-0.6458,-0.6942,-0.7447,-0.754,-0.7235,-0.7353,-0.6548,-0.483,-0.4058,-0.3629,-0.3531,-0.3178,-0.3236,-0.361,-0.3179,-0.2962,-0.2859,-0.2756,-0.2263,0.0,-0.0427,0.0,0.0,0.0,0.0,0.0,0.0,0.0,0.0,0.1301,0.0761,-0.0,-0.0807,-0.1439,-0.1806,-0.2272,-0.2971,-0.3807,-0.5821,-0.7006,-0.6712,-0.7225,-0.7801,-0.8647,-0.8902,-0.9532,-1.0848,-1.178,-1.2914,-1.4362,-1.5664,-1.6947,-1.8536,-1.9431,-2.0081,-2.0602,-2.0856,-2.0982,-2.1109,-2.1109,-2.1109,-2.1109,-2.1109,-2.1109,-2.1109,-2.1109,-2.1109,-2.1109,-2.1109,-2.1109,-2.1109,-2.1109,-2.1203,-2.1443,-2.151,-2.163,-2.1937,-2.2031,-2.1991,-0.2326,-0.3256,-0.3322,-0.35,-0.3673,-0.361,-0.2461,-0.0559,-0.0108,-0.0629,-0.1632,-0.0617,-0.0,0.0208,0.0107,-0.0,-0.0,-0.1215,-0.2448,-0.3681,-0.5922,-0.7276,-0.7516,-0.6609,-0.627,-0.6273,-0.5735,-0.5426,-0.5331,-0.524,-0.5441,-0.6137,-0.7054,-0.7659,-0.7865,0.0,0.0,0.0,-0.7839,-0.764,-0.7235,-0.726,-0.6253,-0.4232,-0.2771,0.0,-0.2061,-0.212,-0.2082,-0.1955,-0.2134,0.0,0.0,0.0,0.0,0.0,0.0,0.0,0.0,0.0,0.0,0.0,-0.2536,-0.1784,-0.0284,-0.107,-0.2088,-0.3115,-0.4236,-0.5092,-0.553,-0.5402,-0.5485,-0.5917,-0.6905,-0.7762,-0.7817,-0.8503,-0.9117,-0.9405,-0.958,-1.0069,-1.0826,-1.1423,-1.2271,-1.384,-1.4782,-1.5944,-1.7507,-1.9048,-2.0208,-2.0602,-2.0856,-2.1109,-2.1109,-2.1109,-2.1109,-2.1109,-2.1109,-2.1109,-2.1109,-2.1109,-2.1109,-2.1109,-2.1109,-2.1096,-2.1096,-2.1109,-2.1096,-2.1189,-2.1189,-2.1349,-2.1871,-2.1977,-2.1991,-0.2693,-0.3618,-0.3677,-0.3966,0.0,-0.5073,-0.4697,-0.3684,-0.2719,-0.2865,-0.384,-0.2589,-0.2092,-0.2236,-0.1302,-0.0879,-0.0886,-0.1564,-0.213,-0.28,-0.5497,-0.7182,-0.7955,-0.7282,-0.7035,-0.7012,-0.6373,-0.6049,-0.5952,-0.5847,-0.5741,-0.5627,-0.6548,-0.6948,-0.6942,-0.7101,-0.744,-0.8153,-0.8079,-0.7739,-0.7235,-0.6954,-0.5947,-0.4228,-0.2474,0.0,0.0,0.0,0.0,0.0,0.0,0.0,0.0,-0.1192,0.0,-0.082,-0.0821,-0.0824,-0.0833,-0.1321,-0.2107,-0.3095,-0.3707,-0.361,-0.2702,-0.3592,-0.4504,-0.5167,-0.5936,-0.6609,-0.6843,-0.6837,-0.6945,-0.7295,-0.7931,-0.8546,-0.8738,-0.9169,-0.9638,-0.9771,-0.9921,-1.0259,-1.087,-1.1027,-1.1736,-1.2791,-1.3604,-1.4632,-1.6188,-1.807,-1.9571,-2.0475,-2.0856,-2.1109,-2.1109,-2.1109,-2.1096,-2.1109,-2.1109,-2.1109,-2.1109,-2.1109,-2.1109,-2.1096,-2.1002,-2.0895,-2.0882,-2.0788,-2.0668,-2.0695,-2.0788,-2.0962,-2.1296,-2.1456,-2.155,-0.2682,-0.3717,-0.3777,-0.4409,-0.5244,-0.5846,-0.6371,-0.6816,0.0,0.0,0.0,-0.4414,-0.4146,-0.448,-0.296,-0.2101,-0.2018,-0.1794,-0.1794,-0.1903,-0.4819,-0.672,-0.7802,-0.7575,-0.7437,-0.7293,-0.6658,-0.6241,-0.6052,-0.5646,-0.514,-0.4626,-0.5231,-0.5746,-0.5856,-0.6142,-0.6799,-0.784,-0.7811,-0.754,-0.7141,-0.6748,-0.5842,-0.4529,-0.287,-0.1961,-0.1865,-0.1734,-0.1621,-0.1525,-0.0763,-0.0286,-0.0286,-0.1144,-0.1718,-0.1908,-0.1913,-0.1917,-0.2014,-0.205,-0.2564,-0.3546,-0.4495,-0.5001,-0.5023,-0.5698,-0.6266,-0.6679,-0.7028,-0.7374,-0.7482,-0.7826,-0.8058,-0.8171,-0.8784,-0.9287,-0.9405,-0.9566,-0.9869,-0.9985,-0.9998,-1.0066,-1.0594,-1.0615,-1.0933,-1.1705,-1.2515,-1.3413,-1.5091,-1.7229,-1.9132,-2.0142,-2.0631,-2.0949,-2.1015,-2.0935,-2.0975,-2.1002,-2.0962,-2.0949,-2.0949,-2.0949,-2.0949,-2.0895,-2.0748,-2.0628,-2.0575,-2.0428,-2.0241,-2.0241,-2.0428,-2.0601,-2.0615,-2.0788,-2.0989,-0.2519,-0.3777,-0.4521,-0.5358,-0.6172,-0.6943,-0.7493,-0.7703,-0.6593,-0.6593,-0.7246,-0.6246,-0.5534,-0.513,-0.4429,-0.3572,-0.2576,-0.2015,-0.1791,-0.1903,-0.4372,-0.6005,-0.6904,-0.679,-0.6557,-0.6142,-0.5822,-0.5458,-0.4951,-0.4031,-0.3525,-0.3519,-0.4124,-0.4972,-0.5858,-0.5785,-0.5987,-0.6611,-0.6805,-0.6942,-0.6842,-0.6853,-0.6253,-0.483,-0.3959,-0.3433,-0.2943,-0.2406,-0.2,-0.2,-0.1621,-0.1335,-0.143,-0.1527,-0.2002,-0.2861,-0.3001,-0.3226,-0.3619,-0.3778,-0.4318,-0.5214,-0.5522,-0.5727,-0.5827,-0.6529,-0.72,-0.7756,-0.8075,-0.8355,-0.8608,-0.8838,-0.8931,-0.8977,-0.9319,-0.9493,-0.9526,-0.9747,-0.9822,-0.9863,-0.9849,-0.9917,-1.0053,-1.0086,-1.0385,-1.0904,-1.1703,-1.2826,-1.4972,-1.7236,-1.8889,-1.9749,-2.0117,-2.0468,-2.0655,-2.0508,-2.0521,-2.0708,-2.0535,-2.0428,-2.0428,-2.0428,-2.0428,-2.0374,-2.0347,-2.0307,-2.0294,-2.0267,-2.0187,-2.0174,-2.0241,-2.0294,-2.0294,-2.0361,-2.0535,-0.2271,-0.3646,-0.4277,-0.5225,-0.6376,-0.7598,-0.8269,-0.8484,-0.7987,-0.8041,-0.8215,-0.7317,-0.6572,-0.6083,-0.5686,-0.5039,-0.4145,-0.3248,-0.28,-0.2912,-0.4439,-0.5612,-0.633,-0.6158,-0.584,-0.5494,-0.5184,-0.4519,-0.3537,-0.3025,-0.262,-0.2416,-0.3528,-0.4358,-0.4794,-0.4455,-0.4552,-0.4993,-0.6062,-0.6642,-0.6848,-0.6853,-0.6448,-0.5636,-0.5088,-0.4476,-0.4079,-0.3552,-0.3144,-0.275,-0.2556,-0.256,-0.2855,-0.2951,-0.3245,-0.3736,-0.3963,-0.4182,-0.438,-0.4914,-0.5436,-0.5732,-0.6331,-0.6637,-0.6842,-0.7316,-0.7878,-0.8269,-0.8474,-0.8736,-0.8927,-0.9001,-0.9069,-0.9144,-0.9286,-0.9429,-0.9585,-0.9659,-0.9734,-0.9802,-0.9822,-0.9849,-0.9917,-0.9924,-0.9985,-1.0371,-1.115,-1.264,-1.4242,-1.5978,-1.7588,-1.8947,-1.9633,-2.0051,-2.0279,-2.0334,-2.0307,-2.0428,-2.0321,-2.0241,-2.0241,-2.0227,-2.0227,-2.0214,-2.012,-2.0013,-2.0,-1.9867,-1.9786,-1.9786,-1.9907,-1.9973,-2.0,-2.0107,-2.0321,-0.1783,-0.3277,-0.3911,-0.4983,-0.6487,-0.7709,-0.8491,-0.8836,-0.883,-0.8836,-0.8836,-0.8053,-0.7512,-0.7043,-0.6715,-0.6274,-0.5493,-0.4148,-0.358,-0.3672,-0.4508,-0.5114,-0.5392,-0.5316,-0.5026,-0.4644,-0.4328,-0.348,-0.2324,-0.2322,-0.2118,-0.1917,-0.3027,-0.3638,-0.3638,-0.3332,-0.333,-0.383,-0.5236,-0.6237,-0.6642,-0.6742,-0.6742,-0.6437,-0.6137,-0.5636,-0.5135,-0.4939,-0.4437,-0.3927,-0.3729,-0.3934,-0.434,-0.4537,-0.4638,-0.4738,-0.4935,-0.5135,-0.5135,-0.5636,-0.5937,-0.6032,-0.6736,-0.7241,-0.7353,-0.7642,-0.8071,-0.8425,-0.8601,-0.8764,-0.8866,-0.8927,-0.8988,-0.9089,-0.9137,-0.9252,-0.9462,-0.9537,-0.9598,-0.9707,-0.972,-0.9713,-0.972,-0.972,-0.9774,-1.0148,-1.108,-1.2208,-1.3405,-1.448,-1.5883,-1.7455,-1.8713,-1.9331,-1.9611,-1.9572,-1.9559,-1.9611,-1.9559,-1.9507,-1.9614,-1.9773,-1.9907,-1.9854,-1.984,-1.972,-1.9679,-1.9546,-1.9426,-1.9439,-1.9586,-1.9693,-1.9706,-1.984,-2.0094,-0.1287,-0.2187,-0.3734,-0.527,-0.6604,-0.7154,-0.7943,-0.8739,-0.8608,-0.8712,-0.883,-0.8809,-0.8361,-0.7937,-0.7832,-0.7165,-0.6051,-0.4369,-0.3556,-0.3622,-0.4157,-0.4085,-0.3656,-0.4053,-0.4013,-0.3448,-0.3038,-0.2532,-0.1819,-0.2122,-0.2223,-0.2322,-0.2523,-0.2523,-0.2523,-0.2725,-0.3128,-0.3629,-0.4533,-0.5336,-0.6042,-0.6542,-0.6848,-0.6742,-0.7153,-0.6948,-0.6237,-0.6242,-0.6047,-0.5741,-0.5436,-0.5436,-0.5436,-0.5436,-0.5636,-0.5842,-0.5842,-0.6042,-0.6237,-0.5837,-0.5837,-0.6337,-0.6742,-0.6948,-0.6842,-0.726,-0.7724,-0.8186,-0.854,-0.8696,-0.8737,-0.8852,-0.8933,-0.8974,-0.9076,-0.9171,-0.9218,-0.932,-0.9408,-0.9415,-0.9456,-0.9422,-0.9456,-0.9456,-0.9621,-1.001,-1.0477,-1.1261,-1.2234,-1.2946,-1.3885,-1.5277,-1.6606,-1.7672,-1.8056,-1.7933,-1.7958,-1.808,-1.8183,-1.8227,-1.8345,-1.866,-1.8959,-1.892,-1.9179,-1.9243,-1.9256,-1.9372,-1.9345,-1.9305,-1.9372,-1.9426,-1.9412,-1.9479,-1.9666,-0.162,-0.1838,-0.2596,-0.3695,-0.492,-0.5922,-0.6937,-0.7838,-0.8159,-0.8491,-0.8816,-0.8845,-0.8626,-0.8257,-0.8084,-0.7315,-0.6255,-0.4388,-0.3159,-0.2615,-0.3318,-0.347,-0.3316,-0.3485,-0.3456,-0.3131,-0.2727,-0.2223,-0.1819,-0.2425,-0.2523,-0.2019,-0.1918,-0.1918,-0.2019,-0.2423,-0.3027,-0.3732,-0.4634,-0.5436,-0.6237,-0.6736,-0.7141,-0.7441,-0.7547,-0.7447,-0.7141,-0.6848,-0.6548,-0.6442,-0.6237,-0.6037,-0.6037,-0.6237,-0.6342,-0.6442,-0.6642,-0.6736,-0.6836,-0.6337,-0.6037,-0.5837,-0.6037,-0.6137,-0.6037,-0.6337,-0.6765,-0.7232,-0.7917,-0.8513,-0.8676,-0.8771,-0.8838,-0.892,-0.8994,-0.9055,-0.915,-0.9205,-0.9279,-0.9361,-0.9381,-0.9374,-0.9381,-0.9381,-0.9525,-0.9938,-1.0126,-1.0635,-1.1334,-1.1879,-1.2421,-1.3131,-1.4074,-1.5226,-1.6594,-1.6949,-1.6926,-1.6973,-1.7067,-1.7103,-1.7301,-1.731,-1.7584,-1.7827,-1.7944,-1.797,-1.8032,-1.8313,-1.8403,-1.8659,-1.9279,-1.9372,-1.9372,-1.9372,-1.9506,-0.1376,-0.1483,-0.1578,-0.2241,-0.3469,-0.4474,-0.5592,-0.672,-0.7271,-0.8029,-0.8763,-0.8649,-0.8527,-0.8458,-0.8278,-0.7642,-0.6374,-0.484,-0.3204,-0.1931,-0.2517,-0.2585,-0.2361,-0.2743,-0.2828,-0.2727,-0.2223,-0.192,-0.192,-0.2725,-0.2725,-0.192,-0.1718,-0.1617,-0.1718,-0.2322,-0.3027,-0.3635,-0.4634,-0.5532,-0.6137,-0.6836,-0.7441,-0.7939,-0.7846,-0.7746,-0.7739,-0.7341,-0.7141,-0.7141,-0.6942,-0.6836,-0.6836,-0.7042,-0.7048,-0.7042,-0.6942,-0.6836,-0.6736,-0.6237,-0.5737,-0.5135,-0.5035,-0.4931,-0.4931,-0.5336,-0.5737,-0.5947,-0.6923,-0.7698,-0.8216,-0.8408,-0.8608,-0.8742,-0.8769,-0.8933,-0.9069,-0.9096,-0.913,-0.9239,-0.9232,-0.9259,-0.9266,-0.9279,-0.9428,-0.9666,-0.9701,-0.9961,-1.0431,-1.0872,-1.1176,-1.1645,-1.1879,-1.3002,-1.4928,-1.5248,-1.5386,-1.5365,-1.5332,-1.5555,-1.5959,-1.5907,-1.6161,-1.648,-1.6428,-1.6606,-1.6891,-1.7126,-1.7313,-1.7932,-1.8402,-1.8659,-1.8466,-1.8685,-1.8764,-0.0456,-0.0899,-0.0897,-0.157,-0.2688,-0.2688,-0.3695,-0.5377,-0.6149,-0.7205,-0.8323,-0.8386,-0.8421,-0.8513,-0.8625,-0.8104,-0.6823,-0.5744,-0.4001,-0.1978,-0.1763,-0.1232,-0.0303,-0.1515,-0.2021,-0.1718,-0.1516,-0.1615,-0.232,-0.2927,-0.2927,-0.2322,-0.2122,-0.1819,-0.1718,-0.2423,-0.2927,-0.333,-0.4537,-0.534,-0.5737,-0.6542,-0.7347,-0.7839,-0.7939,-0.7945,-0.7939,-0.7939,-0.7939,-0.7945,-0.7839,-0.7839,-0.7939,-0.7839,-0.7739,-0.7441,-0.6542,-0.5937,-0.5636,-0.524,-0.4742,-0.4336,-0.3726,-0.3324,-0.3525,-0.4228,-0.4734,-0.4935,-0.5445,-0.6108,-0.6935,-0.7589,-0.813,-0.8265,-0.8507,-0.8791,-0.892,-0.892,-0.8947,-0.8954,-0.8954,-0.8967,-0.8967,-0.9083,-0.9144,-0.9298,-0.9394,-0.9585,-0.9802,-0.9946,-1.0316,-1.0663,-1.0902,-1.1297,-1.2363,-1.3054,-1.2924,-1.2924,-1.3433,-1.3461,-1.3774,-1.4086,-1.4654,-1.5095,-1.5233,-1.5445,-1.585,-1.6109,-1.6369,-1.6742,-1.6992,-1.7178,-1.7365,-1.7236,-1.7334,-0.0113,-0.0336,-0.0336,-0.056,-0.1009,-0.1457,-0.2241,-0.3243,-0.4977,-0.6582,-0.7828,-0.8203,-0.8294,-0.8343,-0.8364,-0.8014,-0.7305,-0.6442,-0.515,-0.3615,-0.2971,-0.2437,-0.2019,-0.1615,-0.1213,-0.1112,-0.1314,-0.1718,-0.212,-0.2523,-0.2523,-0.2324,-0.2122,-0.1819,-0.1819,-0.2523,-0.3229,-0.3528,-0.4734,-0.5536,-0.5636,-0.6553,-0.6853,-0.6537,-0.7247,-0.7553,-0.7241,-0.7547,-0.7739,-0.7746,-0.7945,-0.7939,-0.7746,-0.7441,-0.7141,-0.6842,-0.6037,-0.5331,-0.4834,-0.444,-0.4038,-0.3531,-0.2723,-0.2318,-0.2622,-0.3025,-0.3528,-0.4034,-0.4031,-0.4347,-0.5086,-0.6303,-0.7363,-0.7787,-0.8143,-0.8375,-0.8628,-0.8648,-0.8648,-0.8648,-0.8648,-0.8682,-0.8784,-0.8838,-0.8906,-0.9001,-0.9069,-0.9216,-0.9229,-0.9398,-0.9574,-0.9688,-0.9802,-0.9931,-1.0204,-1.1216,-1.1684,-1.1684,-1.1923,-1.2144,-1.247,-1.2438,-1.2852,-1.317,-1.3456,-1.3608,-1.384,-1.46,-1.4966,-1.5345,-1.5591,-1.5658,-1.6222,-1.5829,-1.608,-0.0,-0.0,-0.0,-0.0,-0.0,-0.0558,-0.1223,-0.1995,-0.3705,-0.5607,-0.7263,-0.7943,-0.8146,-0.8187,-0.8099,-0.7945,-0.7808,-0.7131,-0.629,-0.5328,-0.4358,-0.3833,-0.343,-0.212,-0.1515,-0.1515,-0.1515,-0.1718,-0.2021,-0.212,-0.2221,-0.2225,-0.2021,-0.1819,-0.192,-0.2727,-0.333,-0.3629,-0.4634,-0.5236,-0.5236,-0.5952,-0.5952,-0.534,-0.5741,-0.6242,-0.6542,-0.6948,-0.7247,-0.7247,-0.7341,-0.7341,-0.7048,-0.6542,-0.6137,-0.5837,-0.5135,-0.4533,-0.4131,-0.3736,-0.3335,-0.2727,-0.1716,-0.1312,-0.1614,-0.1817,-0.2221,-0.2727,-0.2823,-0.2821,-0.3433,-0.4685,-0.599,-0.7021,-0.7682,-0.802,-0.8374,-0.8492,-0.8492,-0.8499,-0.8506,-0.8547,-0.8621,-0.8682,-0.8757,-0.8859,-0.8899,-0.8933,-0.8954,-0.9015,-0.9083,-0.9083,-0.9195,-0.9195,-0.9441,-1.0055,-1.0416,-1.0424,-1.0689,-1.0956,-1.1078,-1.106,-1.1106,-1.1295,-1.1466,-1.1599,-1.2037,-1.2889,-1.3457,-1.3841,-1.3912,-1.383,-1.4145,-1.4452,-1.4456,-0.0,-0.0,-0.0,-0.0,-0.0,-0.0,-0.0766,-0.1635,-0.2465,-0.4429,-0.6883,-0.7552,-0.7775,-0.7972,-0.7952,-0.7959,-0.7985,-0.7772,-0.7266,-0.6364,-0.5746,-0.524,-0.4742,-0.333,-0.2725,-0.2826,-0.2017,-0.1816,-0.2122,-0.1716,-0.1716,-0.2122,-0.1819,-0.1819,-0.2223,-0.2828,-0.3131,-0.333,-0.4034,-0.4437,-0.434,-0.4642,-0.4541,-0.3937,-0.3729,-0.4232,-0.5741,-0.6147,-0.6342,-0.6337,-0.6437,-0.6237,-0.6042,-0.5532,-0.5131,-0.4834,-0.4239,-0.3635,-0.3229,-0.3133,-0.2629,-0.1819,-0.0707,-0.0,-0.0,-0.0606,-0.0909,-0.1111,-0.1412,-0.1816,-0.232,-0.2927,-0.4166,-0.5975,-0.6924,-0.7492,-0.7994,-0.8361,-0.8472,-0.8445,-0.8431,-0.8465,-0.8506,-0.8574,-0.8662,-0.8743,-0.8832,-0.892,-0.8927,-0.894,-0.8933,-0.8933,-0.8906,-0.8872,-0.8899,-0.8933,-0.8933,-0.9051,-0.9425,-0.969,-0.9943,-0.9994,-1.0113,-1.0311,-1.054,-1.0688,-1.0907,-1.1625,-1.1726,-1.2027,-1.1973,-1.2211,-1.2376,-1.2682,-1.2525,-0.0,-0.0,-0.0,-0.0,-0.0,-0.0,-0.0215,-0.0643,-0.1578,-0.3641,-0.5896,-0.6952,-0.7497,-0.7759,-0.7952,-0.7952,-0.7952,-0.7241,-0.7048,-0.726,-0.6548,-0.6047,-0.555,-0.4336,-0.3327,-0.2826,-0.2019,-0.1617,-0.1617,-0.0909,-0.0909,-0.1617,-0.1415,-0.1617,-0.2326,-0.2725,-0.2927,-0.3027,-0.3531,-0.3729,-0.3531,-0.333,-0.2927,-0.2421,-0.2826,-0.3327,-0.3528,-0.4634,-0.5236,-0.5336,-0.5636,-0.5636,-0.5236,-0.4834,-0.4437,-0.4138,-0.3635,-0.2929,-0.2223,-0.2122,-0.192,-0.1516,-0.0606,-0.0,-0.0,-0.0,-0.0,-0.0,-0.0,-0.0908,-0.1918,-0.2118,-0.3033,-0.5073,-0.5785,-0.6513,-0.7172,-0.7585,-0.7877,-0.7877,-0.8079,-0.8221,-0.8316,-0.8404,-0.8499,-0.8662,-0.8743,-0.8804,-0.8893,-0.8832,-0.8784,-0.8777,-0.8716,-0.8669,-0.8696,-0.8716,-0.8716,-0.8771,-0.8941,-0.9106,-0.923,-0.9265,-0.9375,-0.9596,-0.9706,-0.9926,-1.0036,-1.0257,-1.0468,-1.0688,-1.094,-1.105,-1.1034,-1.0974,-1.0937,-0.0,-0.0,-0.0,-0.0,-0.0,-0.0,-0.0,-0.0,-0.1239,-0.2971,-0.4908,-0.6183,-0.6853,-0.7347,-0.7759,-0.7965,-0.7859,-0.6942,-0.6542,-0.6753,-0.6448,-0.6047,-0.5651,-0.444,-0.343,-0.2725,-0.1918,-0.1617,-0.1516,-0.0606,-0.0404,-0.0909,-0.101,-0.1314,-0.2122,-0.2423,-0.2725,-0.2826,-0.3128,-0.3229,-0.303,-0.2523,-0.1715,-0.1211,-0.1614,-0.212,-0.2423,-0.3229,-0.393,-0.4437,-0.4839,-0.4738,-0.4236,-0.4034,-0.3635,-0.303,-0.2727,-0.2324,-0.1617,-0.1213,-0.101,-0.0909,-0.0404,-0.0,-0.0,-0.0,-0.0,-0.0,-0.0,-0.0404,-0.1111,-0.1615,-0.2219,-0.3425,-0.4533,-0.5532,-0.6342,-0.6842,-0.7147,-0.726,-0.7453,-0.7691,-0.7958,-0.8153,-0.8227,-0.8513,-0.8594,-0.8642,-0.8723,-0.8682,-0.8648,-0.8615,-0.8581,-0.854,-0.8499,-0.8499,-0.8499,-0.8594,-0.8703,-0.8879,-0.8927,-0.901,-0.9154,-0.9154,-0.9265,-0.9375,-0.9485,-0.9596,-0.9706,-0.9816,-1.0036,-0.9926,-0.9926,-0.9926,-0.9979,-0.0,-0.0,-0.0,-0.0,-0.0,-0.0,-0.0,-0.0,-0.112,-0.2423,-0.383,-0.5044,-0.5947,-0.6748,-0.7359,-0.7766,-0.7666,-0.6653,-0.5636,-0.5135,-0.4935,-0.4935,-0.4642,-0.3736,-0.3128,-0.2725,-0.2021,-0.1516,-0.1314,-0.0404,-0.0,-0.0,-0.0606,-0.1011,-0.1617,-0.212,-0.2421,-0.2624,-0.2624,-0.2727,-0.2934,-0.2124,-0.1112,-0.0,-0.0,-0.0808,-0.1819,-0.192,-0.2423,-0.3638,-0.3736,-0.3534,-0.3229,-0.3131,-0.2626,-0.1819,-0.1617,-0.1516,-0.1314,-0.0606,-0.0,-0.0,-0.0,-0.0,-0.0,-0.0,-0.0,-0.0,-0.0,-0.0,-0.0,-0.101,-0.1615,-0.1814,-0.3321,-0.463,-0.5636,-0.5842,-0.6142,-0.6542,-0.6742,-0.6948,-0.7372,-0.756,-0.7827,-0.811,-0.8196,-0.8262,-0.8414,-0.8414,-0.8486,-0.8452,-0.8418,-0.8364,-0.8316,-0.8316,-0.8316,-0.8364,-0.8506,-0.8642,-0.8757,-0.8866,-0.8933,-0.894,-0.894,-0.894,-0.894,-0.9154,-0.9154,-0.9265,-0.9265,-0.894,-0.9044,-0.9265,-0.9272,-0.0,-0.0,-0.0,-0.0,-0.0,-0.0,-0.0,-0.0,-0.1114,-0.1816,-0.2519,-0.383,-0.4738,-0.5441,-0.6358,-0.6865,-0.6559,-0.5746,-0.4634,-0.3626,-0.2922,-0.3224,-0.3729,-0.343,-0.3131,-0.2927,-0.2021,-0.1213,-0.0505,-0.0,-0.0,-0.0,-0.0,-0.0707,-0.1516,-0.1718,-0.2021,-0.2324,-0.2021,-0.192,-0.192,-0.1819,-0.1112,-0.0,-0.0,-0.0,-0.0,-0.0909,-0.1313,-0.2118,-0.2221,-0.2223,-0.2021,-0.2021,-0.1819,-0.1516,-0.0808,-0.0,-0.0,-0.0,-0.0,-0.0,-0.0,-0.0,-0.0,-0.0,-0.0,-0.0,-0.0,-0.0,-0.0,-0.0909,-0.1313,-0.1313,-0.2519,-0.3626,-0.4028,-0.4634,-0.5236,-0.5336,-0.5842,-0.6142,-0.6453,-0.6676,-0.6929,-0.731,-0.7467,-0.762,-0.7865,-0.7943,-0.7904,-0.818,-0.8241,-0.818,-0.814,-0.814,-0.8147,-0.8153,-0.8296,-0.8499,-0.8662,-0.8845,-0.8906,-0.894,-0.894,-0.894,-0.894,-0.9051,-0.894,-0.894,-0.894,-0.894,-0.894,-0.9044,-0.9044,-0.0,-0.0,-0.0,-0.0,-0.0,-0.0,-0.0,-0.0,-0.0606,-0.1111,-0.1512,-0.2418,-0.3428,-0.4332,-0.5044,-0.5555,-0.555,-0.4638,-0.3528,-0.262,-0.1917,-0.2421,-0.3126,-0.3027,-0.2929,-0.3133,-0.2122,-0.1111,-0.0,-0.0,-0.0,-0.0,-0.0,-0.0,-0.0808,-0.1213,-0.1516,-0.192,-0.1718,-0.1415,-0.101,-0.0909,-0.0606,-0.0,-0.0,-0.0,-0.0,-0.0303,-0.0606,-0.0908,-0.0909,-0.0909,-0.0909,-0.0909,-0.0909,-0.0909,-0.0,-0.0,-0.0,-0.0,-0.0,-0.0,-0.0,-0.0,-0.0,-0.0,-0.0,-0.0,-0.0,-0.0,-0.0,-0.0606,-0.0808,-0.0909,-0.1614,-0.2418,-0.2823,-0.3428,-0.383,-0.4131,-0.4533,-0.5035,-0.5336,-0.5636,-0.5967,-0.6316,-0.6636,-0.6782,-0.7021,-0.7184,-0.7357,-0.7541,-0.7737,-0.7598,-0.7685,-0.7785,-0.8006,-0.8006,-0.8193,-0.8465,-0.8621,-0.8832,-0.8899,-0.894,-0.894,-0.894,-0.894,-0.894,-0.894,-0.894,-0.894,-0.894,-0.894,-0.894,-0.894,-0.0,-0.0,-0.0,-0.0,-0.0,-0.0,-0.0,-0.0,-0.0,-0.0303,-0.0807,-0.1411,-0.2421,-0.3428,-0.3836,-0.4243,-0.4541,-0.3531,-0.2624,-0.1817,-0.1515,-0.1817,-0.2523,-0.2425,-0.2528,-0.2629,-0.192,-0.0909,-0.0,-0.0,-0.0,-0.0,-0.0,-0.0,-0.0,-0.0506,-0.0909,-0.1314,-0.1314,-0.0909,-0.0,-0.0,-0.0,-0.0,-0.0,-0.0,-0.0,-0.0,-0.0,-0.0,-0.0,-0.0,-0.0,-0.0,-0.0,-0.0,-0.0,-0.0,-0.0,-0.0,-0.0,-0.0,-0.0,-0.0,-0.0,-0.0,-0.0,-0.0,-0.0,-0.0,-0.0,-0.0,-0.0303,-0.0606,-0.0808,-0.1212,-0.1917,-0.2219,-0.2421,-0.2922,-0.3022,-0.3626,-0.4232,-0.4634,-0.4834,-0.5061,-0.5267,-0.5583,-0.5906,-0.6194,-0.638,-0.667,-0.6759,-0.6954,-0.7147,-0.7447,-0.7679,-0.7918,-0.817,-0.8461,-0.8662,-0.8811,-0.8893,-0.894,-0.894,-0.894,-0.894,-0.894,-0.894,-0.894,-0.894,-0.894,-0.894,-0.894,-0.894,-0.0,-0.0,-0.0,-0.0,-0.0,-0.0,-0.0,-0.0,-0.0,-0.0,-0.0404,-0.1212,-0.1716,-0.212,-0.2929,-0.3433,-0.3433,-0.2423,-0.1718,-0.1617,-0.0606,-0.0707,-0.1313,-0.1618,-0.182,-0.1719,-0.091,-0.0,-0.0,-0.0,-0.0,-0.0,-0.0,-0.0,-0.0,-0.0,-0.0,-0.0,-0.0,-0.0,-0.0,-0.0,-0.0,-0.0,-0.0,-0.0,-0.0,-0.0,-0.0,-0.0,-0.0,-0.0,-0.0,-0.0,-0.0,-0.0,-0.0,-0.0,-0.0,-0.0,-0.0,-0.0,-0.0,-0.0,-0.0,-0.0,-0.0,-0.0,-0.0,-0.0,-0.0,-0.0,-0.0,-0.0,-0.0,-0.0,-0.0505,-0.0909,-0.1211,-0.1513,-0.2017,-0.2622,-0.2924,-0.3632,-0.3833,-0.3827,-0.3927,-0.4228,-0.463,-0.5035,-0.5336,-0.5636,-0.5737,-0.5842,-0.6353,-0.6782,-0.7256,-0.7521,-0.7947,-0.8227,-0.8425,-0.8709,-0.8796,-0.8823,-0.894,-0.894,-0.894,-0.894,-0.894,-0.894,-0.894,-0.894,-0.894,-0.894,-0.894,-0.0,-0.0,-0.0,-0.0,-0.0,-0.0,-0.0,-0.0,-0.0,-0.0,-0.0,-0.0707,-0.101,-0.1314,-0.2019,-0.2425,-0.2221,-0.1313,-0.0808,-0.0707,-0.0202,-0.0202,-0.0405,-0.0713,-0.0819,-0.0,-0.0307,-0.0,-0.0,-0.0,-0.0,-0.0,-0.0,-0.0,-0.0,-0.0,-0.0,-0.0,-0.0,-0.0,-0.0,-0.0,-0.0,-0.0,-0.0,-0.0,-0.0,-0.0,-0.0,-0.0,-0.0,-0.0,-0.0,-0.0,-0.0,-0.0,-0.0,-0.0,-0.0,-0.0,-0.0,-0.0,-0.0,-0.0,-0.0,-0.0,-0.0,-0.0,-0.0,-0.0,-0.0,-0.0,-0.0,-0.0,-0.0,-0.0,-0.0,-0.0,-0.0404,-0.0505,-0.0908,-0.1313,-0.1817,-0.2423,-0.2624,-0.2519,-0.2922,-0.3226,-0.3528,-0.393,-0.4232,-0.4433,-0.4533,-0.4834,-0.545,-0.6012,-0.6643,-0.7049,-0.7416,-0.7756,-0.7956,-0.8329,-0.8706,-0.8823,-0.8823,-0.894,-0.894,-0.894,-0.894,-0.894,-0.894,-0.894,-0.894,-0.894,-0.894,-0.0,-0.0,-0.0,-0.0,-0.0,-0.0,-0.0,-0.0,-0.0,-0.0,-0.0,-0.0,-0.0404,-0.0707,-0.1112,-0.1314,-0.1112,-0.0,-0.0,-0.0,-0.0,-0.0,-0.0,-0.0,-0.0,-0.0,-0.0,-0.0,-0.0,-0.0,-0.0,-0.0,-0.0,-0.0,-0.0,-0.0,-0.0,-0.0,-0.0,-0.0,-0.0,-0.0,-0.0,-0.0,-0.0,-0.0,-0.0,-0.0,-0.0,-0.0,-0.0,-0.0,-0.0,-0.0,-0.0,-0.0,-0.0,-0.0,-0.0,-0.0,-0.0,-0.0,-0.0,-0.0,-0.0,-0.0,-0.0,-0.0,-0.0,-0.0,-0.0,-0.0,-0.0,-0.0,-0.0,-0.0,-0.0,-0.0,-0.0,-0.0,-0.0,-0.0606,-0.0707,-0.101,-0.111,-0.0,-0.0,-0.2219,-0.2523,-0.2725,-0.2924,-0.3327,-0.3425,-0.3859,-0.4482,-0.479,-0.5501,-0.6201,-0.665,-0.7051,-0.7348,-0.7802,-0.8152,-0.8712,-0.8823,-0.8823,-0.894,-0.894,-0.894,-0.894,-0.894,-0.894,-0.894,-0.894,-0.894,-0.0,-0.0,-0.0,-0.0,-0.0,-0.0,-0.0,-0.0,-0.0,-0.0,-0.0,-0.0,-0.0,-0.0,-0.0,-0.0,-0.0,-0.0,-0.0,-0.0,-0.0,-0.0,-0.0,-0.0,-0.0,-0.0,-0.0,-0.0,-0.0,-0.0,-0.0,-0.0,-0.0,-0.0,-0.0,-0.0,-0.0,-0.0,-0.0,-0.0,-0.0,-0.0,-0.0,-0.0,-0.0,-0.0,-0.0,-0.0,-0.0,-0.0,-0.0,-0.0,-0.0,-0.0,-0.0,-0.0,-0.0,-0.0,-0.0,-0.0,-0.0,-0.0,-0.0,-0.0,-0.0,-0.0,-0.0,-0.0,-0.0,-0.0,-0.0,-0.0,-0.0,-0.0,-0.0,-0.0,-0.0,-0.0,-0.0,-0.0,-0.0,-0.0,-0.0,-0.0,-0.0,-0.0,-0.0,-0.0,-0.1313,-0.1414,-0.1513,-0.1917,-0.232,-0.2854,-0.35,-0.3713,-0.4118,-0.5002,-0.5503,-0.5987,-0.6366,-0.7038,-0.7598,-0.782,-0.8484,-0.8823,-0.8823,-0.8823,-0.894,-0.894,-0.894,-0.894,-0.894,-0.894,-0.894,-0.0,-0.0,-0.0,-0.0,-0.0,-0.0,-0.0,-0.0,-0.0,-0.0,-0.0,-0.0,-0.0,-0.0,-0.0,-0.0,-0.0,-0.0,-0.0,-0.0,-0.0,-0.0,-0.0,-0.0,-0.0,-0.0,-0.0,-0.0,-0.0,-0.0,-0.0,-0.0,-0.0,-0.0,-0.0,-0.0,-0.0,-0.0,-0.0,-0.0,-0.0,-0.0,-0.0,-0.0,-0.0,-0.0,-0.0,-0.0,-0.0,-0.0,-0.0,-0.0,-0.0,-0.0,-0.0,-0.0,-0.0,-0.0,-0.0,-0.0,-0.0,-0.0,-0.0,-0.0,-0.0,-0.0,-0.0,-0.0,-0.0,-0.0,-0.0,-0.0,-0.0,-0.0,-0.0,-0.0,-0.0,-0.0,-0.0,-0.0,-0.0,-0.0,-0.0,-0.0,-0.0,-0.0,-0.0,-0.0,-0.0,-0.0,-0.0,-0.0911,-0.1421,-0.1751,-0.2296,-0.2568,-0.2855,-0.3644,-0.4208,-0.4686,-0.5146,-0.5704,-0.626,-0.67,-0.7482,-0.8263,-0.8712,-0.8712,-0.8823,-0.883,-0.883,-0.883,-0.894,-0.894,-0.883,-0.0,-0.0,-0.0,-0.0,-0.0,-0.0,-0.0,-0.0,-0.0,-0.0,-0.0,-0.0,-0.0,-0.0,-0.0,-0.0,-0.0,-0.0,-0.0,-0.0,-0.0,-0.0,-0.0,-0.0,-0.0,-0.0,-0.0,-0.0,-0.0,-0.0,-0.0,-0.0,-0.0,-0.0,-0.0,-0.0,-0.0,-0.0,-0.0,-0.0,-0.0,-0.0,-0.0,-0.0,-0.0,-0.0,-0.0,-0.0,-0.0,-0.0,-0.0,-0.0,-0.0,-0.0,-0.0,-0.0,-0.0,-0.0,-0.0,-0.0,-0.0,-0.0,-0.0,-0.0,-0.0,-0.0,-0.0,-0.0,-0.0,-0.0,-0.0,-0.0,-0.0,-0.0,-0.0,-0.0,-0.0,-0.0,-0.0,-0.0,-0.0,-0.0,-0.0,-0.0,-0.0,-0.0,-0.0,-0.0,-0.0,-0.0,-0.0,-0.0,-0.0512,-0.0625,-0.1058,-0.1505,-0.1759,-0.2338,-0.2785,-0.3131,-0.3695,-0.4254,-0.4808,-0.5365,-0.6482,-0.7376,-0.7931,-0.838,-0.838,-0.8387,-0.8608,-0.8608,-0.8387,-0.838,-0.8269,-0.0,-0.0,-0.0,-0.0,-0.0,-0.0,-0.0,-0.0,-0.0,-0.0,-0.0,-0.0,-0.0,-0.0,-0.0,-0.0,-0.0,-0.0,-0.0,-0.0,-0.0,-0.0,-0.0,-0.0,-0.0,-0.0,-0.0,-0.0,-0.0,-0.0,-0.0,-0.0,-0.0,-0.0,-0.0,-0.0,-0.0,-0.0,-0.0,-0.0,-0.0,-0.0,-0.0,-0.0,-0.0,-0.0,-0.0,-0.0,-0.0,-0.0,-0.0,-0.0,-0.0,-0.0,-0.0,-0.0,-0.0,-0.0,-0.0,-0.0,-0.0,-0.0,-0.0,-0.0,-0.0,-0.0,-0.0,-0.0,-0.0,-0.0,-0.0,-0.0,-0.0,-0.0,-0.0,-0.0,-0.0,-0.0,-0.0,-0.0,-0.0,-0.0,-0.0,-0.0,-0.0,-0.0,-0.0,-0.0,-0.0,-0.0,-0.0,-0.0,-0.0,-0.0,-0.0,-0.0,-0.0,-0.0,-0.0,-0.0,-0.2241,-0.2798,-0.3245,-0.3916,-0.5142,-0.626,-0.6821,-0.7271,-0.7604,-0.7826,-0.7826,-0.7826,-0.7721,-0.7721,-0.7715,-0.0,-0.0,-0.0,-0.0,-0.0,-0.0,-0.0,-0.0,-0.0,-0.0,-0.0,-0.0,-0.0,-0.0,-0.0,-0.0,-0.0,-0.0,-0.0,-0.0,-0.0,-0.0,-0.0,-0.0,-0.0,-0.0,-0.0,-0.0,-0.0,-0.0,-0.0,-0.0,-0.0,-0.0,-0.0,-0.0,-0.0,-0.0,-0.0,-0.0,-0.0,-0.0,-0.0,-0.0,-0.0,-0.0,-0.0,-0.0,-0.0,-0.0,-0.0,-0.0,-0.0,-0.0,-0.0,-0.0,-0.0,-0.0,-0.0,-0.0,-0.0,-0.0,-0.0,-0.0,-0.0,-0.0,-0.0,-0.0,-0.0,-0.0,-0.0,-0.0,-0.0,-0.0,-0.0,-0.0,-0.0,-0.0,-0.0,-0.0,-0.0,-0.0,-0.0,-0.0,-0.0,-0.0,-0.0,-0.0,-0.0,-0.0,-0.0,-0.0,-0.0,-0.0,-0.0,-0.0,-0.0,-0.0,-0.0,-0.0,-0.0,-0.1345,-0.1905,-0.2464,-0.3357,-0.4477,-0.5485,-0.6154,-0.6599,-0.6821,-0.6932,-0.6932,-0.6826,-0.6831,-0.6862,-0.0,-0.0,-0.0,-0.0,-0.0,-0.0,-0.0,-0.0,-0.0,-0.0,-0.0,-0.0,-0.0,-0.0,-0.0,-0.0,-0.0,-0.0,-0.0,-0.0,-0.0,-0.0,-0.0,-0.0,-0.0,-0.0,-0.0,-0.0,-0.0,-0.0,-0.0,-0.0,-0.0,-0.0,-0.0,-0.0,-0.0,-0.0,-0.0,-0.0,-0.0,-0.0,-0.0,-0.0,-0.0,-0.0,-0.0,-0.0,-0.0,-0.0,-0.0,-0.0,-0.0,-0.0,-0.0,-0.0,-0.0,-0.0,-0.0,-0.0,-0.0,-0.0,0.0303,-0.0,-0.0,0.0303,-0.0,-0.0,-0.0,-0.0,-0.0,-0.0,-0.0,-0.0,-0.0,-0.0,-0.0,-0.0,-0.0,-0.0,-0.0,-0.0,-0.0,-0.0,-0.0,-0.0,-0.0,-0.0,-0.0,-0.0,-0.0,-0.0,-0.0,-0.0,-0.0,-0.0,-0.0,-0.0,-0.0,-0.0,-0.0,-0.0,-0.0896,-0.1457,-0.1906,-0.2464,-0.336,-0.4589,-0.5592,-0.5481,-0.5481,-0.5819,-0.5931,-0.5833,-0.5782,-0.0,-0.0,-0.0,-0.0,-0.0,-0.0,-0.0,-0.0,-0.0,-0.0,-0.0,-0.0,-0.0,-0.0,-0.0,-0.0,-0.0,-0.0,-0.0,-0.0,-0.0,-0.0,-0.0,-0.0,-0.0,-0.0,-0.0,-0.0,-0.0,-0.0,-0.0,-0.0,-0.0,-0.0,-0.0,-0.0,-0.0,-0.0,-0.0,-0.0,-0.0,-0.0,-0.0,-0.0,-0.0,-0.0,-0.0,-0.0,-0.0,-0.0,-0.0,-0.0,-0.0,0.0909,0.1212,0.1414,0.1515,0.1515,0.1515,0.0808,-0.0,-0.0,0.0707,0.1313,0.1313,0.101,0.0606,0.0303,-0.0,-0.0,0.1111,0.1516,0.1515,0.1515,0.1615,0.1716,0.1716,-0.0,-0.0,-0.0,0.1312,0.1313,0.0913,0.0812,0.0204,-0.0,-0.0,-0.0,-0.0,-0.0,-0.0,-0.0,-0.0,-0.0,-0.0,-0.0,-0.0,-0.0,-0.0,-0.0,-0.0,-0.0,-0.0,-0.0449,-0.1012,-0.1122,-0.146,-0.2928,-0.3942,-0.3924,-0.4142,-0.4487,-0.4511,-0.4418,-0.4485,0.0456,0.0459,0.0735,0.0559,-0.0,-0.0,-0.0,-0.0,-0.0,-0.0,-0.0,-0.0,-0.0,-0.0,-0.0,-0.0,-0.0,-0.0,-0.0,-0.0,-0.0,-0.0,0.0707,0.101,-0.0,0.101,0.0909,0.0505,-0.0,0.0714,0.1645,-0.0,0.0944,-0.0,-0.0,-0.0,-0.0,-0.0,-0.0,-0.0,-0.0,-0.0,-0.0,-0.0,-0.0,-0.0,-0.0,-0.0,-0.0,0.101,0.101,0.101,0.1009,0.1515,0.2019,0.2526,0.2526,0.2727,0.2727,0.1817,0.1009,0.1009,0.1412,0.1816,0.212,0.1918,0.1716,0.1513,0.111,0.1312,0.1513,0.2221,0.2626,0.2626,0.2727,0.2929,0.303,0.2929,0.3038,0.2941,0.2833,0.2725,0.2232,0.1735,0.0923,-0.0,-0.0,-0.0,-0.0,-0.0,-0.0,-0.0,-0.0,-0.0,-0.0,-0.0,-0.0,-0.0,-0.0,-0.0,-0.0,-0.0,-0.0,-0.0,-0.0,-0.0569,-0.114,-0.1823,-0.2496,-0.2822,-0.304,-0.3155,-0.3176,-0.3091,-0.2911,0.1256,0.1346,0.1705,0.1276,0.0468,0.0281,0.0187,0.0187,-0.0,0.0288,0.0491,0.0299,0.0101,-0.0,-0.0,-0.0,-0.0,-0.0,-0.0,-0.0,-0.0,0.1313,0.1819,0.2122,0.212,0.2122,0.2223,0.1917,0.1211,0.1926,0.2885,0.3145,-0.0,-0.0,-0.0,0.0556,0.0561,0.0561,0.056,0.0559,-0.0,-0.0,-0.0,-0.0,-0.0,-0.0,0.1515,0.1817,0.2122,0.2122,0.2223,0.2322,0.232,0.2421,0.2823,0.3229,0.3632,0.3836,0.3732,0.3229,0.232,0.2423,0.2521,0.2723,0.2823,0.2924,0.2823,0.2521,0.2217,0.2116,0.232,0.3128,0.3632,0.3632,0.3833,0.3934,0.4253,0.4358,0.4478,0.4489,0.4289,0.3911,0.3523,0.2924,0.178,0.084,-0.0,-0.0,-0.0,-0.0,-0.0,-0.0,-0.0,-0.0,-0.0,-0.0,-0.0,-0.0,-0.0,-0.0,-0.0,-0.0,-0.0,-0.0,-0.0,-0.0,-0.0,-0.0,-0.0,-0.2043,-0.2158,-0.239,-0.2179,-0.2086,-0.1531,0.2422,0.2875,0.2872,0.2336,0.1444,0.0899,0.0811,0.0907,0.0829,0.104,0.1462,0.108,0.0596,-0.0,-0.0,-0.0,-0.0,-0.0,-0.0,-0.0,0.2021,0.2932,0.3131,0.3128,0.3128,0.3332,0.3433,0.333,0.2927,0.3465,0.4368,0.4869,0.4179,0.3268,0.1971,0.178,0.1794,0.1794,0.1794,0.1903,0.189,0.1845,0.1818,0.1686,0.1751,0.193,0.2221,0.2725,0.3027,0.3229,0.3534,0.3736,0.3836,0.3934,0.4135,0.4336,0.4638,0.4734,0.4734,0.4239,0.4038,0.3836,0.383,0.4031,0.4135,0.4031,0.383,0.3626,0.3324,0.3528,0.393,0.4343,0.4549,0.4657,0.4867,0.5095,0.5431,0.5546,0.5574,0.5592,0.5348,0.5092,0.4695,0.4076,0.279,0.1716,0.0534,-0.0,-0.0,-0.0,-0.0,-0.0,-0.0,-0.0,-0.0,-0.0,-0.0,-0.0,-0.0,-0.0,-0.0,-0.0,-0.0,-0.0,-0.0,-0.0,-0.0,-0.0,-0.0,-0.1155,-0.1495,-0.1614,-0.1395,-0.0,-0.0,0.3184,0.3403,0.3674,0.3674,0.3224,0.2869,0.2419,0.2159,0.2198,0.2239,0.2372,0.2032,0.1771,0.139,-0.0,-0.0,-0.0,0.0908,0.111,0.1412,0.3332,0.4041,0.4239,0.4135,0.4034,0.4232,0.4437,0.4332,0.372,0.4575,0.5346,0.5751,0.5554,0.4785,0.3871,0.3583,0.3589,0.3591,0.3591,0.3589,0.358,0.351,0.3447,0.3196,0.3221,0.3165,0.333,0.3833,0.4034,0.4236,0.4537,0.4738,0.4939,0.5135,0.524,0.534,0.5541,0.5636,0.5837,0.5641,0.5441,0.524,0.514,0.5135,0.5135,0.5135,0.4931,0.4834,0.4738,0.4943,0.5135,0.551,0.5741,0.5872,0.5999,0.6266,0.6406,0.6516,0.6427,0.6427,0.6368,0.6226,0.5948,0.5439,0.4358,0.3613,0.2619,0.1642,-0.0,-0.0,-0.0,-0.0,-0.0,-0.0,-0.0,-0.0,-0.0,-0.0,-0.0,-0.0,-0.0,-0.0,-0.0,-0.0,-0.0,-0.0,-0.0,-0.0,-0.0,-0.0353,-0.0,-0.0,-0.0,-0.0,-0.0,0.4023,0.4158,0.455,0.4746,0.4656,0.4121,0.3496,0.2962,0.3089,0.3304,0.3446,0.3161,0.273,0.2363,0.1497,0.1007,0.1209,0.1814,0.262,0.2823,0.444,0.5148,0.5244,0.5039,0.5039,0.5236,0.5336,0.5131,0.4922,0.5532,0.6007,0.6225,0.6218,0.5799,0.5251,0.5072,0.5008,0.5023,0.5043,0.5039,0.5016,0.5064,0.487,0.468,0.4598,0.4625,0.4762,0.4839,0.4939,0.5135,0.5336,0.5536,0.5837,0.6037,0.6042,0.6242,0.6542,0.6642,0.6842,0.6936,0.6736,0.6537,0.6237,0.6037,0.6037,0.6137,0.6037,0.6047,0.6073,0.6093,0.6215,0.6611,0.6676,0.6807,0.7049,0.7223,0.7452,0.7452,0.7499,0.7399,0.7333,0.7186,0.7008,0.6598,0.5854,0.5333,0.4804,0.3807,0.2688,0.2578,0.2466,0.2129,0.1681,0.1457,0.1233,-0.0,-0.0,-0.0,-0.0,-0.0,-0.0,-0.0,-0.0,-0.0,-0.0,-0.0,-0.0,-0.0,-0.0,-0.0,-0.0,-0.0,-0.0,-0.0,-0.0,0.4927,0.5124,0.5313,0.5531,0.5531,0.4825,0.3935,0.3129,0.3489,0.4168,0.4991,0.4145,0.3738,0.3229,0.2691,0.2613,0.302,0.3224,0.3927,0.4734,0.5851,0.6253,0.6353,0.6142,0.6042,0.6142,0.6237,0.6337,0.6437,0.6537,0.6603,0.6697,0.678,0.6658,0.651,0.6363,0.6226,0.606,0.5973,0.5969,0.5946,0.6018,0.5915,0.5712,0.5728,0.5644,0.5675,0.5837,0.5942,0.6142,0.6337,0.6437,0.6537,0.6736,0.6742,0.6954,0.7366,0.7572,0.7779,0.7785,0.7746,0.7447,0.7141,0.6942,0.6848,0.6959,0.6989,0.7024,0.7065,0.7106,0.7153,0.7345,0.7539,0.7768,0.7998,0.8136,0.8362,0.8401,0.8474,0.8425,0.8381,0.8103,0.7773,0.7465,0.7111,0.68,0.626,0.5592,0.47,0.4369,0.4145,0.3921,0.336,0.28,0.2466,0.2137,0.2258,0.2263,0.2159,-0.0,-0.0,0.1754,0.1659,0.1443,0.061,-0.0,-0.0,-0.0,-0.0,-0.0,-0.0,-0.0,-0.0,-0.0,-0.0,0.5587,0.5756,0.5966,0.6123,0.63,0.6128,0.5453,0.4559,0.4919,0.5484,0.5981,0.5262,0.4801,0.4602,0.3905,0.3765,0.4203,0.483,0.5441,0.6253,0.6859,0.7366,0.726,0.6948,0.6848,0.7042,0.7241,0.7241,0.7434,0.7441,0.7447,0.761,0.7471,0.7629,0.7595,0.7644,0.7118,0.677,0.67,0.6721,0.6716,0.6674,0.6574,0.649,0.6442,0.6449,0.6469,0.6542,0.6742,0.7042,0.7141,0.7341,0.7534,0.7646,0.7666,0.789,0.8004,0.8106,0.8208,0.8201,0.8153,0.8065,0.7739,0.7739,0.7666,0.7724,0.7883,0.7833,0.7808,0.7871,0.7928,0.8011,0.8194,0.8334,0.8467,0.8615,0.8743,0.8764,0.8832,0.8736,0.8699,0.8706,0.838,0.8152,0.7913,0.7814,0.7487,0.6932,0.6376,0.5931,0.5596,0.5262,0.4946,0.4276,0.3723,0.3282,0.364,0.3774,0.3791,0.3824,0.3768,0.3577,0.3256,0.2557,0.1719,0.1109,-0.0,-0.0,-0.0,-0.0,-0.0,-0.0,-0.0,-0.0,-0.0,0.6121,0.6204,0.6344,0.6505,0.6681,0.6734,0.6443,0.5928,0.5963,0.6263,0.656,0.6128,0.5844,0.5639,0.536,0.5262,0.5156,0.6267,0.6994,0.7153,0.7666,0.7859,0.7753,0.7547,0.754,0.764,0.7746,0.7739,0.7939,0.8038,0.7945,0.7945,0.8038,0.8092,0.8052,0.7991,0.7814,0.7504,0.7368,0.741,0.7317,0.7311,0.7351,0.7261,0.7232,0.7256,0.726,0.7247,0.7441,0.7739,0.7739,0.7839,0.7939,0.7945,0.8012,0.8221,0.8262,0.8255,0.8255,0.8262,0.818,0.8092,0.8045,0.7985,0.8039,0.8106,0.818,0.8253,0.8374,0.8581,0.8635,0.8689,0.875,0.8798,0.8859,0.892,0.8927,0.8927,0.8933,0.8927,0.8933,0.8933,0.8823,0.8712,0.8602,0.8491,0.838,0.8159,0.7487,0.6932,0.6599,0.6265,0.6083,0.5664,0.5111,0.4797,0.5073,0.533,0.5346,0.5405,0.551,0.5068,0.4479,0.3658,0.2708,0.2342,0.2096,0.1604,-0.0,0.0987,0.0617,-0.0,-0.0,-0.0,-0.0,0.6424,0.6451,0.6614,0.6675,0.6709,0.6844,0.6926,0.7032,0.6624,0.6694,0.6999,0.6744,0.6441,0.6409,0.6497,0.6513,0.6617,0.7356,0.7727,0.7939,0.7952,0.7952,0.8045,0.7939,0.7839,0.7939,0.7939,0.7939,0.7939,0.8038,0.8038,0.8038,0.8038,0.8058,0.8072,0.8079,0.7899,0.7837,0.7968,0.8059,0.819,0.8307,0.8391,0.8166,0.8119,0.8073,0.7979,0.7939,0.8038,0.8038,0.8038,0.7939,0.7939,0.8045,0.8126,0.8248,0.8316,0.8357,0.8357,0.835,0.8235,0.8133,0.8052,0.8147,0.8228,0.8303,0.8377,0.8506,0.8628,0.871,0.8771,0.8804,0.8852,0.8872,0.8906,0.894,0.894,0.894,0.894,0.894,0.894,0.894,0.894,0.8823,0.8823,0.8823,0.8823,0.8712,0.8491,0.7826,0.7493,0.7276,0.7118,0.6951,0.665,0.635,0.655,0.6706,0.6725,0.666,0.6649,0.6064,0.5573,0.4885,0.4309,0.382,0.3451,0.3083,0.259,0.2344,0.1849,0.148,0.111,0.0864,-0.0,0.603,0.6159,0.6417,0.6525,0.6546,0.6688,0.6908,0.7104,0.6873,0.6867,0.7048,0.7005,0.6995,0.7086,0.7027,0.7038,0.7354,0.7535,0.7925,0.8014,0.7977,0.8031,0.8038,0.8038,0.8038,0.8038,0.8038,0.8038,0.8038,0.8038,0.8038,0.8038,0.8038,0.8038,0.8038,0.8038,0.8045,0.8052,0.8119,0.8194,0.8194,0.816,0.8113,0.8099,0.8092,0.8099,0.8038,0.8038,0.8038,0.8038,0.8038,0.8038,0.8038,0.8038,0.8174,0.8364,0.8418,0.8465,0.8513,0.8472,0.8364,0.8228,0.8167,0.8248,0.833,0.8397,0.8499,0.8642,0.8757,0.8832,0.8879,0.8913,0.894,0.894,0.894,0.894,0.894,0.894,0.894,0.894,0.894,0.894,0.894,0.894,0.894,0.894,0.894,0.883,0.883,0.8491,0.8288,0.8084,0.8289,0.813,0.7858,0.773,0.7842,0.7671,0.7698,0.7637,0.7691,0.7322,0.6827,0.649,0.6027,0.5536,0.4803,0.4189,0.382,0.3697,0.3451,0.3202,0.2712,0.2344,0.1357,0.5847,0.5956,0.6179,0.6315,0.6396,0.6532,0.6647,0.6729,0.6797,0.6912,0.7048,0.7115,0.719,0.7265,0.7175,0.7164,0.7396,0.7476,0.7801,0.7911,0.7979,0.797,0.8004,0.8031,0.8038,0.8038,0.8038,0.8038,0.8038,0.8038,0.8038,0.8038,0.8038,0.8038,0.8038,0.8038,0.8038,0.8038,0.8038,0.8038,0.8038,0.8038,0.8038,0.8038,0.8038,0.8038,0.8038,0.8038,0.8038,0.8038,0.8038,0.8038,0.8038,0.8038,0.8194,0.8377,0.8492,0.8547,0.8628,0.8615,0.8506,0.837,0.8235,0.8296,0.8492,0.856,0.8601,0.8737,0.8838,0.8913,0.8913,0.8933,0.894,0.894,0.894,0.894,0.894,0.894,0.894,0.894,0.894,0.894,0.894,0.894,0.894,0.894,0.894,0.894,0.894,0.8954,0.8863,0.8811,0.8924,0.8948,0.8838,0.8835,0.8834,0.8775,0.8551,0.8563,0.8575,0.8459,0.8105,0.7739,0.7373,0.7006,0.6272,0.5659,0.5414,0.5414,0.5295,0.5049,0.4438,0.3822,0.2958,0.5732,0.5793,0.5962,0.6105,0.624,0.6383,0.6458,0.6337,0.6614,0.6763,0.6997,0.7048,0.7109,0.7136,0.7143,0.7148,0.7144,0.723,0.7563,0.7767,0.7952,0.8153,0.814,0.8096,0.8202,0.8124,0.8131,0.8237,0.8435,0.8435,0.8435,0.8237,0.8237,0.8237,0.8137,0.8137,0.8237,0.8237,0.8237,0.8237,0.8137,0.8038,0.8038,0.8038,0.8038,0.8038,0.8038,0.8038,0.8038,0.8038,0.8038,0.8137,0.8137,0.8144,0.8295,0.846,0.8472,0.856,0.8662,0.8696,0.8615,0.8513,0.8377,0.8404,0.8601,0.8682,0.8723,0.8804,0.8899,0.894,0.894,0.894,0.894,0.894,0.894,0.894,0.894,0.894,0.894,0.894,0.894,0.894,0.894,0.894,0.894,0.894,0.894,0.894,0.8947,0.8981,0.8897,0.901,0.9144,0.9292,0.9439,0.9433,0.9411,0.9425,0.9188,0.9444,0.9457,0.9207,0.8964,0.872,0.8355,0.7989,0.7744,0.725,0.7133,0.7011,0.6644,0.6276,0.5908,0.5291,0.4803,0.5406,0.565,0.5915,0.6051,0.6098,0.6234,0.6284,0.6304,0.6498,0.66,0.6576,0.6898,0.7107,0.7136,0.7143,0.7094,0.7121,0.7098,0.7158,0.725,0.8146,0.8489,0.8609,0.8668,0.8728,0.8682,0.8619,0.8612,0.913,0.9229,0.9229,0.9229,0.9229,0.913,0.8931,0.8931,0.8931,0.8832,0.8832,0.8931,0.8528,0.8428,0.8038,0.8038,0.8038,0.8038,0.8038,0.8038,0.8038,0.8038,0.8237,0.8435,0.8535,0.8542,0.8564,0.8603,0.8612,0.8639,0.8728,0.8797,0.8749,0.8749,0.8639,0.8625,0.8755,0.8703,0.8764,0.8872,0.894,0.894,0.894,0.894,0.894,0.894,0.894,0.894,0.894,0.894,0.894,0.894,0.894,0.894,0.894,0.894,0.894,0.894,0.894,0.894,0.894,0.8988,0.9042,0.9198,0.9354,0.9462,0.9578,0.9713,0.968,0.9815,0.9822,0.97,0.97,0.97,0.9572,0.9207,0.9207,0.897,0.872,0.8477,0.8355,0.7989,0.7744,0.75,0.7133,0.6761,0.6272]},{"header":{"parameterUnit":"m.s-1","parameterCategory":1,"la1":31.0,"la2":29.5877,"lo1":-88.7671,"lo2":-86.6584,"dy":0.0162,"dx":0.0185,"nx":115,"ny":88,"refTime":"2024-05-14T12:00:00:Z","depth":0,"parameterNumber":3,"parameterNumberName":"V-component_of_WINDS"},"data":[0.0,0.0,0.0,0.0,0.0,0.0,0.0,0.0,0.0,0.0,0.0,0.0,0.0,0.0,0.0,0.0,0.0,0.0,0.0,0.0,0.0,0.0,0.0,0.0,0.0,0.0,0.0,0.0,0.0,0.0,0.0,0.0,0.0,0.0,0.0,0.0,0.0,0.0,0.0,0.0,0.0,0.0,0.0,0.0,0.0,0.0,0.0,0.0,0.0,0.0,0.0,0.0,0.0,0.0,0.0,0.0,0.0,0.0,0.0,0.0,0.0,0.0,0.0,0.0,0.0,0.0,0.0,0.0,0.0,0.0,0.0,0.0,0.0,0.0,0.0,0.0,0.0,0.0,0.0,0.0,0.0,0.0,0.0,0.0,0.0,0.0,0.0,0.0,0.0,0.0,0.0,0.0,0.0,0.0,0.0,0.0,0.0,0.0,0.0,0.0,0.0,0.0,0.0,0.0,0.0,0.0,0.0,0.0,0.0,0.0,0.0,0.0,0.0,0.0,0.0,0.0,0.0,0.0,0.0,0.0,0.0,0.0,0.0,0.0,0.0,0.0,0.0,0.0,0.0,0.0,0.0,0.0,0.0,0.0,0.0,0.0,0.0,0.0,0.0,0.0,0.0,0.0,0.0,0.0,0.0,0.0,0.0,0.0,0.0,0.0,0.0,0.0,0.0,0.0,0.0,0.0,0.0,0.0,0.0,0.0,0.0,0.0,0.0,0.0,0.0,0.0,0.0,0.0,0.0,0.0,0.0,0.0,0.0,0.0,0.0,0.0,0.0,0.0,0.0,0.0,0.0,0.0,0.0,0.0,0.0,0.0,0.0,0.0,0.0,0.0,0.0,0.0,0.0,0.0,0.0,0.0,0.0,0.0,0.0,0.0,0.0,0.0,0.0,0.0,0.0,0.0,0.0,0.0,0.0,0.0,0.0,0.0,0.0,0.0,0.0,0.0,0.0,0.0,0.0,0.0,0.0,0.0,0.0,0.0,0.0,0.0,0.0,0.0,0.0,0.0,0.0,0.0,0.0,0.0,0.0,0.0,0.0,0.0,0.0,0.0,0.0,0.0,0.0,0.0,0.0,0.0,0.0,0.0,0.0,0.0,0.0,0.0,0.0,0.0,0.0,0.0,0.0,0.0,0.0,0.0,0.0,0.0,0.0,0.0,0.0,0.0,0.0,0.0,0.0,0.0,0.0,0.0,0.0,0.0,0.0,0.0,0.0,0.0,0.0,0.0,0.0,0.0,0.0,0.0,0.0,0.0,0.0,0.0,0.0,0.0,0.0,0.0,0.0,0.0,0.0,0.0,0.0,0.0,0.0,0.0,0.0,0.0,0.0,0.0,0.0,0.0,0.0,0.0,0.0,0.0,0.0,0.0,0.0,0.0,0.0,0.0,0.0,0.0,0.0,0.0,0.0,0.0,0.0,0.0,0.0,0.0,0.0,0.0,0.0,0.0,0.0,0.0,0.0,0.0,0.0,0.0,0.0,0.0,0.0,0.0,0.0,0.0,0.0,0.0,0.0,0.0,0.0,0.0,0.0,0.0,0.0,0.0,0.0,0.0,0.0,0.0,0.0,0.0,0.0,0.0,0.0,0.0,0.0,0.0,0.0,0.0,0.0,0.0,0.0,0.0,0.0,0.0,0.0,0.0,0.0,0.0,0.0,0.0,0.0,0.0,0.0,0.0,0.0,0.0,0.0,0.0,0.0,0.0,0.0,0.0,0.0,0.0,0.0,0.0,0.0,0.0,0.0,0.0,0.0,0.0,0.0,0.0,0.0,0.0,0.0,0.0,0.0,0.0,0.0,0.0,0.0,0.0,0.0,0.0,0.0,0.0,0.0,0.0,0.0,0.0,0.0,0.0,0.0,0.0,0.0,0.0,0.0,0.0,0.0,0.0,0.0,0.0,0.0,0.0,0.0,0.0,0.0,0.0,0.0,0.0,0.0,0.0,0.0,0.0,0.0,0.0,0.0,0.0,0.0,0.0,0.0,0.0,0.0,0.0,0.0,0.0,0.0,0.0,0.0,0.0,0.0,0.0,0.0,0.0,0.0,0.0,0.0,0.0,0.0,0.0,0.0,0.0,0.0,0.0,0.0,0.0,0.0,0.0,0.0,0.0,0.0,0.0,0.0,0.0,0.0,0.0,0.0,0.0,0.0,0.0,0.0,0.0,0.0,0.0,0.0,0.0,0.0,0.0,0.0,0.0,0.0,0.0,0.0,0.0,0.0,0.0,0.0,0.0,0.0,0.0,0.0,0.0,0.0,0.0,0.0,0.0,0.0,0.0,0.0,0.0,0.0,0.0,0.0,0.0,0.0,0.0,0.0,0.0,0.0,0.0,0.0,0.0,0.0,0.0,0.0,0.0,0.0,0.0,0.0,0.0,0.0,0.0,0.0,0.0,0.0,0.0,0.0,0.0,0.0,0.0,0.0,0.0,0.0,0.0,0.0,0.0,0.0,0.0,0.0,0.0,0.0,0.0,0.0,0.0,0.0,0.0,0.0,0.0,0.0,0.0,0.0,0.0,0.0,0.0,0.0,0.0,0.0,0.0,0.0,0.0,0.0,0.0,0.0,0.0,0.0,0.0,0.0,0.0,0.0,0.0,0.0,0.0,0.0,0.0,0.0,0.0,0.0,0.0,0.0,0.0,0.0,0.0,0.0,0.0,0.0,0.0,0.0,0.0,0.0,0.0,0.0,0.0,0.0,0.0,0.0,0.0,0.0,0.0,0.0,0.0,0.0,0.0,0.0,0.0,0.0,0.0,0.0,0.0,0.0,0.0,0.0,0.0,0.0,0.0,0.0,0.0,0.0,0.0,0.0,0.0,0.0,0.0,0.0,0.0,0.0,0.0,0.0,0.0,0.0,0.0,0.0,0.0,0.0,0.0,0.0,0.0,0.0,0.0,0.0,0.0,0.0,0.0,0.0,0.0,0.0,0.0,0.0,0.0,0.0,0.0,0.0,0.0,0.0,0.0,0.0,0.0,0.0,0.0,0.0,0.0,0.0,0.0,0.0,0.0,0.0,0.0,0.0,0.0,0.0,0.0,0.0,0.0,0.0,0.0,0.0,0.0,0.0,0.0,0.0,0.0,0.0,0.0,0.0,0.0,0.0,0.0,0.0,0.0,0.0,0.0,0.0,0.0,0.0,0.0,0.0,0.0,0.0,0.0,0.0,0.0,0.0,0.0,0.0,0.0,0.0,0.0,0.0,0.0,0.0,0.0,0.0,0.0,0.0,0.0,0.0,0.0,0.0,0.0,0.0,0.0,0.0,0.0,0.0,0.0,0.0,0.0,0.0,0.0,0.0,0.0,0.0,0.0,0.0,0.0,0.0,0.0,0.0,0.0,0.0,0.0,0.0,0.0,0.0,0.0,0.0,0.0,0.0,0.0,0.0,0.0,0.0,0.0,0.0,0.0,0.0,0.0,0.0,0.0,0.0,0.0,0.0,0.0,0.0,0.0,0.0,0.0,0.0,0.0,0.0,0.0,0.0,0.0,0.0,0.0,0.0,0.0,0.0,0.0,0.0,0.0,0.0,0.0,0.0,0.0,0.0,0.0,0.0,0.0,0.0,0.0,0.0,0.0,0.0,0.0,0.0,0.0,0.0,0.0,0.0,0.0,0.0,0.0,0.0,0.0,0.0,0.0,0.0,0.0,0.0,0.0,0.0,0.0,0.0,0.0,0.0,0.0,0.0,0.0,0.0,0.0,0.0,0.0,0.0,0.0,0.0,0.0,0.0,0.0,0.0,0.0,0.0,0.0,0.0,0.0,0.0,0.0,0.0,0.0,0.0,0.0,0.0,0.0,0.0,0.0,0.0,0.0,0.0,0.0,0.0,0.0,0.0,0.0,0.0,0.0,0.0,0.0,0.0,0.0,0.0,0.0,0.0,0.0,0.0,0.0,0.0,0.0,0.0,0.0,0.0,0.0,0.0,0.0,0.0,0.0,0.0,0.0,0.0,0.0,0.0,0.0,0.0,0.0,0.0,0.0,0.0,0.0,0.0,0.0,0.0,0.0,0.0,0.0,0.0,0.0,0.0,0.0,0.0,0.0,0.0,0.0,0.0,0.0,0.0,0.0,0.0,0.0,0.0,0.0,0.0,0.0,0.0,0.0,0.0,0.0,0.0,0.0,0.0,0.0,0.0,0.0,0.0,0.0,0.0,0.0,0.0,0.0,0.0,0.0,0.0,0.0,0.0,0.0,0.0,0.0,0.0,0.0,0.0,0.0,0.0,0.0,0.0,0.0,0.0,0.0,0.0,0.0,-3.2109,0.0,0.0,0.0,0.0,0.0,0.0,0.0,0.0,0.0,0.0,0.0,0.0,0.0,0.0,0.0,0.0,0.0,0.0,0.0,0.0,0.0,0.0,0.0,0.0,0.0,0.0,0.0,0.0,0.0,0.0,0.0,0.0,0.0,0.0,0.0,0.0,0.0,0.0,0.0,0.0,0.0,0.0,0.0,0.0,0.0,0.0,0.0,0.0,0.0,0.0,0.0,0.0,0.0,0.0,0.0,0.0,0.0,0.0,0.0,0.0,0.0,0.0,0.0,0.0,0.0,0.0,0.0,0.0,0.0,0.0,0.0,0.0,0.0,0.0,0.0,0.0,0.0,0.0,0.0,0.0,0.0,0.0,0.0,0.0,0.0,0.0,0.0,0.0,0.0,0.0,0.0,0.0,0.0,0.0,0.0,0.0,0.0,0.0,0.0,0.0,0.0,0.0,0.0,0.0,0.0,0.0,0.0,0.0,0.0,0.0,-3.3488,-3.383,-3.3686,-3.3686,-3.3748,0.0,0.0,0.0,0.0,0.0,0.0,0.0,0.0,0.0,0.0,0.0,0.0,0.0,0.0,0.0,0.0,0.0,0.0,0.0,0.0,0.0,0.0,0.0,0.0,0.0,0.0,0.0,0.0,0.0,0.0,0.0,0.0,0.0,0.0,0.0,0.0,0.0,0.0,0.0,0.0,0.0,0.0,0.0,0.0,0.0,0.0,0.0,0.0,0.0,0.0,0.0,0.0,0.0,0.0,0.0,0.0,0.0,0.0,0.0,0.0,0.0,0.0,0.0,0.0,0.0,0.0,0.0,0.0,0.0,0.0,0.0,0.0,0.0,0.0,0.0,0.0,0.0,0.0,0.0,0.0,0.0,0.0,0.0,0.0,0.0,0.0,0.0,0.0,0.0,0.0,0.0,0.0,0.0,0.0,0.0,0.0,0.0,0.0,0.0,0.0,0.0,0.0,0.0,0.0,0.0,0.0,0.0,0.0,0.0,0.0,0.0,0.0,-3.5261,-3.5166,-3.5078,0.0,0.0,0.0,0.0,0.0,0.0,0.0,0.0,0.0,0.0,0.0,0.0,0.0,0.0,0.0,0.0,0.0,0.0,0.0,0.0,0.0,0.0,0.0,0.0,0.0,0.0,0.0,0.0,0.0,0.0,0.0,0.0,0.0,0.0,0.0,0.0,0.0,0.0,0.0,0.0,0.0,0.0,0.0,0.0,0.0,0.0,0.0,0.0,0.0,0.0,0.0,0.0,0.0,0.0,0.0,0.0,0.0,0.0,0.0,0.0,0.0,0.0,0.0,0.0,0.0,0.0,0.0,0.0,0.0,0.0,0.0,0.0,0.0,0.0,0.0,0.0,0.0,0.0,0.0,0.0,0.0,0.0,0.0,0.0,0.0,0.0,0.0,0.0,0.0,0.0,0.0,0.0,0.0,0.0,0.0,0.0,0.0,0.0,0.0,0.0,0.0,0.0,0.0,0.0,0.0,0.0,0.0,0.0,0.0,0.0,-3.6066,-3.6023,-3.5832,0.0,-3.5188,0.0,0.0,0.0,0.0,0.0,0.0,0.0,0.0,0.0,0.0,0.0,0.0,0.0,0.0,0.0,0.0,0.0,0.0,0.0,0.0,0.0,0.0,0.0,0.0,0.0,0.0,0.0,0.0,0.0,0.0,0.0,0.0,0.0,0.0,0.0,0.0,0.0,0.0,0.0,0.0,0.0,0.0,0.0,0.0,0.0,0.0,0.0,0.0,0.0,0.0,0.0,0.0,0.0,0.0,0.0,0.0,0.0,0.0,0.0,0.0,0.0,0.0,0.0,0.0,0.0,0.0,0.0,0.0,0.0,0.0,0.0,0.0,0.0,0.0,0.0,0.0,0.0,0.0,0.0,0.0,0.0,0.0,0.0,0.0,0.0,0.0,0.0,0.0,0.0,0.0,0.0,0.0,0.0,0.0,0.0,0.0,0.0,0.0,0.0,0.0,0.0,0.0,0.0,0.0,0.0,0.0,0.0,0.0,0.0,0.0,-3.79,-3.8614,-3.858,-3.7817,0.0,0.0,0.0,0.0,0.0,0.0,0.0,0.0,0.0,0.0,0.0,0.0,0.0,0.0,0.0,0.0,0.0,0.0,0.0,0.0,0.0,0.0,0.0,0.0,0.0,0.0,0.0,0.0,0.0,0.0,0.0,0.0,0.0,0.0,0.0,0.0,0.0,0.0,0.0,0.0,0.0,0.0,0.0,0.0,0.0,0.0,0.0,0.0,0.0,0.0,0.0,0.0,0.0,0.0,0.0,0.0,0.0,0.0,0.0,0.0,0.0,0.0,0.0,0.0,0.0,0.0,0.0,0.0,0.0,0.0,0.0,0.0,0.0,0.0,0.0,0.0,0.0,0.0,0.0,0.0,0.0,0.0,0.0,0.0,0.0,0.0,0.0,0.0,0.0,0.0,0.0,0.0,0.0,0.0,0.0,0.0,0.0,0.0,0.0,0.0,0.0,0.0,0.0,0.0,0.0,0.0,0.0,0.0,0.0,0.0,-3.8522,-3.9558,-4.0415,-4.0325,-3.9268,-3.7367,0.0,0.0,0.0,0.0,0.0,0.0,0.0,0.0,0.0,0.0,0.0,0.0,0.0,0.0,0.0,0.0,0.0,0.0,0.0,0.0,0.0,0.0,0.0,0.0,0.0,0.0,0.0,0.0,0.0,0.0,0.0,0.0,0.0,0.0,0.0,0.0,0.0,0.0,0.0,0.0,0.0,0.0,0.0,0.0,0.0,0.0,0.0,0.0,0.0,0.0,0.0,0.0,0.0,0.0,0.0,0.0,0.0,0.0,0.0,0.0,0.0,0.0,0.0,0.0,0.0,0.0,0.0,0.0,0.0,0.0,0.0,0.0,0.0,0.0,0.0,0.0,0.0,0.0,0.0,0.0,0.0,0.0,0.0,0.0,0.0,0.0,0.0,0.0,0.0,0.0,0.0,0.0,0.0,0.0,0.0,0.0,0.0,0.0,0.0,0.0,0.0,0.0,0.0,0.0,0.0,0.0,0.0,0.0,-3.773,-3.9731,-4.0845,-4.0723,-4.0121,-3.9076,0.0,0.0,0.0,0.0,0.0,0.0,0.0,0.0,0.0,0.0,0.0,0.0,0.0,0.0,0.0,0.0,0.0,0.0,0.0,0.0,0.0,0.0,0.0,0.0,0.0,0.0,0.0,0.0,0.0,0.0,0.0,0.0,0.0,0.0,0.0,0.0,0.0,0.0,0.0,0.0,0.0,0.0,0.0,0.0,0.0,0.0,0.0,0.0,0.0,0.0,0.0,0.0,0.0,0.0,0.0,0.0,0.0,0.0,0.0,0.0,0.0,0.0,0.0,0.0,0.0,0.0,0.0,0.0,0.0,0.0,0.0,0.0,0.0,0.0,0.0,0.0,0.0,0.0,0.0,0.0,0.0,0.0,0.0,0.0,0.0,0.0,0.0,0.0,0.0,0.0,0.0,0.0,0.0,0.0,0.0,0.0,0.0,0.0,0.0,0.0,0.0,0.0,0.0,0.0,0.0,0.0,0.0,0.0,0.0,-3.7942,-3.9986,-4.0863,-4.0385,-4.0505,-3.9784,0.0,0.0,0.0,0.0,0.0,0.0,0.0,0.0,0.0,0.0,0.0,0.0,0.0,0.0,0.0,0.0,0.0,0.0,0.0,0.0,0.0,0.0,0.0,0.0,0.0,0.0,0.0,0.0,0.0,0.0,0.0,0.0,0.0,0.0,0.0,0.0,0.0,0.0,0.0,0.0,0.0,0.0,0.0,0.0,0.0,0.0,0.0,0.0,0.0,0.0,0.0,0.0,0.0,0.0,0.0,0.0,0.0,0.0,0.0,0.0,0.0,0.0,0.0,0.0,0.0,0.0,0.0,0.0,0.0,0.0,0.0,0.0,0.0,0.0,0.0,0.0,0.0,0.0,0.0,0.0,0.0,0.0,0.0,0.0,0.0,0.0,0.0,0.0,0.0,0.0,0.0,0.0,0.0,0.0,0.0,0.0,0.0,0.0,0.0,0.0,0.0,0.0,0.0,0.0,0.0,0.0,0.0,0.0,0.0,-3.9001,0.0,-4.0696,-4.0459,-4.0426,-3.9664,0.0,0.0,0.0,0.0,0.0,0.0,0.0,0.0,0.0,0.0,0.0,0.0,0.0,0.0,0.0,0.0,0.0,0.0,0.0,0.0,0.0,0.0,0.0,0.0,0.0,0.0,0.0,0.0,0.0,0.0,0.0,0.0,0.0,0.0,0.0,0.0,0.0,0.0,0.0,0.0,0.0,0.0,0.0,0.0,0.0,0.0,0.0,0.0,0.0,0.0,0.0,0.0,0.0,0.0,0.0,0.0,0.0,0.0,0.0,0.0,0.0,0.0,0.0,0.0,0.0,0.0,0.0,0.0,0.0,0.0,0.0,0.0,0.0,0.0,0.0,0.0,0.0,0.0,0.0,0.0,0.0,0.0,0.0,0.0,0.0,0.0,0.0,0.0,0.0,0.0,0.0,0.0,0.0,0.0,0.0,0.0,0.0,0.0,0.0,0.0,0.0,0.0,0.0,0.0,0.0,0.0,0.0,0.0,-3.8976,-4.1069,-4.0493,-4.0493,-4.1137,-3.9865,-3.8744,0.0,0.0,0.0,0.0,0.0,0.0,0.0,0.0,0.0,0.0,0.0,0.0,0.0,0.0,0.0,0.0,0.0,0.0,0.0,0.0,0.0,0.0,0.0,0.0,0.0,0.0,0.0,0.0,0.0,0.0,0.0,0.0,0.0,0.0,0.0,0.0,0.0,0.0,0.0,0.0,0.0,0.0,0.0,0.0,0.0,0.0,0.0,0.0,0.0,0.0,0.0,0.0,0.0,0.0,0.0,0.0,0.0,0.0,0.0,0.0,0.0,0.0,0.0,0.0,0.0,0.0,0.0,0.0,0.0,0.0,0.0,0.0,0.0,0.0,0.0,0.0,0.0,0.0,0.0,0.0,0.0,0.0,0.0,0.0,0.0,0.0,0.0,0.0,0.0,0.0,0.0,0.0,0.0,0.0,0.0,0.0,0.0,0.0,0.0,0.0,0.0,0.0,0.0,0.0,0.0,0.0,0.0,0.0,0.0,-4.1138,-4.0951,-4.0951,-4.1172,-4.0798,-3.9676,0.0,0.0,0.0,0.0,0.0,0.0,0.0,0.0,0.0,0.0,0.0,0.0,0.0,0.0,0.0,0.0,0.0,0.0,0.0,0.0,0.0,0.0,0.0,0.0,0.0,0.0,0.0,0.0,0.0,0.0,0.0,0.0,0.0,0.0,0.0,0.0,0.0,0.0,0.0,0.0,0.0,0.0,0.0,0.0,0.0,0.0,0.0,0.0,0.0,0.0,0.0,0.0,0.0,0.0,0.0,0.0,0.0,0.0,0.0,0.0,0.0,0.0,0.0,0.0,0.0,0.0,0.0,0.0,0.0,0.0,0.0,0.0,0.0,0.0,0.0,0.0,0.0,0.0,0.0,0.0,0.0,0.0,0.0,0.0,0.0,0.0,0.0,0.0,0.0,0.0,0.0,0.0,0.0,0.0,0.0,0.0,0.0,0.0,0.0,0.0,0.0,0.0,0.0,0.0,0.0,0.0,0.0,0.0,0.0,-4.2053,-4.2056,-4.192,-4.161,-4.1359,-4.0402,-3.8567,0.0,0.0,0.0,0.0,0.0,0.0,0.0,0.0,0.0,0.0,0.0,0.0,0.0,0.0,0.0,0.0,0.0,0.0,0.0,0.0,0.0,0.0,0.0,0.0,0.0,0.0,0.0,0.0,0.0,0.0,0.0,0.0,0.0,0.0,0.0,0.0,0.0,0.0,0.0,0.0,0.0,0.0,0.0,0.0,0.0,0.0,0.0,0.0,0.0,0.0,0.0,0.0,0.0,0.0,0.0,0.0,0.0,0.0,0.0,0.0,0.0,0.0,0.0,0.0,0.0,0.0,0.0,0.0,0.0,0.0,0.0,0.0,0.0,0.0,0.0,0.0,0.0,0.0,0.0,0.0,0.0,0.0,0.0,0.0,0.0,0.0,0.0,0.0,0.0,0.0,0.0,0.0,0.0,0.0,0.0,0.0,0.0,0.0,0.0,0.0,0.0,0.0,0.0,0.0,0.0,0.0,0.0,0.0,-4.3673,-4.3693,-4.3299,-4.2509,-4.1902,-4.0837,0.0,0.0,0.0,0.0,0.0,0.0,0.0,0.0,0.0,0.0,0.0,0.0,0.0,0.0,0.0,0.0,0.0,0.0,0.0,0.0,0.0,0.0,0.0,0.0,0.0,0.0,0.0,0.0,0.0,0.0,0.0,0.0,0.0,0.0,0.0,0.0,0.0,0.0,0.0,0.0,0.0,0.0,0.0,0.0,0.0,0.0,0.0,0.0,0.0,0.0,0.0,0.0,0.0,0.0,0.0,0.0,0.0,0.0,0.0,0.0,0.0,0.0,0.0,0.0,0.0,0.0,0.0,0.0,0.0,0.0,0.0,0.0,0.0,0.0,0.0,0.0,0.0,0.0,0.0,0.0,0.0,0.0,0.0,0.0,0.0,0.0,0.0,0.0,0.0,0.0,0.0,0.0,0.0,0.0,0.0,0.0,0.0,0.0,0.0,0.0,0.0,0.0,0.0,0.0,0.0,0.0,0.0,0.0,0.0,-4.3765,-4.5642,-4.5883,-4.4521,-4.3769,-4.2299,0.0,0.0,0.0,0.0,0.0,0.0,0.0,0.0,0.0,0.0,0.0,0.0,0.0,0.0,0.0,0.0,0.0,0.0,0.0,0.0,0.0,0.0,0.0,0.0,0.0,0.0,0.0,0.0,0.0,0.0,0.0,0.0,0.0,0.0,0.0,0.0,0.0,0.0,0.0,0.0,0.0,0.0,0.0,0.0,0.0,0.0,0.0,0.0,0.0,0.0,0.0,0.0,0.0,0.0,0.0,0.0,0.0,0.0,0.0,0.0,0.0,0.0,0.0,0.0,0.0,0.0,0.0,0.0,0.0,0.0,0.0,0.0,0.0,0.0,0.0,0.0,0.0,0.0,0.0,0.0,0.0,0.0,0.0,0.0,0.0,0.0,0.0,0.0,0.0,0.0,0.0,0.0,0.0,0.0,0.0,0.0,0.0,0.0,0.0,0.0,0.0,0.0,0.0,0.0,0.0,0.0,0.0,0.0,-4.1955,-4.4437,-4.6738,-4.7507,-4.6778,-4.5586,-4.3605,0.0,0.0,0.0,0.0,0.0,0.0,0.0,0.0,0.0,0.0,0.0,0.0,0.0,0.0,0.0,0.0,0.0,0.0,0.0,0.0,0.0,0.0,0.0,0.0,0.0,0.0,0.0,0.0,0.0,0.0,0.0,0.0,0.0,0.0,0.0,0.0,0.0,0.0,0.0,0.0,0.0,0.0,0.0,0.0,0.0,0.0,0.0,0.0,0.0,0.0,0.0,0.0,0.0,0.0,0.0,0.0,0.0,0.0,0.0,0.0,0.0,0.0,0.0,0.0,0.0,0.0,0.0,0.0,0.0,0.0,0.0,0.0,0.0,0.0,0.0,0.0,0.0,0.0,0.0,0.0,0.0,0.0,0.0,0.0,0.0,0.0,0.0,0.0,0.0,0.0,0.0,0.0,0.0,0.0,0.0,0.0,0.0,0.0,0.0,0.0,0.0,0.0,0.0,0.0,0.0,0.0,0.0,0.0,-4.2638,-4.5146,-4.7055,-4.8329,-4.8749,-4.7169,-4.4894,0.0,0.0,0.0,0.0,0.0,0.0,0.0,0.0,0.0,0.0,0.0,0.0,0.0,0.0,0.0,0.0,0.0,0.0,0.0,0.0,0.0,0.0,0.0,0.0,0.0,0.0,0.0,0.0,0.0,0.0,0.0,0.0,0.0,0.0,0.0,0.0,0.0,0.0,0.0,0.0,0.0,0.0,0.0,0.0,0.0,0.0,0.0,0.0,0.0,0.0,0.0,0.0,0.0,0.0,0.0,0.0,0.0,0.0,0.0,0.0,0.0,0.0,0.0,0.0,0.0,0.0,0.0,0.0,0.0,0.0,0.0,0.0,0.0,0.0,0.0,0.0,0.0,0.0,0.0,0.0,0.0,0.0,0.0,0.0,0.0,0.0,0.0,0.0,0.0,0.0,0.0,0.0,0.0,0.0,0.0,0.0,0.0,0.0,0.0,0.0,0.0,0.0,0.0,0.0,0.0,0.0,0.0,0.0,-4.2551,-4.4509,-4.6599,-4.7908,-4.8247,-4.7879,-4.6052,0.0,0.0,0.0,0.0,0.0,0.0,0.0,0.0,0.0,0.0,0.0,0.0,0.0,0.0,0.0,0.0,0.0,0.0,0.0,0.0,0.0,0.0,0.0,0.0,0.0,0.0,0.0,0.0,0.0,0.0,0.0,0.0,0.0,0.0,0.0,0.0,0.0,0.0,0.0,0.0,0.0,0.0,0.0,0.0,0.0,0.0,0.0,0.0,-4.323,0.0,0.0,0.0,0.0,0.0,0.0,0.0,0.0,0.0,0.0,0.0,0.0,0.0,0.0,0.0,0.0,0.0,0.0,0.0,0.0,0.0,0.0,0.0,0.0,0.0,0.0,0.0,0.0,0.0,0.0,0.0,0.0,0.0,0.0,0.0,0.0,0.0,0.0,0.0,0.0,0.0,0.0,0.0,0.0,0.0,0.0,0.0,0.0,0.0,0.0,0.0,0.0,0.0,0.0,0.0,0.0,0.0,0.0,0.0,-4.2603,-4.3784,-4.623,-4.7581,-4.7742,-4.7859,-4.6349,0.0,0.0,0.0,0.0,0.0,0.0,0.0,0.0,0.0,0.0,0.0,0.0,0.0,0.0,0.0,0.0,0.0,0.0,0.0,0.0,0.0,0.0,0.0,0.0,0.0,0.0,0.0,0.0,0.0,0.0,0.0,0.0,0.0,0.0,0.0,0.0,0.0,0.0,0.0,0.0,0.0,0.0,0.0,0.0,0.0,0.0,0.0,0.0,0.0,0.0,0.0,0.0,0.0,0.0,0.0,0.0,0.0,0.0,0.0,0.0,0.0,0.0,0.0,0.0,0.0,0.0,0.0,0.0,0.0,0.0,0.0,0.0,0.0,0.0,0.0,0.0,0.0,0.0,0.0,0.0,0.0,0.0,0.0,0.0,0.0,0.0,0.0,0.0,0.0,0.0,0.0,0.0,0.0,0.0,0.0,0.0,0.0,0.0,0.0,0.0,0.0,0.0,0.0,0.0,0.0,0.0,0.0,-4.0815,-4.2535,-4.3093,-4.5536,-4.6861,-4.6916,-4.7155,-4.5879,-4.2996,0.0,0.0,0.0,0.0,0.0,0.0,0.0,0.0,0.0,0.0,0.0,0.0,0.0,0.0,0.0,0.0,0.0,0.0,0.0,0.0,0.0,0.0,0.0,0.0,0.0,0.0,0.0,0.0,0.0,0.0,0.0,0.0,0.0,0.0,0.0,0.0,0.0,0.0,-4.1515,-4.3781,0.0,0.0,0.0,0.0,0.0,0.0,0.0,0.0,-4.8015,0.0,0.0,0.0,0.0,0.0,0.0,0.0,0.0,0.0,0.0,0.0,0.0,0.0,0.0,0.0,0.0,0.0,0.0,0.0,0.0,0.0,0.0,0.0,0.0,0.0,0.0,0.0,0.0,0.0,0.0,0.0,0.0,0.0,0.0,0.0,0.0,0.0,0.0,0.0,0.0,0.0,0.0,0.0,0.0,0.0,0.0,0.0,0.0,0.0,0.0,0.0,0.0,0.0,0.0,0.0,0.0,-3.7922,-4.034,-4.1783,-4.2216,-4.3666,-4.4741,-4.5264,-4.4993,-4.408,-4.2477,0.0,0.0,0.0,0.0,0.0,0.0,0.0,0.0,0.0,0.0,0.0,0.0,0.0,0.0,0.0,0.0,0.0,0.0,0.0,0.0,0.0,0.0,0.0,0.0,0.0,0.0,0.0,0.0,0.0,0.0,0.0,0.0,0.0,0.0,0.0,0.0,0.0,0.0,0.0,-4.6137,-4.7228,0.0,0.0,0.0,0.0,0.0,0.0,0.0,0.0,-4.9437,0.0,0.0,0.0,0.0,0.0,0.0,0.0,0.0,0.0,0.0,0.0,0.0,0.0,0.0,0.0,0.0,0.0,0.0,0.0,0.0,0.0,0.0,0.0,0.0,0.0,0.0,0.0,0.0,0.0,0.0,0.0,0.0,0.0,0.0,0.0,0.0,0.0,0.0,0.0,0.0,0.0,0.0,0.0,0.0,0.0,0.0,0.0,0.0,0.0,0.0,0.0,0.0,0.0,0.0,0.0,-3.7922,-3.9865,-4.1032,-4.1457,-4.3048,-4.4003,-4.4294,-4.3864,-4.322,0.0,0.0,0.0,0.0,0.0,0.0,0.0,0.0,0.0,0.0,0.0,0.0,0.0,0.0,0.0,0.0,0.0,0.0,0.0,0.0,0.0,0.0,0.0,0.0,0.0,0.0,0.0,0.0,0.0,0.0,0.0,0.0,0.0,0.0,0.0,0.0,0.0,0.0,0.0,0.0,-4.6637,-4.7992,-4.8114,0.0,0.0,0.0,0.0,0.0,0.0,-5.1387,-5.1117,0.0,0.0,0.0,0.0,0.0,0.0,0.0,0.0,0.0,0.0,0.0,0.0,0.0,0.0,0.0,0.0,0.0,0.0,0.0,0.0,0.0,0.0,0.0,0.0,0.0,0.0,0.0,0.0,0.0,0.0,0.0,0.0,0.0,0.0,0.0,0.0,0.0,0.0,0.0,0.0,0.0,0.0,0.0,0.0,0.0,0.0,0.0,0.0,0.0,0.0,0.0,0.0,0.0,0.0,0.0,-3.7922,-3.9491,-4.0485,-4.0987,-4.25,-4.343,-4.3544,-4.3102,-4.249,0.0,0.0,0.0,0.0,0.0,0.0,0.0,0.0,0.0,0.0,0.0,0.0,0.0,0.0,0.0,0.0,0.0,0.0,0.0,0.0,0.0,0.0,0.0,0.0,0.0,0.0,0.0,0.0,0.0,0.0,0.0,0.0,0.0,0.0,0.0,0.0,0.0,0.0,0.0,0.0,0.0,-4.8559,-4.8785,-4.9233,0.0,0.0,0.0,0.0,-5.3489,-5.329,0.0,0.0,0.0,0.0,0.0,0.0,0.0,0.0,0.0,0.0,0.0,0.0,0.0,0.0,0.0,0.0,0.0,0.0,0.0,0.0,0.0,0.0,0.0,0.0,0.0,0.0,0.0,0.0,0.0,0.0,0.0,0.0,0.0,0.0,0.0,0.0,0.0,0.0,0.0,0.0,0.0,0.0,0.0,0.0,0.0,0.0,0.0,0.0,0.0,0.0,0.0,0.0,0.0,0.0,0.0,0.0,-3.7889,-3.9491,-4.0534,-4.1012,-4.1579,-4.2166,-4.2799,-4.2304,-4.1497,0.0,0.0,0.0,0.0,0.0,0.0,0.0,0.0,0.0,0.0,0.0,0.0,0.0,0.0,0.0,0.0,0.0,0.0,0.0,0.0,0.0,0.0,0.0,0.0,0.0,0.0,0.0,0.0,0.0,0.0,0.0,0.0,0.0,0.0,0.0,0.0,0.0,0.0,0.0,0.0,0.0,-4.974,-5.048,-5.1376,-5.1825,0.0,0.0,-5.4231,-5.4829,-5.4874,0.0,0.0,0.0,0.0,0.0,0.0,0.0,0.0,0.0,0.0,0.0,0.0,0.0,0.0,0.0,0.0,0.0,0.0,0.0,0.0,0.0,0.0,0.0,0.0,0.0,0.0,0.0,0.0,0.0,0.0,0.0,0.0,0.0,0.0,0.0,0.0,0.0,0.0,0.0,0.0,0.0,0.0,0.0,0.0,0.0,0.0,0.0,0.0,0.0,0.0,0.0,0.0,0.0,0.0,0.0,-3.561,-3.7963,-3.8973,-4.002,-4.1174,-4.1799,-4.2341,-4.2846,-4.2013,-4.1119,0.0,0.0,0.0,0.0,0.0,0.0,0.0,0.0,0.0,0.0,0.0,0.0,0.0,0.0,0.0,0.0,0.0,0.0,0.0,0.0,0.0,0.0,0.0,0.0,0.0,0.0,0.0,0.0,0.0,0.0,0.0,0.0,0.0,0.0,0.0,0.0,0.0,0.0,0.0,0.0,0.0,0.0,-5.156,-5.2232,0.0,0.0,0.0,-5.5345,-5.7073,0.0,0.0,0.0,0.0,0.0,0.0,0.0,0.0,0.0,0.0,0.0,0.0,0.0,0.0,0.0,0.0,0.0,0.0,0.0,0.0,0.0,0.0,0.0,0.0,0.0,0.0,0.0,0.0,0.0,0.0,0.0,0.0,0.0,0.0,0.0,0.0,0.0,0.0,0.0,0.0,0.0,0.0,0.0,0.0,0.0,0.0,0.0,0.0,0.0,0.0,0.0,0.0,0.0,0.0,0.0,0.0,0.0,-3.8196,-3.8856,-3.994,-4.1543,-4.2203,-4.2757,-4.3105,-4.2006,0.0,0.0,0.0,0.0,0.0,0.0,0.0,0.0,0.0,0.0,0.0,0.0,0.0,0.0,0.0,0.0,0.0,0.0,0.0,0.0,0.0,0.0,0.0,0.0,0.0,0.0,0.0,-3.8689,0.0,0.0,0.0,0.0,0.0,0.0,0.0,0.0,0.0,0.0,0.0,0.0,0.0,0.0,-4.9824,-5.2454,-5.3236,-5.4317,0.0,0.0,-5.6505,-5.8692,-5.7901,-5.675,0.0,0.0,0.0,0.0,0.0,0.0,0.0,0.0,0.0,0.0,0.0,0.0,0.0,0.0,0.0,0.0,0.0,0.0,0.0,0.0,0.0,0.0,0.0,0.0,0.0,0.0,0.0,0.0,0.0,0.0,0.0,0.0,0.0,0.0,0.0,0.0,0.0,0.0,0.0,0.0,0.0,0.0,0.0,0.0,0.0,0.0,0.0,0.0,0.0,0.0,0.0,0.0,0.0,0.0,-3.6122,-3.8525,-3.9564,-4.0778,-4.2098,-4.259,-4.3044,-4.3627,-4.2295,-4.129,0.0,0.0,0.0,0.0,0.0,0.0,0.0,0.0,0.0,0.0,0.0,0.0,0.0,0.0,0.0,0.0,0.0,0.0,0.0,0.0,0.0,0.0,0.0,0.0,0.0,0.0,0.0,0.0,0.0,0.0,0.0,0.0,0.0,0.0,0.0,0.0,0.0,0.0,0.0,0.0,0.0,-5.0749,-5.3269,-5.5059,-5.6294,0.0,-5.7654,-5.8439,-5.8977,-5.8464,-5.7482,-5.6015,0.0,0.0,0.0,0.0,0.0,0.0,0.0,0.0,0.0,0.0,0.0,0.0,0.0,0.0,0.0,0.0,0.0,0.0,0.0,0.0,0.0,0.0,0.0,0.0,0.0,0.0,0.0,0.0,0.0,0.0,0.0,0.0,0.0,0.0,0.0,0.0,0.0,0.0,0.0,0.0,0.0,0.0,0.0,0.0,0.0,0.0,0.0,0.0,0.0,0.0,0.0,0.0,0.0,-3.612,-3.8485,-3.9779,-4.1207,-4.2739,-4.3281,-4.3723,-4.4109,-4.2847,-4.182,0.0,0.0,0.0,0.0,0.0,0.0,0.0,0.0,0.0,0.0,0.0,0.0,0.0,0.0,0.0,0.0,0.0,0.0,0.0,0.0,0.0,0.0,0.0,0.0,0.0,0.0,0.0,0.0,-3.9129,-3.9239,-3.8762,0.0,0.0,0.0,0.0,0.0,0.0,0.0,0.0,0.0,0.0,-5.1999,-5.464,-5.6093,0.0,0.0,-5.8791,-5.8911,-5.9243,-5.8719,-5.758,-5.5516,-5.3259,0.0,0.0,0.0,0.0,0.0,0.0,0.0,0.0,0.0,0.0,0.0,0.0,0.0,0.0,0.0,0.0,0.0,0.0,0.0,0.0,0.0,0.0,0.0,0.0,0.0,0.0,0.0,0.0,0.0,0.0,0.0,0.0,0.0,0.0,0.0,0.0,0.0,0.0,0.0,0.0,0.0,0.0,0.0,0.0,0.0,0.0,0.0,0.0,0.0,0.0,0.0,0.0,-3.6434,-3.9193,-4.0268,-4.1699,-4.3545,-4.4002,-4.4358,-4.46,-4.3576,-4.2696,0.0,0.0,0.0,0.0,0.0,0.0,0.0,0.0,0.0,0.0,0.0,0.0,0.0,0.0,0.0,0.0,0.0,0.0,0.0,0.0,0.0,0.0,0.0,0.0,0.0,0.0,0.0,0.0,-3.9228,-3.9338,-3.8823,0.0,0.0,0.0,0.0,0.0,0.0,0.0,0.0,0.0,0.0,-5.2944,-5.5572,-5.6755,-5.7862,-5.9244,-5.9033,-5.8809,-5.9086,-5.8546,-5.7362,-5.5186,0.0,0.0,0.0,0.0,0.0,0.0,0.0,0.0,0.0,0.0,0.0,0.0,0.0,0.0,0.0,0.0,0.0,0.0,0.0,0.0,0.0,0.0,0.0,0.0,0.0,0.0,0.0,-3.509,0.0,0.0,-3.4769,0.0,0.0,0.0,0.0,0.0,0.0,0.0,0.0,0.0,0.0,0.0,0.0,0.0,0.0,0.0,0.0,0.0,0.0,0.0,0.0,0.0,0.0,-3.7411,-4.0781,-4.1193,-4.237,-4.4315,-4.464,-4.4917,-4.5131,-4.4559,-4.387,-4.3028,0.0,0.0,0.0,0.0,0.0,0.0,0.0,0.0,0.0,0.0,0.0,0.0,0.0,0.0,0.0,0.0,0.0,0.0,0.0,0.0,0.0,0.0,0.0,0.0,0.0,0.0,-3.9039,-3.8929,-3.8929,0.0,0.0,0.0,0.0,0.0,0.0,0.0,0.0,0.0,-4.7822,-5.0572,-5.3252,-5.5923,-5.7136,-5.7887,-5.8145,-5.8218,-5.8304,-5.8476,-5.7889,-5.6858,0.0,0.0,0.0,0.0,0.0,0.0,0.0,0.0,0.0,0.0,0.0,0.0,0.0,0.0,0.0,0.0,0.0,0.0,0.0,0.0,0.0,0.0,0.0,0.0,0.0,0.0,0.0,-3.7885,-3.784,0.0,0.0,0.0,0.0,0.0,0.0,0.0,0.0,0.0,0.0,0.0,-4.0602,-4.0883,0.0,0.0,0.0,0.0,0.0,0.0,0.0,0.0,0.0,0.0,0.0,0.0,-3.9139,-4.099,-4.2375,-4.3678,-4.4954,-4.5232,-4.5409,-4.5602,-4.4918,-4.3671,-4.1783,0.0,0.0,0.0,0.0,0.0,0.0,0.0,0.0,0.0,0.0,0.0,0.0,0.0,0.0,0.0,0.0,0.0,0.0,0.0,0.0,0.0,0.0,0.0,0.0,0.0,-4.1138,0.0,0.0,0.0,0.0,0.0,0.0,0.0,0.0,0.0,0.0,0.0,-4.7181,-4.9962,-5.2729,-5.5082,-5.6676,-5.7653,-5.8286,0.0,0.0,0.0,0.0,0.0,0.0,0.0,0.0,0.0,0.0,0.0,0.0,0.0,0.0,-5.4677,-5.2277,-5.1732,-5.1782,-5.2351,0.0,0.0,0.0,0.0,0.0,0.0,0.0,0.0,0.0,0.0,0.0,0.0,0.0,0.0,-3.9889,0.0,-3.9355,0.0,0.0,0.0,0.0,0.0,0.0,0.0,0.0,-4.0791,-4.1948,-4.3165,-4.3717,-4.3772,0.0,-4.3802,-4.2063,0.0,0.0,0.0,0.0,0.0,0.0,0.0,0.0,-4.0482,-4.181,-4.331,-4.4577,-4.5465,-4.5671,-4.5781,-4.5879,-4.5191,-4.4015,-4.242,-4.1484,-4.0272,0.0,0.0,0.0,0.0,0.0,0.0,0.0,0.0,0.0,0.0,0.0,0.0,0.0,0.0,0.0,0.0,0.0,0.0,0.0,0.0,0.0,0.0,0.0,-4.168,0.0,0.0,0.0,0.0,0.0,0.0,0.0,0.0,0.0,-4.4519,-4.6733,-4.9129,-5.1334,-5.3745,-5.5702,-5.6669,0.0,0.0,0.0,0.0,0.0,0.0,0.0,-5.6959,-5.519,-5.5331,-5.5684,-5.573,-5.6626,-5.7414,-5.7635,0.0,0.0,-5.5366,-5.4931,-5.5136,-5.5637,-5.5913,-5.6182,-5.6633,-5.6479,-5.6023,0.0,0.0,0.0,0.0,0.0,0.0,0.0,0.0,-4.1204,-4.1232,0.0,-4.1258,0.0,0.0,0.0,0.0,-3.9866,-4.0732,0.0,0.0,-4.3691,-4.4806,-4.5802,-4.6908,-4.672,-4.5393,-4.551,-4.4785,-4.3188,-4.1168,0.0,0.0,0.0,0.0,0.0,0.0,-4.1416,-4.3098,-4.4093,-4.4993,-4.5852,-4.5959,-4.6052,-4.6087,-4.5351,-4.4915,-4.4784,-4.2558,-4.1182,-4.0964,-3.9455,0.0,0.0,0.0,0.0,0.0,0.0,0.0,0.0,0.0,0.0,0.0,0.0,0.0,0.0,0.0,0.0,0.0,0.0,0.0,0.0,-4.1184,0.0,0.0,0.0,0.0,0.0,0.0,0.0,0.0,0.0,0.0,-4.5252,-4.8238,-5.0871,-5.1978,0.0,0.0,0.0,0.0,-5.6088,-5.5986,-5.6558,-5.6734,-5.5834,-5.6945,-5.7351,-5.5635,0.0,0.0,-5.818,-5.8721,-5.929,-6.0035,-6.0584,-6.0591,-5.8713,-5.8792,-5.9212,-5.9252,-5.9741,-6.034,-6.0297,-5.9946,-5.969,-4.6686,0.0,0.0,0.0,0.0,-4.353,-4.4108,-4.4659,-4.4579,-4.4599,-4.4575,-4.3387,0.0,0.0,0.0,0.0,0.0,0.0,-4.3107,-4.3587,-4.5099,-4.6421,-4.7534,-4.8508,-4.8475,-4.7661,-4.7714,-4.6872,-4.5336,-4.4093,-4.3036,-4.2112,0.0,0.0,0.0,0.0,-4.3824,-4.4333,-4.5171,-4.577,-4.6054,-4.6053,-4.6091,-4.6187,-4.5933,-4.5494,-4.4865,-4.4124,-4.2857,-4.103,-4.0507,0.0,0.0,0.0,0.0,0.0,0.0,0.0,0.0,0.0,0.0,0.0,0.0,0.0,0.0,0.0,0.0,0.0,0.0,0.0,-4.3139,-4.3292,-4.3425,0.0,0.0,0.0,0.0,0.0,0.0,0.0,0.0,0.0,-4.9244,-5.0625,-5.2202,0.0,0.0,-5.572,-5.5887,-5.6319,-5.6501,-5.6287,-5.6906,0.0,-5.6738,-5.7051,-5.7111,-5.6479,-5.7129,-5.7745,-5.7791,-5.8716,-5.9594,-5.9812,-6.0344,-6.0737,-6.084,-6.0598,-6.0641,-6.1156,-6.1484,-6.173,-6.2205,-6.2077,-6.1569,-5.0314,-4.7341,-4.6005,-4.5437,-4.5458,-4.5954,-4.6449,-4.6904,-4.6858,-4.6716,-4.6375,-4.536,-4.4742,-4.446,-4.3996,0.0,0.0,0.0,-4.4764,-4.5273,-4.6704,-4.7897,-4.8918,-4.9828,-4.9711,-4.8716,-4.8684,-4.7834,-4.6248,-4.5703,-4.5144,-4.4521,0.0,0.0,-4.3591,-4.4374,-4.4804,-4.4837,-4.5609,-4.6062,-4.6069,-4.6047,-4.6084,-4.6143,-4.6154,-4.5889,-4.5343,-4.4984,-4.4072,-4.2471,-4.1807,-4.0634,0.0,0.0,0.0,0.0,0.0,0.0,0.0,0.0,0.0,0.0,0.0,-3.8273,-3.8529,0.0,0.0,0.0,-4.153,-4.2964,-4.463,-4.4585,0.0,0.0,0.0,0.0,0.0,0.0,0.0,-4.8911,-5.0801,-5.225,-5.2888,-5.359,-5.4331,-5.5095,-5.6129,-5.6719,-5.6536,0.0,-5.6825,-5.6559,-5.7172,-5.7446,-5.6877,-5.7296,-5.7676,-5.7492,-5.7707,-5.8025,-5.8317,-5.8998,-5.9567,-5.9936,-6.0324,-6.0709,-6.114,-6.095,-6.108,-6.2224,-6.2656,-6.3014,-6.3493,-6.3282,-6.2881,-5.3079,-5.1323,-4.9376,-4.8476,-4.8333,-4.8253,-4.8282,-4.8326,-4.8201,-4.7703,-4.7055,-4.7028,-4.6591,-4.5824,-4.5989,0.0,-4.4982,-4.5768,-4.6569,-4.7421,-4.8318,-4.9179,-5.0037,-5.0897,-5.0429,-4.8786,-4.8787,-4.793,-4.6363,-4.6289,-4.628,-4.6248,-4.4645,-4.3813,-4.3875,-4.4567,-4.4914,-4.4897,-4.5609,-4.5987,-4.5997,-4.6003,-4.6003,-4.6085,-4.6105,-4.6085,-4.6085,-4.5346,-4.4812,-4.4566,-4.3132,-4.1885,-4.0937,0.0,0.0,0.0,0.0,0.0,0.0,0.0,0.0,0.0,0.0,0.0,0.0,0.0,0.0,0.0,-4.2305,0.0,-4.5852,-4.5362,0.0,0.0,0.0,-4.6878,-4.8529,-4.948,-5.0623,-5.2303,0.0,0.0,-5.5909,-5.6731,-5.6924,-5.6135,-5.7095,-5.7819,-5.7569,-5.7279,-5.7045,-5.6845,-5.7379,-5.7449,-5.6811,-5.7698,-5.8429,-5.8344,-5.8312,-5.8399,-5.8989,-5.9117,-5.9428,-5.9905,-6.0199,-6.0236,-6.0272,-6.0272,-6.0786,-6.2218,-6.3209,-6.3833,-6.3833,-6.3731,-6.3503,-5.4372,-5.3253,-5.2094,-5.0849,-4.9585,-4.9508,-4.9843,-5.0261,-4.8972,-4.8319,-4.8122,-4.687,-4.6248,-4.6118,-4.6831,-4.7008,-4.6869,-4.7695,-4.8197,-4.8418,-4.9256,-4.9809,-5.0061,-5.0875,-5.0399,-4.8794,-4.8716,-4.7869,-4.6276,-4.6234,-4.62,-4.6129,-4.5708,-4.5538,-4.5589,-4.5648,-4.5677,-4.5618,-4.5809,-4.5917,-4.5932,-4.5932,-4.598,-4.6105,-4.6104,-4.6122,-4.6091,-4.5888,-4.517,-4.3869,-4.3411,-4.2229,-4.0202,-3.909,0.0,0.0,0.0,0.0,0.0,0.0,0.0,0.0,0.0,-3.9344,-3.951,0.0,-4.1025,0.0,-4.3335,-4.5053,-4.68,-4.6826,0.0,0.0,-4.8633,-4.9445,-5.0457,-5.1269,-5.2434,-5.4103,-5.5019,-5.5884,-5.6808,-5.8008,-5.8604,-5.803,-5.7576,-5.7203,-5.697,-5.73,-5.7416,-5.7292,-5.7806,-5.8164,-5.7808,-5.7929,-5.8142,-5.8133,-5.8088,-5.8116,-5.83,-5.8336,-5.8364,-5.8547,-5.8584,-5.8804,-5.9391,-5.9501,-5.9869,-6.0786,-6.163,-6.2365,-6.2989,-6.2998,-6.2896,-5.5384,-5.4528,-5.3633,-5.2499,-5.1154,-5.0728,-5.0771,-5.1055,-4.9759,-4.8963,-4.8542,-4.6922,-4.6435,-4.6846,-4.7311,-4.776,-4.8164,-4.8619,-4.8986,-4.9307,-4.98,-5.0169,-5.0525,-5.0984,-5.0283,-4.86,-4.8603,-4.7735,-4.617,-4.6147,-4.6103,-4.6034,-4.6037,-4.6019,-4.5996,-4.597,-4.5932,-4.5829,-4.5838,-4.581,-4.5824,-4.5863,-4.5906,-4.6056,-4.5715,-4.5546,-4.5554,-4.5204,-4.4534,-4.3575,-4.3202,-4.2408,-4.1026,-3.9753,-3.8883,0.0,0.0,0.0,0.0,0.0,0.0,0.0,0.0,0.0,0.0,0.0,-4.2096,-4.37,-4.4743,-4.603,-4.7754,-4.828,-4.8863,-4.9709,-5.0537,-5.1481,-5.2697,-5.3191,-5.4077,-5.5733,-5.6643,-5.7429,-5.8102,-5.9142,-5.9676,-5.9216,-5.8505,-5.7968,-5.7679,-5.7813,-5.7905,-5.7734,-5.8017,-5.8231,-5.8133,-5.8042,-5.7997,-5.7997,-5.7997,-5.7997,-5.7997,-5.7997,-5.7997,-5.7997,-5.7997,-5.8107,-5.8584,-5.8694,-5.8951,-5.9685,-6.0199,-6.0786,-6.1594,-6.1691,-6.1642,-5.6124,-5.5231,-5.4372,-5.3483,-5.2632,-5.1679,-5.1286,-5.1244,-5.027,-4.9268,-4.8317,-4.7006,-4.6882,-4.7598,-4.785,-4.832,-4.9062,-4.9085,-4.9508,-5.0135,-5.0169,-5.0505,-5.1062,-5.1102,-5.0158,-4.8425,-4.8448,-4.7611,-4.6017,-4.606,-4.6035,-4.5975,-4.5917,-4.5866,-4.5796,-4.594,-4.5955,-4.5765,-4.5726,-4.5671,-4.568,-4.578,-4.5863,-4.5958,-4.5248,-4.4853,-4.4861,-4.4065,-4.3552,-4.3444,-4.2773,-4.2357,-4.2208,-4.0688,-3.9858,0.0,-3.9177,0.0,0.0,0.0,0.0,0.0,0.0,0.0,0.0,-4.2597,-4.3626,-4.582,-4.6243,-4.7087,-4.8677,-4.9557,-5.0381,-5.1226,-5.2098,-5.3213,-5.4667,-5.4878,-5.5509,-5.7004,-5.7834,-5.8526,-5.9249,-5.9907,-6.0113,-5.9823,-5.9496,-5.9102,-5.8788,-5.8498,-5.8319,-5.8179,-5.8088,-5.8042,-5.7997,-5.7997,-5.7997,-5.7997,-5.7997,-5.7997,-5.7997,-5.7997,-5.7997,-5.7997,-5.7997,-5.7997,-5.7997,-5.7997,-5.8253,-5.8914,-5.9098,-5.9428,-6.0272,-6.0529,-6.0419,-5.6084,-5.5216,-5.4312,-5.3401,-5.2528,-5.1632,-5.123,-5.1208,-4.9609,-4.8082,-4.6729,-4.7105,-4.7383,-4.7617,-4.8984,-4.9726,-4.9922,-5.061,-5.0957,-5.1039,-5.0985,-5.0967,-5.1051,-5.1058,-5.0156,-4.8463,-4.8451,-4.7621,-4.5902,-4.5991,-4.5968,-4.5841,-4.5827,-4.577,-4.5774,0.0,0.0,0.0,-4.562,-4.5654,-4.568,-4.5835,-4.5944,-4.6056,-4.5306,0.0,-4.4953,-4.4129,-4.3348,-4.265,-4.2485,0.0,0.0,0.0,0.0,0.0,0.0,0.0,0.0,0.0,0.0,0.0,-4.3011,-4.301,-4.3358,-4.4557,-4.5538,-4.5988,-4.7232,-4.8444,-4.9497,-5.0336,-5.1113,-5.193,-5.3344,-5.437,-5.4757,-5.5248,-5.5981,-5.6963,-5.7251,-5.7841,-5.9134,-5.9459,-5.9649,-5.9946,-5.9842,-5.9502,-5.9102,-5.8624,-5.8275,-5.8179,-5.8088,-5.7997,-5.7997,-5.7997,-5.7997,-5.7997,-5.7997,-5.7997,-5.7997,-5.7997,-5.7997,-5.7997,-5.7997,-5.796,-5.796,-5.7997,-5.796,-5.8217,-5.8217,-5.8657,-6.0089,-6.0382,-6.0419,-5.6068,-5.5194,-5.429,-5.3368,0.0,-5.1508,-5.1113,-5.1078,-4.9809,-4.8587,-4.7462,-4.7429,-4.7923,-4.8777,-4.9709,-5.0344,-5.0773,-5.1187,-5.1362,-5.1291,-5.1229,-5.1099,-5.0945,-5.1006,-5.0055,-4.8361,-4.841,-4.7546,-4.5984,-4.5958,-4.5932,-4.5828,-4.5863,-4.5804,-4.5765,-4.6136,-4.632,-4.624,-4.5817,-4.5637,-4.568,-4.5843,-4.5945,-4.6017,-4.5323,0.0,0.0,0.0,0.0,0.0,0.0,0.0,0.0,-4.2014,0.0,-4.175,-4.1789,-4.1984,-4.2414,-4.3222,-4.3856,-4.4267,-4.4612,-4.462,-4.4175,-4.564,-4.6776,-4.7179,-4.8348,-4.9364,-5.0279,-5.1068,-5.1881,-5.274,-5.3872,-5.4727,-5.5172,-5.5537,-5.6092,-5.6862,-5.6994,-5.745,-5.8649,-5.8779,-5.9,-5.954,-5.952,-5.9235,-5.8869,-5.8646,-5.8492,-5.8223,-5.8088,-5.7997,-5.7997,-5.7997,-5.796,-5.7997,-5.7997,-5.7997,-5.7997,-5.7997,-5.7997,-5.796,-5.7703,-5.7409,-5.7373,-5.7116,-5.6785,-5.6859,-5.7116,-5.7593,-5.851,-5.8951,-5.9208,-5.5834,-5.4874,-5.4009,-5.3059,-5.208,-5.1309,-5.097,-5.0913,0.0,0.0,0.0,-4.804,-4.8612,-4.9956,-5.0186,-5.0659,-5.1367,-5.1375,-5.1375,-5.1293,-5.1219,-5.1044,-5.0692,-5.0687,-4.976,-4.8083,-4.8135,-4.7403,-4.597,-4.5983,-4.6003,-4.5939,-4.5914,-4.597,-4.6035,-4.588,-4.6182,-4.6848,-4.6061,-4.5671,-4.5735,-4.5834,-4.5919,-4.5988,-4.53,-4.4918,-4.4961,-4.4146,-4.3681,-4.3684,-4.3704,-4.371,-4.371,-4.3696,-4.3716,-4.3708,-4.3825,-4.3903,-4.3938,-4.4719,-4.5162,-4.5056,-4.5638,-4.5664,-4.4955,-4.6409,-4.7597,-4.829,-4.9227,-5.0085,-5.0819,-5.1597,-5.2352,-5.3086,-5.3938,-5.4765,-5.5458,-5.5668,-5.5972,-5.6626,-5.6703,-5.7088,-5.7866,-5.7981,-5.828,-5.8847,-5.888,-5.8682,-5.8353,-5.8166,-5.8021,-5.7678,-5.7463,-5.7556,-5.774,-5.7519,-5.7629,-5.7703,-5.7593,-5.7556,-5.7556,-5.7556,-5.7556,-5.7409,-5.7005,-5.6675,-5.6528,-5.6124,-5.5611,-5.5611,-5.6124,-5.6602,-5.6638,-5.7116,-5.7666,-5.4942,-5.4009,-5.3011,-5.2069,-5.1192,-5.1014,-5.0897,-5.0786,-5.0076,-4.9248,-4.8485,-4.9096,-4.9535,-4.9854,-5.0627,-5.1086,-5.1302,-5.1288,-5.1297,-5.1293,-5.1259,-5.0739,-4.9915,-4.9892,-4.8977,-4.7456,-4.7417,-4.6989,-4.6141,-4.6074,-4.6076,-4.5998,-4.5987,-4.6335,-4.6862,-4.628,-4.6255,-4.7038,-4.622,-4.5765,-4.5781,-4.5858,-4.5944,-4.5958,-4.5257,-4.4869,-4.4904,-4.4075,-4.3626,-4.3626,-4.3681,-4.369,-4.3687,-4.3723,-4.3665,-4.3656,-4.4312,-4.4727,-4.4737,-4.5468,-4.5891,-4.5759,-4.5801,-4.5815,-4.5803,-4.7207,-4.8176,-4.8287,-4.9581,-5.0604,-5.076,-5.1434,-5.1973,-5.2242,-5.3531,-5.4531,-5.4724,-5.528,-5.5703,-5.5934,-5.5857,-5.6242,-5.7011,-5.7203,-5.7428,-5.8127,-5.817,-5.7853,-5.7375,-5.6818,-5.6455,-5.616,-5.6029,-5.6235,-5.6748,-5.6345,-5.6381,-5.6895,-5.6418,-5.6124,-5.6124,-5.6124,-5.6124,-5.5978,-5.5904,-5.5794,-5.5757,-5.5684,-5.5464,-5.5427,-5.5611,-5.5757,-5.5757,-5.5941,-5.6418,-5.4757,-5.3822,-5.2874,-5.1886,-5.1009,-5.0841,-5.0776,-5.0701,-5.0426,-5.0061,-4.9756,-4.9699,-4.9921,-5.0455,-5.0894,-5.1159,-5.1239,-5.1264,-5.1291,-5.1284,-5.0744,-5.0234,-4.9755,-4.9265,-4.8438,-4.7299,-4.7334,-4.6931,-4.6232,-4.6151,-4.6137,-4.6108,-4.6115,-4.6319,-4.659,-4.627,-4.6222,-4.653,-4.6048,-4.581,-4.5819,-4.5858,-4.5877,-4.5905,-4.5537,-4.5444,-4.5481,-4.5134,-4.4968,-4.4955,-4.5006,-4.5084,-4.5066,-4.502,-4.5,-4.4962,-4.5296,-4.5511,-4.5493,-4.5792,-4.5929,-4.5854,-4.5775,-4.5771,-4.5781,-4.6854,-4.7713,-4.8123,-4.9316,-5.0183,-5.0625,-5.1048,-5.1433,-5.1856,-5.2664,-5.3472,-5.4357,-5.478,-5.5203,-5.5588,-5.5703,-5.5857,-5.6242,-5.628,-5.6626,-5.7351,-5.7364,-5.7014,-5.6595,-5.5723,-5.5359,-5.5817,-5.5828,-5.5845,-5.6095,-5.5868,-5.5794,-5.6124,-5.5831,-5.5611,-5.5611,-5.5574,-5.5574,-5.5537,-5.528,-5.4987,-5.495,-5.4583,-5.4363,-5.4363,-5.4693,-5.4876,-5.495,-5.5244,-5.5831,-5.4463,-5.3572,-5.2628,-5.1753,-5.0995,-5.0825,-5.074,-5.076,-5.0721,-5.076,-5.076,-5.0138,-5.0262,-5.0921,-5.1005,-5.1101,-5.119,-5.1278,-5.1203,-5.0922,-5.0267,-4.9698,-4.9237,-4.8538,-4.7822,-4.7155,-4.7106,-4.6824,-4.627,-4.6231,-4.6201,-4.621,-4.619,-4.6224,-4.6224,-4.6208,-4.6169,-4.6091,-4.5953,-4.5827,-4.581,-4.5795,-4.5795,-4.58,-4.5841,-4.5905,-4.5964,-4.6025,-4.6076,-4.6044,-4.6099,-4.6122,-4.6124,-4.6066,-4.6056,-4.6046,-4.5986,-4.5964,-4.5964,-4.5905,-4.5867,-4.5815,-4.5757,-4.5719,-4.578,-4.6287,-4.6968,-4.7778,-4.8779,-4.9702,-5.0279,-5.0625,-5.0971,-5.1548,-5.1818,-5.2472,-5.3664,-5.4087,-5.4434,-5.5049,-5.5126,-5.5088,-5.5126,-5.5126,-5.5434,-5.6121,-5.6343,-5.6229,-5.5835,-5.5001,-5.4938,-5.536,-5.5525,-5.5354,-5.538,-5.527,-5.5233,-5.538,-5.5233,-5.5085,-5.5006,-5.5073,-5.5067,-5.492,-5.4509,-5.4179,-5.4069,-5.3702,-5.3371,-5.3408,-5.3812,-5.4106,-5.4142,-5.4509,-5.5207,-5.3617,-5.2728,-5.1779,-5.1214,-5.102,-5.0906,-5.0868,-5.0856,-5.076,-5.0702,-5.0721,-5.0606,-5.0642,-5.0829,-5.0885,-5.0983,-5.1127,-5.122,-5.0852,-5.0221,-5.0023,-4.9166,-4.779,-4.7523,-4.7056,-4.6395,-4.6346,-4.6376,-4.6292,-4.6279,-4.6275,-4.6231,-4.622,-4.622,-4.622,-4.6209,-4.6183,-4.6107,-4.6027,-4.5941,-4.5893,-4.5824,-4.5819,-4.5795,-4.5812,-4.5804,-4.5827,-4.5866,-4.5932,-4.5932,-4.5929,-4.5929,-4.5929,-4.5929,-4.5905,-4.5919,-4.5919,-4.5893,-4.5827,-4.588,-4.588,-4.5814,-4.5795,-4.5804,-4.5781,-4.5835,-4.6155,-4.7027,-4.8432,-4.9317,-4.9548,-5.0202,-5.0664,-5.0894,-5.1471,-5.201,-5.2279,-5.2856,-5.3356,-5.3395,-5.3626,-5.3433,-5.3626,-5.3626,-5.3874,-5.4677,-5.5186,-5.535,-5.5183,-5.4981,-5.4671,-5.4623,-5.4315,-5.4388,-5.4756,-5.4385,-5.4459,-5.483,-5.4343,-5.4081,-5.4041,-5.381,-5.3539,-5.3801,-5.3419,-5.323,-5.3267,-5.3225,-5.3151,-5.3041,-5.3225,-5.3371,-5.3335,-5.3518,-5.4032,-5.3022,-5.2624,-5.1693,-5.1234,-5.1092,-5.0985,-5.0975,-5.0924,-5.0794,-5.074,-5.0645,-5.0164,-5.0202,-5.0699,-5.0331,-5.0449,-5.0945,-5.016,-4.9861,-4.9892,-4.8989,-4.8117,-4.7423,-4.6902,-4.6512,-4.6222,-4.6248,-4.6275,-4.6292,-4.6265,-4.622,-4.6245,-4.6249,-4.6249,-4.6245,-4.6226,-4.619,-4.6138,-4.6017,-4.5929,-4.5827,-4.5757,-4.5735,-4.5687,-4.5709,-4.5726,-4.5735,-4.5819,-4.5863,-4.5838,-4.5827,-4.5854,-4.5854,-4.5827,-4.5852,-4.5838,-4.581,-4.5757,-4.5742,-4.5814,-4.5854,-4.588,-4.5854,-4.5841,-4.5854,-4.5814,-4.595,-4.6314,-4.7311,-4.8279,-4.9202,-4.974,-5.0125,-5.0587,-5.101,-5.1356,-5.1895,-5.2202,-5.2626,-5.3087,-5.3203,-5.3164,-5.3203,-5.3203,-5.3336,-5.3618,-5.398,-5.4081,-5.3899,-5.4142,-5.4341,-5.4173,-5.3936,-5.3988,-5.4278,-5.4168,-5.4093,-5.4242,-5.4131,-5.3833,-5.3646,-5.3274,-5.2937,-5.2897,-5.2486,-5.2188,-5.2001,-5.2441,-5.2699,-5.2692,-5.2968,-5.3225,-5.3225,-5.3225,-5.3592,-5.256,-5.2284,-5.1655,-5.1318,-5.1211,-5.1133,-5.1062,-5.1044,-5.0929,-5.0696,-5.0337,-4.9682,-4.9624,-4.9874,-4.9468,-4.965,-5.0104,-4.9137,-4.8879,-4.9142,-4.802,-4.7351,-4.7011,-4.6521,-4.6242,-4.6248,-4.6275,-4.6288,-4.6288,-4.6209,-4.6209,-4.6288,-4.6296,-4.63,-4.6296,-4.6231,-4.619,-4.6185,-4.6017,-4.5879,-4.5841,-4.5742,-4.5687,-4.5603,-4.5659,-4.5676,-4.5637,-4.5703,-4.5735,-4.5735,-4.5765,-4.5742,-4.5742,-4.575,-4.5789,-4.575,-4.5765,-4.5742,-4.5757,-4.5827,-4.5893,-4.5964,-4.5975,-4.5947,-4.5947,-4.5941,-4.5893,-4.5945,-4.6321,-4.7268,-4.8449,-4.8931,-4.9452,-5.0221,-5.0375,-5.0664,-5.1433,-5.1587,-5.1779,-5.2395,-5.2356,-5.251,-5.2549,-5.2626,-5.2797,-5.2794,-5.2986,-5.3097,-5.3046,-5.3436,-5.3733,-5.3633,-5.3582,-5.3642,-5.3828,-5.3616,-5.3658,-5.3583,-5.347,-5.3365,-5.3449,-5.2853,-5.2449,-5.2268,-5.1711,-5.149,-5.1603,-5.1937,-5.2121,-5.2077,-5.2327,-5.2692,-5.2512,-5.2766,-5.2987,-5.2224,-5.1515,-5.1398,-5.1382,-5.1297,-5.1297,-5.1234,-5.1163,-5.0998,-5.0465,-4.9738,-4.945,-4.9008,-4.8279,-4.8298,-4.8428,-4.8546,-4.8528,-4.8154,-4.7693,-4.7506,-4.7054,-4.6288,-4.6264,-4.6284,-4.6296,-4.6303,-4.6261,-4.6192,-4.6196,-4.6196,-4.6231,-4.6279,-4.6292,-4.6296,-4.6226,-4.6196,-4.6169,-4.6066,-4.598,-4.5893,-4.5824,-4.5742,-4.562,-4.5603,-4.5642,-4.5603,-4.5603,-4.5603,-4.5642,-4.562,-4.562,-4.5603,-4.562,-4.5637,-4.5687,-4.5824,-4.5867,-4.5905,-4.5991,-4.6085,-4.6085,-4.606,-4.6091,-4.6076,-4.6017,-4.6007,-4.5986,-4.6007,-4.6396,-4.7109,-4.7918,-4.8582,-4.9391,-4.9509,-4.9856,-5.0587,-5.0587,-5.0741,-5.0779,-5.0779,-5.0856,-5.0856,-5.151,-5.1856,-5.2067,-5.2605,-5.3007,-5.2888,-5.302,-5.3069,-5.3,-5.2992,-5.3148,-5.3552,-5.3348,-5.2817,-5.2817,-5.2891,-5.2521,-5.2319,-5.2114,-5.1957,-5.179,-5.1424,-5.132,-5.1442,-5.1484,-5.1525,-5.1528,-5.1528,-5.1714,-5.1898,-5.227,-5.2567,-5.1679,-5.1405,-5.1405,-5.1364,-5.1357,-5.1346,-5.1318,-5.1186,-5.0537,-4.9998,-4.9423,-4.8372,-4.7643,-4.7317,-4.6837,-4.7255,-4.816,-4.7337,-4.7023,-4.7245,-4.6898,-4.6499,-4.6245,-4.6261,-4.6312,-4.6315,-4.6309,-4.6296,-4.624,-4.622,-4.622,-4.627,-4.6279,-4.6292,-4.6292,-4.622,-4.6176,-4.6115,-4.6007,-4.5917,-4.5905,-4.5902,-4.5858,-4.5786,-4.5758,-4.5748,-4.5719,-4.5709,-4.5637,-4.5676,-4.5642,-4.5603,-4.5676,-4.5687,-4.5735,-4.5781,-4.5854,-4.5902,-4.5997,-4.6115,-4.6152,-4.6154,-4.617,-4.6153,-4.6176,-4.6151,-4.6115,-4.6113,-4.6074,-4.6202,-4.6441,-4.708,-4.7835,-4.848,-4.8659,-4.8739,-4.8933,-4.9048,-4.9048,-4.9048,-4.9048,-4.924,-4.9817,-5.0125,-5.051,-5.1048,-5.1433,-5.1605,-5.1682,-5.197,-5.2295,-5.2274,-5.2252,-5.2308,-5.2494,-5.2766,-5.2705,-5.2705,-5.2691,-5.2601,-5.2444,-5.1809,-5.1547,-5.1386,-5.111,-5.0786,-5.0764,-5.0917,-5.0932,-5.1391,-5.1398,-5.1214,-5.1448,-5.1775,-5.2188,-5.1406,-5.1406,-5.1406,-5.1406,-5.1367,-5.113,-5.0962,-5.0781,-4.9862,-4.9213,-4.8601,-4.7465,-4.6796,-4.6432,-4.5932,-4.6236,-4.7289,-4.6329,-4.6215,-4.6768,-4.6319,-4.613,-4.6162,-4.624,-4.6264,-4.6264,-4.6264,-4.6296,-4.6284,-4.624,-4.6236,-4.6314,-4.6284,-4.6292,-4.6288,-4.6248,-4.6169,-4.6107,-4.6017,-4.5953,-4.5953,-4.5984,-4.5984,-4.598,-4.5932,-4.5866,-4.5824,-4.5804,-4.5758,-4.5758,-4.5703,-4.5703,-4.5789,-4.5824,-4.5841,-4.588,-4.5964,-4.6027,-4.6065,-4.6177,-4.6247,-4.6248,-4.6257,-4.6231,-4.6222,-4.6253,-4.6236,-4.6248,-4.6164,-4.6125,-4.6201,-4.6522,-4.7081,-4.7689,-4.7824,-4.7927,-4.8105,-4.8163,-4.8163,-4.8202,-4.824,-4.8471,-4.8894,-4.924,-4.9663,-5.024,-5.0471,-5.0664,-5.0779,-5.1125,-5.151,-5.151,-5.149,-5.149,-5.1565,-5.1727,-5.1775,-5.1813,-5.1959,-5.2103,-5.2117,-5.1481,-5.1152,-5.095,-5.0672,-5.0241,-5.0138,-5.0289,-5.0665,-5.1209,-5.1028,-5.0727,-5.1005,-5.1243,-5.1688,-5.1406,-5.1367,-5.1406,-5.1328,-5.1172,-5.0508,-5.015,-4.9934,-4.9079,-4.8195,-4.7472,-4.7014,-4.6463,-4.5796,-4.568,-4.5719,-4.5873,-4.583,-4.5873,-4.6007,-4.597,-4.5991,-4.6085,-4.6169,-4.6209,-4.6203,-4.6206,-4.6214,-4.6279,-4.6257,-4.6257,-4.6279,-4.6292,-4.6292,-4.6275,-4.6242,-4.6222,-4.6169,-4.6113,-4.6076,-4.6124,-4.6095,-4.6105,-4.616,-4.6099,-4.6056,-4.5932,-4.5918,-4.5852,-4.5814,-4.58,-4.5827,-4.5893,-4.5879,-4.5925,-4.5997,-4.6134,-4.6185,-4.6176,-4.6261,-4.6293,-4.6292,-4.6284,-4.6289,-4.6289,-4.6285,-4.628,-4.6276,-4.6228,-4.6214,-4.6192,-4.6196,-4.6454,-4.6965,-4.7032,-4.7301,-4.7773,-4.8028,-4.8048,-4.7894,-4.7817,-4.8009,-4.824,-4.8625,-4.9125,-4.9586,-5.0087,-5.0587,-5.0625,-5.0702,-5.0664,-5.0664,-5.051,-5.0317,-5.0471,-5.0664,-5.0664,-5.0682,-5.0853,-5.1041,-5.1152,-5.0823,-5.084,-5.068,-5.0673,-5.0283,-5.0236,-5.0355,-5.0291,-5.0582,-5.0354,-5.0377,-5.0578,-5.0865,-5.1185,-5.1406,-5.1328,-5.082,-5.0586,-5.0469,-4.9648,-4.9257,-4.9097,-4.8216,-4.7595,-4.7172,-4.6515,-4.6034,-4.5753,-4.568,-4.568,-4.568,-4.5719,-4.5789,-4.5835,-4.5863,-4.5932,-4.6034,-4.6085,-4.613,-4.6203,-4.6245,-4.63,-4.63,-4.628,-4.628,-4.63,-4.6306,-4.63,-4.6309,-4.6209,-4.6196,-4.619,-4.6154,-4.6099,-4.6154,-4.6169,-4.6196,-4.6187,-4.6203,-4.613,-4.6115,-4.6017,-4.5953,-4.5941,-4.5905,-4.5905,-4.5953,-4.5997,-4.6076,-4.6143,-4.6185,-4.6235,-4.6275,-4.6279,-4.6288,-4.6303,-4.6285,-4.6289,-4.6289,-4.6289,-4.6289,-4.6289,-4.6289,-4.6241,-4.6249,-4.6201,-4.6268,-4.6324,-4.628,-4.6341,-4.66,-4.6574,-4.6446,-4.6446,-4.6411,-4.6624,-4.7163,-4.7663,-4.8202,-4.9125,-4.9586,-4.9933,-5.0433,-5.0087,-4.9817,-4.9779,-4.9433,-4.9163,-4.9317,-4.9433,-4.9433,-4.974,-5.0067,-5.0355,-5.0412,-5.0604,-5.0584,-5.0542,-5.0521,-5.0478,-5.0457,-5.0412,-5.0329,-5.0283,-5.0388,-5.0364,-5.0288,-5.0541,-5.0909,-5.1211,-5.0898,-5.0391,-5.0,-4.9648,-4.8789,-4.8398,-4.8203,-4.7327,-4.6898,-4.6696,-4.6189,-4.5858,-4.5742,-4.5753,-4.5757,-4.5736,-4.5765,-4.5824,-4.5873,-4.5877,-4.5932,-4.6021,-4.6115,-4.6162,-4.6209,-4.6249,-4.63,-4.6303,-4.6285,-4.6287,-4.628,-4.6278,-4.6309,-4.6279,-4.6226,-4.6209,-4.6203,-4.6183,-4.6176,-4.6229,-4.622,-4.6218,-4.6234,-4.6222,-4.624,-4.6226,-4.6176,-4.6083,-4.6076,-4.6035,-4.6046,-4.6095,-4.6113,-4.6185,-4.6229,-4.6248,-4.627,-4.63,-4.6312,-4.6278,-4.628,-4.6287,-4.6289,-4.6289,-4.6289,-4.6289,-4.6289,-4.6289,-4.6287,-4.6276,-4.6261,-4.6197,-4.6084,-4.6027,-4.5879,-4.5852,-4.5781,-4.5773,-4.5835,-4.5764,-4.5962,-4.6313,-4.6835,-4.7258,-4.8279,-4.874,-4.9009,-4.9471,-4.924,-4.9048,-4.8856,-4.8663,-4.8432,-4.8202,-4.8202,-4.8202,-4.874,-4.9356,-4.9721,-4.999,-5.0452,-5.0624,-5.0624,-5.0604,-5.0584,-5.0563,-5.0542,-5.0521,-5.05,-5.0457,-5.0478,-5.0478,-5.0478,-5.0747,-5.0937,-5.0234,-5.0117,-4.957,-4.875,-4.7891,-4.7539,-4.7383,-4.6666,-4.6226,-4.6091,-4.6053,-4.5945,-4.5834,-4.5819,-4.5791,-4.5808,-4.5887,-4.5905,-4.5964,-4.5986,-4.5986,-4.6095,-4.6177,-4.6183,-4.6209,-4.6284,-4.6303,-4.6309,-4.6287,-4.6289,-4.6289,-4.6285,-4.6317,-4.63,-4.624,-4.6187,-4.6215,-4.6215,-4.6248,-4.6313,-4.6318,-4.6315,-4.6289,-4.6289,-4.6282,-4.6292,-4.6288,-4.6226,-4.6224,-4.6177,-4.6193,-4.6176,-4.6222,-4.6254,-4.6292,-4.63,-4.6303,-4.6309,-4.6285,-4.6289,-4.6289,-4.6289,-4.6289,-4.6289,-4.6289,-4.6289,-4.6289,-4.6289,-4.6289,-4.6289,-4.6278,-4.6261,-4.6175,-4.6052,-4.5978,-4.5905,-4.5919,-4.588,-4.5824,-4.5795,-4.5804,-4.5896,-4.642,-4.6771,-4.7199,-4.7699,-4.8084,-4.8335,-4.8335,-4.8125,-4.7932,-4.774,-4.7432,-4.7163,-4.7163,-4.7163,-4.7432,-4.824,-4.9009,-4.9663,-5.0279,-5.0664,-5.0702,-5.0702,-5.0702,-5.0702,-5.0624,-5.0624,-5.0604,-5.0604,-5.0702,-5.0644,-5.0604,-5.0642,-5.0937,-5.0156,-4.9531,-4.875,-4.7851,-4.7031,-4.6641,-4.6601,-4.6393,-4.6214,-4.6142,-4.6091,-4.6046,-4.5968,-4.5969,-4.5935,-4.594,-4.597,-4.6017,-4.6068,-4.6118,-4.6098,-4.6099,-4.6162,-4.6222,-4.6196,-4.6284,-4.6312,-4.6286,-4.6289,-4.6289,-4.6289,-4.6289,-4.6284,-4.6303,-4.6296,-4.6284,-4.627,-4.6284,-4.6288,-4.6288,-4.6292,-4.6315,-4.6289,-4.6289,-4.6289,-4.6289,-4.628,-4.627,-4.6201,-4.6236,-4.6275,-4.6284,-4.6284,-4.6292,-4.6303,-4.6282,-4.6289,-4.6289,-4.6289,-4.6289,-4.6289,-4.6289,-4.6289,-4.6289,-4.6289,-4.6289,-4.6289,-4.6289,-4.6289,-4.6289,-4.628,-4.627,-4.627,-4.6142,-4.6068,-4.6035,-4.6017,-4.5953,-4.5941,-4.5919,-4.588,-4.5916,-4.6042,-4.636,-4.6815,-4.7147,-4.7439,-4.7636,-4.7465,-4.7234,-4.6989,-4.674,-4.6394,-4.6163,-4.6163,-4.6201,-4.624,-4.7048,-4.8202,-4.9125,-5.0164,-5.051,-5.0702,-5.0702,-5.0702,-5.0702,-5.0682,-5.0702,-5.0702,-5.0702,-5.0702,-5.0702,-5.0644,-5.0644,-5.0742,-4.9609,-4.9101,-4.8203,-4.707,-4.6484,-4.6289,-4.6289,-4.6285,-4.6276,-4.6186,-4.6147,-4.6123,-4.6047,-4.6053,-4.6072,-4.6034,-4.6056,-4.6115,-4.6137,-4.621,-4.6187,-4.6144,-4.619,-4.6235,-4.6261,-4.6279,-4.6276,-4.6289,-4.6289,-4.6289,-4.6289,-4.6289,-4.6289,-4.6282,-4.6312,-4.6303,-4.6288,-4.6296,-4.6306,-4.6278,-4.628,-4.6285,-4.6289,-4.6289,-4.6289,-4.6289,-4.6288,-4.6285,-4.6241,-4.628,-4.628,-4.628,-4.628,-4.628,-4.628,-4.6289,-4.6289,-4.6289,-4.6289,-4.6289,-4.6289,-4.6289,-4.6289,-4.6289,-4.6289,-4.6289,-4.6289,-4.6289,-4.6289,-4.6289,-4.6285,-4.6282,-4.628,-4.6222,-4.6147,-4.6164,-4.6123,-4.6091,-4.6065,-4.6027,-4.5975,-4.5941,-4.5905,-4.61,-4.6408,-4.6482,-4.6776,-4.6978,-4.6677,-4.6452,-4.6304,-4.6232,-4.6018,-4.5924,-4.5907,-4.5988,-4.5988,-4.7066,-4.8009,-4.8894,-5.0087,-5.0471,-5.0702,-5.0702,-5.0702,-5.0702,-5.0702,-5.0702,-5.0702,-5.0702,-5.0702,-5.0702,-5.0702,-5.0702,-5.0351,-4.8906,-4.8789,-4.7812,-4.6445,-4.6289,-4.6289,-4.6289,-4.6289,-4.6249,-4.6243,-4.6189,-4.6187,-4.6123,-4.6169,-4.6173,-4.6105,-4.6154,-4.6215,-4.6253,-4.6264,-4.6253,-4.622,-4.6265,-4.6298,-4.6293,-4.6288,-4.628,-4.6367,-4.6367,-4.6484,-4.6562,-4.6523,-4.6484,-4.6523,-4.6403,-4.628,-4.6309,-4.6309,-4.628,-4.6289,-4.6289,-4.6289,-4.6289,-4.6289,-4.6289,-4.6289,-4.6289,-4.6289,-4.6289,-4.6289,-4.6289,-4.6289,-4.6289,-4.6289,-4.6289,-4.6289,-4.6289,-4.6289,-4.6289,-4.6289,-4.6289,-4.6289,-4.6289,-4.6289,-4.6289,-4.6289,-4.6289,-4.6289,-4.6289,-4.6289,-4.6289,-4.6288,-4.6285,-4.6282,-4.6273,-4.621,-4.6197,-4.6187,-4.6118,-4.6112,-4.6068,-4.6056,-4.6017,-4.5997,-4.6208,-4.6224,-4.6305,-4.6423,-4.6267,-4.6123,-4.6003,-4.5911,-4.5843,-4.5773,-4.5726,-4.5885,-4.6082,-4.7545,-4.8605,-4.9125,-4.9971,-5.0433,-5.0702,-5.0702,-5.0702,-5.0702,-5.0702,-5.0702,-5.0702,-5.0702,-5.0702,-5.0702,-5.0702,-5.0702,-4.9844,-4.8867,-4.8164,-4.7266,-4.6406,-4.6289,-4.6289,-4.6289,-4.6289,-4.6289,-4.6287,-4.6273,-4.6257,-4.624,-4.6235,-4.6201,-4.6201,-4.6226,-4.6296,-4.63,-4.6285,-4.6284,-4.627,-4.6339,-4.6331,-4.6335,-4.6319,-4.6328,-4.6445,-4.7031,-4.7305,-4.7305,-4.7226,-4.7305,-4.7187,-4.6562,-4.6289,-4.6289,-4.6289,-4.6289,-4.6289,-4.6289,-4.6289,-4.6289,-4.6289,-4.6289,-4.6289,-4.6289,-4.6289,-4.6289,-4.6289,-4.6289,-4.6289,-4.6289,-4.6289,-4.6289,-4.6289,-4.6289,-4.6289,-4.6289,-4.6289,-4.6289,-4.6289,-4.6289,-4.6289,-4.6289,-4.6289,-4.6289,-4.6289,-4.6289,-4.6289,-4.6289,-4.6289,-4.6289,-4.6289,-4.6289,-4.6286,-4.628,-4.6234,-4.6225,-4.6206,-4.6176,-4.6157,-4.6146,-4.613,-4.6052,-4.6044,-4.6017,-4.5978,-4.5975,-4.5941,-4.5905,-4.5893,-4.5919,-4.593,-4.6066,-4.6468,-4.6822,-4.8137,-4.916,-4.9681,-5.0029,-5.0529,-5.0683,-5.0702,-5.0702,-5.0702,-5.0702,-5.0702,-5.0702,-5.0702,-5.0702,-5.0702,-5.0702,-5.0702,-4.9101,-4.8242,-4.7773,-4.7109,-4.6367,-4.6289,-4.6289,-4.6289,-4.6289,-4.6289,-4.6289,-4.6284,-4.6278,-4.6309,-4.6245,-4.6265,-4.6236,-4.627,-4.6282,-4.6284,-4.6289,-4.6289,-4.6443,-4.6713,-4.6907,-4.6914,-4.6913,-4.707,-4.7539,-4.793,-4.8203,-4.8125,-4.7812,-4.7578,-4.75,-4.6758,-4.6328,-4.6289,-4.6289,-4.6289,-4.6289,-4.6289,-4.6289,-4.6289,-4.6289,-4.6289,-4.6289,-4.6289,-4.6289,-4.6289,-4.6289,-4.6289,-4.6289,-4.6289,-4.6289,-4.6289,-4.6289,-4.6289,-4.6289,-4.6289,-4.6289,-4.6289,-4.6289,-4.6289,-4.6289,-4.6289,-4.6289,-4.6289,-4.6289,-4.6289,-4.6289,-4.6289,-4.6289,-4.6289,-4.6289,-4.6289,-4.6289,-4.6289,-4.6287,-4.6286,-4.6241,-4.627,-4.6253,-4.6226,-4.6215,-4.6142,-4.6118,-4.6137,-4.6115,-4.6083,-4.6056,-4.6037,-4.6027,-4.5997,-4.6046,-4.6448,-4.727,-4.7882,-4.8894,-4.9671,-5.0233,-5.045,-5.0664,-5.0683,-5.0683,-5.0702,-5.0702,-5.0702,-5.0702,-5.0702,-5.0702,-5.0702,-5.0702,-5.0702,-5.0702,-4.8281,-4.7578,-4.7461,-4.6992,-4.6367,-4.6289,-4.6289,-4.6289,-4.6289,-4.6289,-4.6289,-4.6289,-4.6287,-4.6284,-4.6315,-4.6309,-4.6315,-4.6289,-4.6289,-4.6289,-4.6289,-4.6289,-4.6445,-4.6836,-4.7422,-4.7734,-4.7812,-4.8164,-4.8594,-4.9023,-4.9101,-4.8945,-4.8242,-4.8008,-4.7695,-4.6797,-4.6289,-4.6289,-4.6289,-4.6289,-4.6289,-4.6289,-4.6289,-4.6289,-4.6289,-4.6289,-4.6289,-4.6289,-4.6289,-4.6289,-4.6289,-4.6289,-4.6289,-4.6289,-4.6289,-4.6289,-4.6289,-4.6289,-4.6289,-4.6289,-4.6289,-4.6289,-4.6289,-4.6289,-4.6289,-4.6289,-4.6289,-4.6289,-4.6289,-4.6289,-4.6289,-4.6289,-4.6289,-4.6289,-4.6289,-4.6289,-4.6289,-4.6289,-4.6289,-4.6289,-4.6289,-4.6285,-4.6284,-4.6278,-4.6237,-4.625,-4.6211,-4.6197,-4.622,-4.6209,-4.6157,-4.613,-4.6084,-4.6441,-4.6542,-4.7572,-4.8281,-4.8748,-4.9674,-5.0171,-5.0681,-5.0692,-5.0756,-5.0702,-5.0683,-5.0683,-5.0702,-5.0702,-5.0702,-5.0702,-5.0702,-5.0702,-5.0702,-5.0702,-5.0702,-4.7734,-4.7539,-4.6797,-4.6445,-4.6328,-4.6289,-4.6289,-4.6289,-4.6289,-4.6289,-4.6289,-4.6289,-4.6289,-4.6289,-4.6289,-4.6289,-4.6289,-4.6289,-4.6289,-4.6289,-4.6289,-4.6289,-4.6367,-4.668,-4.7344,-4.8398,-4.8633,-4.875,-4.918,-4.957,-4.9922,-4.9805,-4.9023,-4.8633,-4.8164,-4.7226,-4.6289,-4.6289,-4.6289,-4.6289,-4.6289,-4.6289,-4.6289,-4.6289,-4.6289,-4.6289,-4.6289,-4.6289,-4.6289,-4.6289,-4.6289,-4.6289,-4.6289,-4.6289,-4.6289,-4.6289,-4.6289,-4.6289,-4.6289,-4.6289,-4.6289,-4.6289,-4.6289,-4.6289,-4.6289,-4.6289,-4.6289,-4.6289,-4.6289,-4.6289,-4.6289,-4.6289,-4.6289,-4.6289,-4.6289,-4.6289,-4.6289,-4.6289,-4.6289,-4.6289,-4.6289,-4.6289,-4.6289,-4.6289,-4.6289,-4.625,-4.625,-4.625,-4.627,-4.6267,-4.6225,-4.621,-4.6192,-4.667,-4.7097,-4.853,-4.9556,-4.9671,-5.0246,-5.0584,-5.0932,-5.0883,-5.0841,-5.0808,-5.0701,-5.0683,-5.0683,-5.0683,-5.0702,-5.0702,-5.0702,-5.0702,-5.0702,-5.0702,-5.0702,-4.6914,-4.6914,-4.6484,-4.6289,-4.6289,-4.6289,-4.6289,-4.6289,-4.6289,-4.6289,-4.6289,-4.6289,-4.6289,-4.6289,-4.6289,-4.6289,-4.6289,-4.6289,-4.6289,-4.6289,-4.6289,-4.6289,-4.6406,-4.668,-4.7383,-4.8164,-4.8633,-4.9375,-5.0156,-5.0586,-5.0742,-5.0508,-4.957,-4.8906,-4.8516,-4.7187,-4.6445,-4.6328,-4.6328,-4.6328,-4.6328,-4.6328,-4.6328,-4.6289,-4.6289,-4.6289,-4.6289,-4.6289,-4.6289,-4.6289,-4.6289,-4.6289,-4.6289,-4.6289,-4.6289,-4.6289,-4.6289,-4.6289,-4.6289,-4.6289,-4.6289,-4.6289,-4.6289,-4.6289,-4.6289,-4.6289,-4.6289,-4.6289,-4.6289,-4.6289,-4.6289,-4.6289,-4.6289,-4.6289,-4.6289,-4.6289,-4.6289,-4.6289,-4.6289,-4.6289,-4.6289,-4.6289,-4.6289,-4.6289,-4.6289,-4.6289,-4.6289,-4.6289,-4.6289,-4.6289,-4.6289,-4.6397,-4.6502,-4.7194,-4.7796,-4.8995,-5.027,-5.0533,-5.0646,-5.0996,-5.1109,-5.1049,-5.0984,-5.0889,-5.0819,-5.0738,-5.0702,-5.0702,-5.0683,-5.0721,-5.0721,-5.0721,-5.0702,-5.0702,-5.0721,-4.6289,-4.6289,-4.6289,-4.6289,-4.6289,-4.6289,-4.6289,-4.6289,-4.6289,-4.6289,-4.6289,-4.6289,-4.6289,-4.6289,-4.6289,-4.6289,-4.6289,-4.6289,-4.6289,-4.6289,-4.6289,-4.6289,-4.6523,-4.6914,-4.7422,-4.7773,-4.8203,-4.9531,-5.0586,-5.0937,-5.1094,-5.0625,-4.9531,-4.875,-4.8281,-4.7031,-4.6523,-4.6562,-4.6562,-4.6562,-4.6562,-4.6562,-4.6445,-4.6289,-4.6289,-4.6289,-4.6289,-4.6289,-4.6289,-4.6289,-4.6289,-4.6289,-4.6289,-4.6289,-4.6289,-4.6289,-4.6289,-4.6289,-4.6289,-4.6289,-4.6289,-4.6289,-4.6289,-4.6289,-4.6289,-4.6289,-4.6289,-4.6289,-4.6289,-4.6289,-4.6289,-4.6289,-4.6289,-4.6289,-4.6289,-4.6289,-4.6289,-4.6289,-4.6289,-4.6289,-4.6289,-4.6289,-4.6289,-4.6289,-4.6289,-4.6289,-4.6289,-4.6289,-4.6289,-4.6289,-4.6328,-4.6562,-4.6911,-4.7769,-4.8504,-4.9274,-5.036,-5.1001,-5.1018,-5.1193,-5.1234,-5.1191,-5.1102,-5.1047,-5.0956,-5.0874,-5.0791,-5.0758,-5.0758,-5.0797,-5.076,-5.076,-5.0797,-5.0758,-5.0776,-4.6289,-4.6289,-4.6289,-4.6289,-4.6289,-4.6289,-4.6289,-4.6289,-4.6289,-4.6289,-4.6289,-4.6289,-4.6289,-4.6289,-4.6289,-4.6289,-4.6289,-4.6289,-4.6289,-4.6289,-4.6289,-4.6289,-4.6289,-4.6328,-4.6953,-4.7344,-4.7617,-4.875,-4.9883,-5.0234,-5.0351,-5.0078,-4.9336,-4.8594,-4.8047,-4.707,-4.6719,-4.7305,-4.7461,-4.7422,-4.7383,-4.7344,-4.6992,-4.6484,-4.6289,-4.6289,-4.6289,-4.6289,-4.6289,-4.6289,-4.6289,-4.6289,-4.6289,-4.6289,-4.6289,-4.6289,-4.6289,-4.6289,-4.6289,-4.6289,-4.6289,-4.6289,-4.6289,-4.6289,-4.6289,-4.6289,-4.6289,-4.6289,-4.6289,-4.6289,-4.6289,-4.6289,-4.6289,-4.6289,-4.6289,-4.6289,-4.6289,-4.6289,-4.6289,-4.6289,-4.6289,-4.6289,-4.6289,-4.6289,-4.6289,-4.6289,-4.6289,-4.6289,-4.6289,-4.6289,-4.6289,-4.6484,-4.707,-4.7891,-4.875,-4.957,-5.043,-5.125,-5.1328,-5.1328,-5.1318,-5.1252,-5.1225,-5.1178,-5.107,-5.0984,-5.0952,-5.0929,-5.088,-5.0846,-5.0846,-5.0846,-5.0902,-5.0902,-5.0863,-4.5391,-4.6289,-4.6289,-4.6289,-4.6289,-4.6289,-4.6289,-4.6289,-4.6289,-4.6289,-4.6289,-4.6289,-4.6289,-4.6289,-4.6289,-4.6289,-4.6289,-4.6289,-4.6289,-4.6289,-4.6289,-4.6289,-4.6289,-4.6289,-4.6601,-4.6797,-4.6992,-4.7422,-4.8555,-4.9219,-4.9453,-4.9336,-4.8672,-4.832,-4.8047,-4.7422,-4.7656,-4.8086,-4.832,-4.8047,-4.7734,-4.7578,-4.7187,-4.6367,-4.6328,-4.6289,-4.6289,-4.6289,-4.6289,-4.6289,-4.6289,-4.6289,-4.6289,-4.6289,-4.6289,-4.6289,-4.6289,-4.6289,-4.6289,-4.6289,-4.6289,-4.6289,-4.6289,-4.6289,-4.6289,-4.6289,-4.6289,-4.6289,-4.6289,-4.6289,-4.6289,-4.6289,-4.6289,-4.6289,-4.6289,-4.6289,-4.6289,-4.6289,-4.6289,-4.6289,-4.6289,-4.6289,-4.6289,-4.6289,-4.6289,-4.6289,-4.6289,-4.6289,-4.6289,-4.6289,-4.6289,-4.6328,-4.707,-4.793,-4.875,-4.9609,-5.043,-5.1133,-5.1367,-5.1367,-5.1367,-5.1349,-5.1332,-5.1308,-5.1218,-5.1172,-5.1113,-5.1037,-5.0981,-5.0952,-5.0937,-5.0937,-5.099,-5.1029,-5.1261,-4.4258,-4.5625,-4.5664,-4.5664,-4.5664,-4.5664,-4.5625,-4.5625,-4.5859,-4.5937,-4.6055,-4.6172,-4.6289,-4.6289,-4.6289,-4.6289,-4.6289,-4.6289,-4.6289,-4.6289,-4.6289,-4.6289,-4.6289,-4.6328,-4.6328,-4.6289,-4.6445,-4.6797,-4.7383,-4.8047,-4.8555,-4.8555,-4.8047,-4.7969,-4.8203,-4.7969,-4.8008,-4.9141,-4.9492,-4.918,-4.8516,-4.8086,-4.75,-4.6875,-4.6445,-4.6289,-4.6289,-4.6289,-4.6289,-4.6289,-4.6289,-4.6289,-4.6289,-4.6289,-4.6289,-4.6289,-4.6289,-4.6289,-4.6289,-4.6289,-4.6289,-4.6289,-4.6288,-4.6289,-4.6289,-4.6288,-4.6289,-4.6289,-4.6289,-4.6289,-4.6289,-4.6289,-4.6289,-4.6289,-4.6289,-4.6289,-4.6289,-4.6289,-4.625,-4.625,-4.6289,-4.6289,-4.6289,-4.6289,-4.6289,-4.6289,-4.6289,-4.6367,-4.6445,-4.6562,-4.6719,-4.6836,-4.75,-4.8359,-4.918,-4.9922,-5.0664,-5.1055,-5.1289,-5.1406,-5.1367,-5.1367,-5.1359,-5.1346,-5.1371,-5.1308,-5.1257,-5.1162,-5.1062,-5.1074,-5.1074,-5.1076,-5.1063,-5.1192,-5.1748,-4.3008,-4.3867,-4.3867,-4.3906,-4.3984,-4.3867,-4.3945,-4.418,-4.4805,-4.5117,-4.5312,-4.5898,-4.6289,-4.6289,-4.6289,-4.6289,-4.6289,-4.6289,-4.6289,-4.6289,-4.6289,-4.6289,-4.6289,-4.6289,-4.6289,-4.6289,-4.6289,-4.6367,-4.6601,-4.7305,-4.7617,-4.7656,-4.7851,-4.7734,-4.8008,-4.8398,-4.8867,-4.9961,-5.0547,-5.0508,-4.9726,-4.9062,-4.8281,-4.7461,-4.6758,-4.6289,-4.6289,-4.6289,-4.6289,-4.6289,-4.6289,-4.6289,-4.6289,-4.628,-4.6273,-4.6267,-4.6264,-4.6264,-4.6264,-4.6282,-4.6289,-4.6289,-4.6284,-4.627,-4.627,-4.6278,-4.6285,-4.6288,-4.6289,-4.6289,-4.6276,-4.6303,-4.6264,-4.6264,-4.6261,-4.6257,-4.6257,-4.625,-4.6211,-4.625,-4.6231,-4.627,-4.6475,-4.6516,-4.6679,-4.6719,-4.7031,-4.7109,-4.7109,-4.7187,-4.7422,-4.7695,-4.8242,-4.9023,-4.9805,-5.0391,-5.0664,-5.1016,-5.1328,-5.1406,-5.1406,-5.1406,-5.1406,-5.1482,-5.1513,-5.1433,-5.1464,-5.1557,-5.1529,-5.1295,-5.12,-5.1288,-5.1561,-5.1804,-5.2582,-4.1794,-4.2107,-4.2103,-4.2731,-4.3711,-4.3711,-4.3711,-4.375,-4.4062,-4.4531,-4.5039,-4.5898,-4.6289,-4.6289,-4.6289,-4.6289,-4.6289,-4.6289,-4.6289,-4.6289,-4.6289,-4.6289,-4.6284,-4.6278,-4.6289,-4.6278,-4.628,-4.6286,-4.6328,-4.6752,-4.712,-4.7461,-4.8077,-4.8789,-4.9062,-4.9453,-5.0234,-5.0625,-5.1133,-5.0976,-5.0195,-4.9336,-4.8476,-4.7617,-4.6758,-4.6328,-4.6289,-4.6289,-4.6289,-4.6278,-4.6278,-4.6278,-4.6239,-4.6264,-4.6245,-4.6259,-4.6259,-4.6248,-4.6248,-4.6253,-4.6239,-4.6239,-4.6228,-4.6214,-4.624,-4.6249,-4.6257,-4.6225,-4.6237,-4.6231,-4.6225,-4.6236,-4.6254,-4.6254,-4.6248,-4.6235,-4.6229,-4.6235,-4.6346,-4.643,-4.632,-4.6209,-4.647,-4.6765,-4.6983,-4.7187,-4.7578,-4.7851,-4.7851,-4.7969,-4.8242,-4.8476,-4.9023,-4.9453,-5.0195,-5.043,-5.0547,-5.0976,-5.1406,-5.1406,-5.1406,-5.1406,-5.1445,-5.1523,-5.1875,-5.2145,-5.2253,-5.2195,-5.1971,-5.1681,-5.1551,-5.1583,-5.1934,-5.2409,-5.3319,-4.1114,-4.1111,-4.1097,-4.1777,-4.2888,-4.2929,-4.2929,-4.2968,-4.3203,-4.3983,-4.5036,-4.5663,-4.6094,-4.6211,-4.6289,-4.6289,-4.6289,-4.6289,-4.6289,-4.6289,-4.6289,-4.627,-4.6292,-4.6279,-4.624,-4.6279,-4.6275,-4.621,-4.6234,-4.6444,-4.7177,-4.7983,-4.875,-4.9531,-5.0078,-5.0934,-5.1403,-5.1403,-5.1325,-5.1208,-5.0508,-4.9453,-4.875,-4.7851,-4.6914,-4.6289,-4.6264,-4.6253,-4.6279,-4.6279,-4.6275,-4.6231,-4.6192,-4.6187,-4.6164,-4.6176,-4.6146,-4.6169,-4.6138,-4.6176,-4.6192,-4.6226,-4.6181,-4.617,-4.6164,-4.6157,-4.6164,-4.6181,-4.6158,-4.6162,-4.6192,-4.6183,-4.6146,-4.6146,-4.613,-4.6122,-4.6289,-4.6319,-4.6504,-4.662,-4.6678,-4.7064,-4.7408,-4.7801,-4.7975,-4.8118,-4.8125,-4.8437,-4.8516,-4.875,-4.918,-4.9414,-4.9726,-5.0078,-5.0469,-5.0703,-5.0937,-5.1055,-5.1406,-5.1406,-5.1406,-5.1484,-5.1758,-5.207,-5.2461,-5.2891,-5.3086,-5.3047,-5.2578,-5.1991,-5.2025,-5.2133,-5.2533,-5.3084,-5.3963,-4.1061,-4.111,-4.1071,-4.1145,-4.1342,-4.1201,-4.1281,-4.1553,-4.2218,-4.3347,-4.4663,-4.4987,-4.5543,-4.6055,-4.6172,-4.6289,-4.6289,-4.6289,-4.6289,-4.6289,-4.6284,-4.6274,-4.6222,-4.6183,-4.6183,-4.6208,-4.6201,-4.6169,-4.6196,-4.6629,-4.7534,-4.8349,-4.9002,-4.9854,-5.0156,-5.0984,-5.1375,-5.1375,-5.1375,-5.1293,-5.0941,-4.9731,-4.899,-4.8291,-4.7194,-4.6522,-4.6236,-4.6209,-4.619,-4.6176,-4.6193,-4.6177,-4.6169,-4.6122,-4.6104,-4.6085,-4.6056,-4.6007,-4.6007,-4.6134,-4.6152,-4.6169,-4.6091,-4.6074,-4.6104,-4.6074,-4.6091,-4.6068,-4.6091,-4.6115,-4.6083,-4.6163,-4.6183,-4.625,-4.6307,-4.6519,-4.6756,-4.686,-4.7093,-4.7248,-4.7866,-4.8444,-4.8759,-4.905,-4.9139,-4.915,-4.8942,-4.9023,-4.9258,-4.9609,-5.0078,-5.0234,-5.043,-5.0625,-5.0937,-5.1172,-5.1328,-5.1406,-5.1445,-5.1484,-5.1758,-5.2031,-5.2344,-5.2656,-5.3242,-5.3906,-5.3984,-5.3984,-5.3398,-5.2917,-5.2713,-5.2827,-5.3263,-5.3789,-5.4648,-4.0461,-4.0953,-4.0968,-4.0968,-4.0967,-4.1033,-4.1022,-4.1193,-4.1935,-4.2715,-4.3451,-4.4328,-4.5082,-4.5486,-4.6016,-4.625,-4.625,-4.6241,-4.6237,-4.6228,-4.6208,-4.6191,-4.6134,-4.6104,-4.6113,-4.6056,-4.6076,-4.6047,-4.5982,-4.6455,-4.6923,-4.7701,-4.8747,-4.9692,-5.0594,-5.1242,-5.132,-5.1359,-5.1359,-5.132,-5.1203,-5.019,-4.9294,-4.8762,-4.7547,-4.6729,-4.6169,-4.613,-4.6113,-4.6095,-4.6066,-4.6046,-4.6025,-4.5964,-4.5991,-4.598,-4.5956,-4.5905,-4.588,-4.5944,-4.5968,-4.5991,-4.6003,-4.5964,-4.5964,-4.5964,-4.5947,-4.5997,-4.6046,-4.6064,-4.5964,-4.655,-4.6758,-4.6978,-4.7159,-4.7597,-4.7854,-4.7879,-4.8009,-4.8009,-4.8372,-4.8941,-4.933,-4.9664,-4.981,-5.0104,-4.997,-5.0168,-5.043,-5.0625,-5.0976,-5.0976,-5.1094,-5.125,-5.1406,-5.1406,-5.1406,-5.1406,-5.1523,-5.1719,-5.2031,-5.25,-5.3047,-5.3437,-5.418,-5.4883,-5.4883,-5.4765,-5.4336,-5.3944,-5.3867,-5.3867,-5.4258,-5.4687,-5.5273,-3.9954,-4.0412,-4.0723,-4.0858,-4.0868,-4.0926,-4.0984,-4.1065,-4.1565,-4.1979,-4.2595,-4.3831,-4.4643,-4.5094,-4.5718,-4.6161,-4.6156,-4.6175,-4.6137,-4.6164,-4.6115,-4.608,-4.603,-4.6014,-4.6014,-4.5953,-4.5941,-4.5925,-4.5869,-4.5879,-4.641,-4.7287,-4.8037,-4.8994,-4.9959,-5.037,-5.0848,-5.1003,-5.1197,-5.1159,-5.0925,-5.0292,-4.9448,-4.8603,-4.7748,-4.696,-4.6279,-4.6035,-4.6025,-4.5964,-4.5941,-4.5917,-4.588,-4.5854,-4.5893,-4.5866,-4.5824,-4.581,-4.5781,-4.5727,-4.5757,-4.5786,-4.5827,-4.5854,-4.5854,-4.5841,-4.5854,-4.5932,-4.6125,-4.628,-4.6422,-4.7038,-4.7502,-4.768,-4.7882,-4.833,-4.8414,-4.8414,-4.8723,-4.8778,-4.9064,-4.956,-4.9861,-5.0114,-5.0403,-5.0736,-5.1063,-5.1226,-5.1297,-5.1341,-5.1347,-5.1323,-5.134,-5.1346,-5.1352,-5.1406,-5.1406,-5.1406,-5.1641,-5.1992,-5.2461,-5.293,-5.3594,-5.4297,-5.5078,-5.5625,-5.5742,-5.5586,-5.5273,-5.5156,-5.5156,-5.5195,-5.5351,-5.5586,-5.5898,-3.942,-3.9592,-4.0355,-4.0641,-4.0641,-4.077,-4.0866,-4.0896,-4.0906,-4.1392,-4.2167,-4.3043,-4.3825,-4.4766,-4.5624,-4.602,-4.6073,-4.6098,-4.6044,-4.6007,-4.5996,-4.5944,-4.593,-4.588,-4.5893,-4.588,-4.5827,-4.5814,-4.58,-4.5786,-4.625,-4.6907,-4.7487,-4.8135,-4.8629,-4.916,-4.9808,-5.0261,-5.0468,-5.0429,-5.0235,-4.9912,-4.9059,-4.8257,-4.7507,-4.6809,-4.6215,-4.588,-4.5906,-4.588,-4.5814,-4.58,-4.5786,-4.5757,-4.5795,-4.5843,-4.5857,-4.5863,-4.5868,-4.5907,-4.5676,-4.5726,-4.5735,-4.5765,-4.5819,-4.5881,-4.6074,-4.6306,-4.6577,-4.6847,-4.7156,-4.7719,-4.8282,-4.8364,-4.8446,-4.8621,-4.8662,-4.8893,-4.9316,-4.9681,-5.0085,-5.0447,-5.0499,-5.0703,-5.0596,-5.0797,-5.0984,-5.1062,-5.1152,-5.122,-5.1239,-5.1256,-5.1257,-5.1291,-5.1347,-5.1518,-5.1708,-5.1826,-5.2064,-5.2383,-5.2891,-5.3565,-5.431,-5.5098,-5.5934,-5.6328,-5.6211,-5.6289,-5.6367,-5.625,-5.5937,-5.5898,-5.582,-5.6094,-5.6406,-3.795,-3.8517,-3.8762,-3.9212,-3.9778,-4.0397,-4.073,-4.0801,-4.0798,-4.0963,-4.1248,-4.2094,-4.2975,-4.3782,-4.4634,-4.5312,-4.5745,-4.5958,-4.5968,-4.5944,-4.5896,-4.5857,-4.5835,-4.5804,-4.5819,-4.575,-4.5719,-4.5719,-4.5648,-4.5687,-4.5726,-4.6095,-4.6513,-4.6844,-4.7284,-4.7593,-4.8346,-4.8948,-4.9234,-4.9388,-4.935,-4.904,-4.8305,-4.7685,-4.7337,-4.6626,-4.6032,-4.5824,-4.5795,-4.575,-4.5735,-4.5703,-4.5632,-4.5693,-4.5808,-4.6523,-4.6583,-4.6565,-4.6547,-4.6509,-4.624,-4.574,-4.5637,-4.5637,-4.5808,-4.6155,-4.6485,-4.681,-4.7289,-4.7675,-4.8022,-4.8523,-4.8967,-4.9142,-4.9278,-4.949,-4.9586,-4.9702,-5.0087,-5.0183,-5.0625,-5.0664,-5.0758,-5.0756,-5.0675,-5.0769,-5.0858,-5.0937,-5.1009,-5.1063,-5.1101,-5.1136,-5.1364,-5.1463,-5.1624,-5.181,-5.206,-5.2325,-5.2559,-5.3026,-5.3892,-5.457,-5.5216,-5.5762,-5.6263,-5.6473,-5.6484,-5.6562,-5.6601,-5.6601,-5.6367,-5.6328,-5.6367,-5.6523,-5.6601,-3.7076,-3.7577,-3.791,-3.8358,-3.8883,-3.9706,-4.0111,-4.0269,-4.0501,-4.0693,-4.0844,-4.1622,-4.2254,-4.2833,-4.3656,-4.4455,-4.5254,-4.5311,-4.5441,-4.5812,-4.5808,-4.5736,-4.5714,-4.5709,-4.5671,-4.5654,-4.5676,-4.5637,-4.5603,-4.5586,-4.5642,-4.5642,-4.5586,-4.5893,-4.6257,-4.6506,-4.6694,-4.7378,-4.7874,-4.8144,-4.8237,-4.8199,-4.7758,-4.7179,-4.6986,-4.6468,-4.5835,-4.5758,-4.5687,-4.5637,-4.5637,-4.562,-4.5603,-4.5642,-4.6026,-4.6624,-4.6855,-4.6817,-4.6817,-4.6855,-4.6394,-4.5893,-4.5624,-4.5873,-4.618,-4.6565,-4.6989,-4.7412,-4.8105,-4.8663,-4.8971,-4.9279,-4.9625,-4.9894,-5.024,-5.0587,-5.0625,-5.0625,-5.0664,-5.0625,-5.0664,-5.0664,-5.0683,-5.0702,-5.0721,-5.074,-5.0758,-5.0794,-5.0858,-5.0937,-5.0981,-5.1023,-5.1399,-5.1722,-5.1897,-5.2202,-5.2686,-5.2935,-5.3091,-5.3674,-5.4723,-5.5158,-5.5366,-5.5818,-5.638,-5.6475,-5.6484,-5.654,-5.6562,-5.6554,-5.6559,-5.6484,-5.6445,-5.6523,-5.6601,-3.643,-3.6584,-3.7507,-3.7853,-3.8046,-3.8815,-3.9277,-3.9377,-4.0121,-4.0545,-4.0731,-4.1407,-4.1851,-4.2251,-4.283,-4.3578,-4.4274,-4.4553,-4.4966,-4.5603,-4.568,-4.568,-4.5624,-4.5603,-4.562,-4.5603,-4.5603,-4.5603,-4.5603,-4.5586,-4.5586,-4.5586,-4.5586,-4.5701,-4.5778,-4.5817,-4.5967,-4.6215,-4.6985,-4.7524,-4.7661,-4.772,-4.7586,-4.6912,-4.6642,-4.6373,-4.5834,-4.5603,-4.5586,-4.5586,-4.5586,-4.5603,-4.5603,-4.5624,-4.6086,-4.6778,-4.7163,-4.7394,-4.7394,-4.7355,-4.6701,-4.6124,-4.5663,-4.6201,-4.6663,-4.7086,-4.7509,-4.824,-4.8933,-4.9394,-4.974,-4.9933,-5.0202,-5.0317,-5.051,-5.0702,-5.0702,-5.0702,-5.0702,-5.0702,-5.0702,-5.0702,-5.0702,-5.0683,-5.0683,-5.0683,-5.0683,-5.0702,-5.074,-5.0846,-5.0897,-5.0967,-5.1463,-5.192,-5.2274,-5.2665,-5.3349,-5.3645,-5.38,-5.4241,-5.5147,-5.5372,-5.5345,-5.5841,-5.632,-5.6394,-5.6418,-5.6478,-5.6503,-5.6514,-5.6493,-5.6504,-5.6512,-5.6556,-5.6601,-3.4199,-3.493,-3.6392,-3.7007,-3.7123,-3.793,-3.8685,-3.9285,-3.9484,-3.9961,-4.0485,-4.077,-4.1247,-4.1786,-4.1994,-4.2626,-4.3365,-4.3849,-4.4376,-4.4876,-4.524,-4.5547,-4.5586,-4.5586,-4.5586,-4.5586,-4.5586,-4.5586,-4.5586,-4.5586,-4.5586,-4.5586,-4.5586,-4.5586,-4.5586,-4.5586,-4.5624,-4.5663,-4.6047,-4.6471,-4.6471,-4.6278,-4.6009,-4.5932,-4.5893,-4.5932,-4.5586,-4.5586,-4.5586,-4.5586,-4.5586,-4.5586,-4.5586,-4.5586,-4.6355,-4.7432,-4.774,-4.8009,-4.8279,-4.8048,-4.7432,-4.6663,-4.6317,-4.6778,-4.724,-4.7625,-4.8202,-4.9009,-4.9663,-5.0087,-5.0356,-5.0548,-5.0702,-5.0702,-5.0702,-5.0702,-5.0702,-5.0702,-5.0702,-5.0702,-5.0702,-5.0702,-5.0702,-5.0702,-5.0702,-5.0702,-5.0702,-5.0721,-5.0721,-5.074,-5.0892,-5.1043,-5.1604,-5.2064,-5.258,-5.331,-5.4083,-5.4581,-5.4774,-5.5216,-5.5603,-5.5614,-5.5598,-5.5874,-5.6162,-5.6212,-5.6319,-5.6368,-5.6394,-5.6402,-5.6418,-5.6393,-5.6458,-5.6514,-5.6546,-3.316,-3.3776,-3.5045,-3.5815,-3.6276,-3.7046,-3.77,-3.8161,-3.8546,-3.92,-3.9969,-4.0354,-4.0777,-4.12,-4.1216,-4.1694,-4.2486,-4.2948,-4.3684,-4.4299,-4.4684,-4.5201,-4.5393,-4.5547,-4.5586,-4.5586,-4.5586,-4.5586,-4.5586,-4.5586,-4.5586,-4.5586,-4.5586,-4.5586,-4.5586,-4.5586,-4.5586,-4.5586,-4.5586,-4.5586,-4.5586,-4.5586,-4.5586,-4.5586,-4.5586,-4.5586,-4.5586,-4.5586,-4.5586,-4.5586,-4.5586,-4.5586,-4.5586,-4.5586,-4.6471,-4.7509,-4.8163,-4.8471,-4.8933,-4.8856,-4.824,-4.7471,-4.6701,-4.7048,-4.8163,-4.8548,-4.8779,-4.9548,-5.0125,-5.0548,-5.0548,-5.0664,-5.0702,-5.0702,-5.0702,-5.0702,-5.0702,-5.0702,-5.0702,-5.0702,-5.0702,-5.0702,-5.0702,-5.0702,-5.0702,-5.0702,-5.0702,-5.0702,-5.0702,-5.0779,-5.0914,-5.128,-5.1934,-5.2762,-5.3533,-5.4246,-5.4998,-5.5403,-5.5557,-5.5634,-5.5711,-5.5768,-5.59,-5.5952,-5.6001,-5.6048,-5.6135,-5.62,-5.6224,-5.6224,-5.6275,-5.6297,-5.6388,-5.6433,-5.6446,-3.2506,-3.2852,-3.3814,-3.4622,-3.5391,-3.6199,-3.6622,-3.6881,-3.7507,-3.8354,-3.9185,-3.9969,-4.0315,-4.0469,-4.0508,-4.1062,-4.1578,-4.2079,-4.2893,-4.3492,-4.3974,-4.4533,-4.5012,-4.5337,-4.5358,-4.5491,-4.553,-4.555,-4.5514,-4.5514,-4.5514,-4.555,-4.555,-4.555,-4.5568,-4.5568,-4.555,-4.555,-4.555,-4.555,-4.5568,-4.5586,-4.5586,-4.5586,-4.5586,-4.5586,-4.5586,-4.5586,-4.5586,-4.5586,-4.5586,-4.5568,-4.5568,-4.5607,-4.6453,-4.7375,-4.8048,-4.8548,-4.9125,-4.9317,-4.8856,-4.8279,-4.7509,-4.7663,-4.8779,-4.924,-4.9471,-4.9933,-5.0471,-5.0702,-5.0702,-5.0702,-5.0702,-5.0702,-5.0702,-5.0702,-5.0702,-5.0702,-5.0702,-5.0702,-5.0702,-5.0702,-5.0702,-5.0702,-5.0702,-5.0702,-5.0702,-5.0702,-5.0741,-5.0933,-5.1106,-5.1761,-5.253,-5.3377,-5.4223,-5.4898,-5.5497,-5.5574,-5.5653,-5.5689,-5.5766,-5.5768,-5.5808,-5.5847,-5.5902,-5.5956,-5.599,-5.6017,-5.6071,-5.6087,-5.6132,-5.6174,-5.6214,-5.6236,-5.6319,-3.066,-3.2045,-3.3545,-3.4314,-3.4584,-3.5353,-3.6098,-3.6689,-3.6853,-3.743,-3.8267,-3.9123,-3.98,-4.0469,-4.0508,-4.0754,-4.0908,-4.1309,-4.1655,-4.2194,-4.2905,-4.3675,-4.4288,-4.4595,-4.4902,-4.5189,-4.54,-4.5361,-4.538,-4.536,-4.536,-4.536,-4.536,-4.538,-4.5419,-4.5419,-4.5419,-4.5438,-4.5438,-4.5419,-4.5457,-4.5475,-4.5586,-4.5586,-4.5586,-4.5586,-4.5586,-4.5586,-4.5586,-4.5586,-4.555,-4.5514,-4.5495,-4.5534,-4.6205,-4.6992,-4.7626,-4.8375,-4.8875,-4.926,-4.899,-4.899,-4.8375,-4.8298,-4.9029,-4.9356,-4.9702,-5.0317,-5.0702,-5.0702,-5.0702,-5.0702,-5.0702,-5.0702,-5.0702,-5.0702,-5.0702,-5.0702,-5.0702,-5.0702,-5.0702,-5.0702,-5.0702,-5.0702,-5.0702,-5.0702,-5.0702,-5.0702,-5.0702,-5.0971,-5.1279,-5.2164,-5.3049,-5.3664,-5.4318,-5.5088,-5.5609,-5.5665,-5.5703,-5.5724,-5.5724,-5.5724,-5.5707,-5.5768,-5.5768,-5.5847,-5.5847,-5.5884,-5.5902,-5.5956,-5.599,-5.6024,-5.6071,-5.6078,-5.6135]}]]